     2              OBSERVATION DATA    GPS                 RINEX VERSION / TYPE
ASRINEXO V2.9.7 UX USGS/MENLO_PARK 29-JAN-02 16:14          PGM / RUN BY / DATE
                                                            COMMENT
BIT 2 OF LLI (+4) FLAGS DATA COLLECTED UNDER "AS" CONDITION COMMENT
BIT 2 OF LLI (+4) FLAGS DATA COLLECTED UNDER "AS" CONDITION COMMENT
BIT 2 OF LLI (+4) FLAGS DATA COLLECTED UNDER "AS" CONDITION COMMENT
BIT 2 OF LLI (+4) FLAGS DATA COLLECTED UNDER "AS" CONDITION COMMENT
BIT 2 OF LLI (+4) FLAGS DATA COLLECTED UNDER "AS" CONDITION COMMENT
BIT 2 OF LLI (+4) FLAGS DATA COLLECTED UNDER "AS" CONDITION COMMENT
BIT 2 OF LLI (+4) FLAGS DATA COLLECTED UNDER "AS" CONDITION COMMENT
BIT 2 OF LLI (+4) FLAGS DATA COLLECTED UNDER "AS" CONDITION COMMENT
Original Marker Name: lae2 LAPE2__T6nR4e_S23S24S26.._GLO    COMMENT
Campaign Name: USGS Mojave 2002                             COMMENT
4-Character Station Name: LAE2                              COMMENT
6-Character Antenna Code: DMRCHT                            COMMENT
Vertical Measurement Point: BCR                             COMMENT
Vertical Offset to Rinex Ref. Point: 0.0348                 COMMENT
Radial Measurement Point: ECF                               COMMENT
Radial Offset to Rinex Ref. Point: 0.1897                   COMMENT
Antenna Height from Field Measurement: 0.8550 m             COMMENT
Additional Antenna Identification Info.:                    COMMENT
Turborogue and Ashtech Choke Ring                           COMMENT
Original XYZ: -2347570.9126 -4703965.2479 3600951.2134      COMMENT
New XYZ position is based on association with SCEC monument COMMENT
E1F2J9D3+0011. Position of that monument is believed to be  COMMENT
valid to within 1 m horizontally; vertical accuracy         COMMENT
should be no worse than 3-times this value.                 COMMENT
                                                            COMMENT
Revised Rinex header created by UCSD GPS archive for        COMMENT
GSAC on 27-Jun-2003 (2003:178) 16:03:01 GMT                 COMMENT
For assistance contact dagnew@ucsd.edu                      COMMENT
or anderson@python.ucsd.edu                                 COMMENT
                                                            COMMENT
S23 S24 S26 T6N S25 R4E                                     MARKER NAME
JMS US GEOLOGICAL SURVEY                                    OBSERVER / AGENCY
04600 ASHTECH Z-XII3 CD00                                   REC # / TYPE / VERS
CR14341 DORNE-MARGOL. TYPE T                                ANT # / TYPE
 -2347561.8191 -4703945.4288  3600933.0956                  APPROX POSITION XYZ
        0.7989        0.0000        0.0000                  ANTENNA: DELTA H/E/N
     1     1     0                                          WAVELENGTH FACT L1/2
     5    C1    L1    L2    P1    P2                        # / TYPES OF OBSERV
    30                                                      INTERVAL
  2002     1    25     0     1    0.000000                  TIME OF FIRST OBS
  2002     1    25    23    59    0.000000                  TIME OF LAST OBS
                                                            END OF HEADER
 02  1 25  0  1  0.0000000  0  7 06 05 10 09 30 04 24
  23086958.078   -16224410.376 8 -12626795.37146  23086958.122    23086972.9194
  20249008.570   -24259076.801 9 -18638769.84448  20249008.263    20249018.3454
  21539648.603   -20119332.499 9 -15346515.97647  21539648.042    21539660.9954
  24505144.925    10407297.727 7   8125730.06045  24505144.981    24505165.8274
  20874527.068   -23204210.514 9 -18064567.55647  20874527.575    20874537.9974
  24126280.839    13752646.794 8  10731626.66445  24126281.233    24126296.8604
  21411258.263   -12655200.713 9  -9834958.24747  21411258.314    21411269.8044
 02  1 25  0  1 30.0000000  0  7 06 05 10 09 30 04 24
  23074069.667   -16292138.487 8 -12679570.29246  23074069.734    23074084.5724
  20252674.929   -24239809.905 9 -18623756.67948  20252674.635    20252684.7284
  21526847.197   -20186603.938 9 -15398935.15747  21526846.634    21526859.5734
  24522503.287    10498515.471 7   8196808.49345  24522503.324    24522524.2904
  20864747.995   -23255599.603 9 -18104610.90947  20864748.475    20864758.9114
  24145101.836    13851551.420 8  10808695.10345  24145102.214    24145117.8474
  21423206.482   -12592412.688 9  -9786032.54347  21423206.533    21423218.0014
 02  1 25  0  2  0.0000000  0  7 06 05 10 09 30 04 24
  23061188.174   -16359830.348 8 -12732316.97446  23061188.262    23061203.0604
  20256443.954   -24220003.713 9 -18608323.28748  20256443.656    20256453.7214
  21514134.087   -20253411.321 9 -15450992.74147  21514133.505    21514146.4254
  24539852.049    10589682.931 8   8267847.76145  24539852.133    24539873.2414
  20855058.901   -23306515.492 9 -18144285.53847  20855059.413    20855069.8114
  24163923.060    13950457.420 8  10885764.59045  24163923.474    24163939.1404
  21435201.206   -12529380.059 9  -9736916.24547  21435201.279    21435212.7484
 02  1 25  0  2 30.0000000  0  7 06 05 10 09 30 04 24
  23048313.474   -16427486.459 8 -12785035.79646  23048313.565    23048328.3104
  20260315.356   -24199659.118 9 -18592470.35448  20260315.056    20260325.1284
  21501509.678   -20319752.557 9 -15502687.09147  21501509.095    21501521.9924
  24557190.697    10680796.500 8   8338845.03745  24557190.740    24557211.8894
  20845460.164   -23356956.763 9 -18183590.33747  20845460.698    20845471.0084
  24182744.088    14049362.488 8  10962833.33245  24182744.565    24182760.3314
  21447241.933   -12466105.807 9  -9687611.65947  21447241.993    21447253.4414
 02  1 25  0  3  0.0000000  0  7 06 05 10 09 30 04 24
  23035445.823   -16495105.276 8 -12837725.56946  23035445.963    23035460.6504
  20264289.457   -24178775.124 9 -18576197.11948  20264289.165    20264299.2464
  21488974.697   -20385623.712 9 -15554015.14847  21488974.123    21488986.9954
  24574518.749    10771855.011 8   8409799.41645  24574518.784    24574539.9854
  20835952.358   -23406920.174 9 -18222522.78147  20835952.890    20835963.2214
  24201564.927    14148266.035 8  11039900.89045  24201565.325    24201581.2674
  21459328.440   -12402590.823 9  -9638119.49247  21459328.516    21459339.9674
 02  1 25  0  3 30.0000000  0  7 06 05 10 09 30 04 24
  23022585.095   -16562687.902 8 -12890387.12946  23022585.236    23022599.8684
  20268365.860   -24157353.454 9 -18559504.91048  20268365.572    20268375.6564
  21476529.467   -20451023.302 9 -15604975.75247  21476528.899    21476541.7184
  24591835.542    10862854.273 8   8480707.63045  24591835.576    24591856.8764
  20826535.635   -23456405.029 9 -18261082.31947  20826536.169    20826546.5024
  24220384.925    14247165.036 8  11116964.93745  24220385.316    24220401.1634
  21471460.026   -12338839.012 9  -9588442.77647  21471460.078    21471471.5394
 02  1 25  0  4  0.0000000  0  7 06 05 10 09 30 04 24
  23009731.497   -16630233.552 8 -12943019.88246  23009731.625    23009746.1744
  20272544.685   -24135393.628 9 -18542393.35548  20272544.380    20272554.4724
  21464174.530   -20515948.457 9 -15655566.65947  21464173.952    21464186.7484
  24609140.598    10953792.118 7   8551567.98245  24609140.766    24609162.1454
  20817210.399   -23505408.971 9 -18299267.12447  20817210.935    20817221.2204
  24239203.882    14346058.351 8  11194024.55145  24239204.238    24239220.0944
  21483636.385   -12274851.848 9  -9538582.66247  21483636.468    21483647.9464
 02  1 25  0  4 30.0000000  0  7 06 05 10 09 30 04 24
  22996884.947   -16697741.822 8 -12995623.50746  22996885.069    22996899.5754
  20276825.823   -24112895.883 9 -18524862.64348  20276825.526    20276835.6264
  21451910.359   -20580396.556 9 -15705785.83747  21451909.792    21451922.5524
  24626433.453    11044665.750 7   8622378.30345  24626433.645    24626455.1304
  20807977.101   -23553929.915 9 -18337075.56247  20807977.637    20807987.9114
  24258021.361    14444944.303 8  11271078.44845  24258021.731    24258037.7154
  21495857.146   -12210631.308 9  -9488540.70847  21495857.218    21495868.7454
 02  1 25  0  5  0.0000000  0  7 06 05 10 09 30 04 24
  22984045.593   -16765211.663 8 -13048197.18346  22984045.707    22984060.2294
  20281209.406   -24089859.990 9 -18506912.60048  20281209.121    20281219.2194
  21439737.534   -20644364.600 9 -15755630.94747  21439736.969    21439749.7134
  24643713.634    11135473.025 7   8693136.89145  24643713.841    24643735.5014
  20798836.208   -23601965.402 9 -18374505.72247  20798836.735    20798846.9764
  24276837.169    14543821.536 8  11348125.54845  24276837.475    24276853.5414
  21508121.996   -12146179.241 9  -9438318.33847  21508122.047    21508133.5674
 02  1 25  0  5 30.0000000  0  7 06 05 10 09 30 04 24
  22971213.623   -16832643.187 8 -13100741.02946  22971213.750    22971228.1584
  20285695.247   -24066286.709 9 -18488543.80848  20285694.956    20285705.0514
  21427656.493   -20707850.233 9 -15805100.14447  21427655.943    21427668.6864
  24660980.698    11226210.871 8   8763841.35745  24660980.867    24661002.6714
  20789788.033   -23649513.702 9 -18411556.25947  20789788.539    20789798.7254
  24295650.948    14642688.234 8  11425164.45745  24295651.322    24295667.2614
  21520430.439   -12081497.908 9  -9387917.31847  21520430.516    21520442.0204
 02  1 25  0  6  0.0000000  0  7 06 05 10 09 30 04 24
  22958388.911   -16900036.831 8 -13153255.36746  22958389.028    22958403.3274
  20290283.169   -24042177.115 9 -18469757.11548  20290282.889    20290292.9454
  21415667.714   -20770851.401 9 -15854191.83447  21415667.142    21415679.8444
  24678233.969    11316875.738 8   8834488.96645  24678234.143    24678255.9704
  20780832.766   -23696573.587 9 -18448226.21647  20780833.269    20780843.4244
  24314462.217    14741541.886 8  11502193.18445  24314462.597    24314478.6364
  21532781.938   -12016590.476 9  -9337340.11547  21532781.985    21532793.5074
 02  1 25  0  6 30.0000000  0  7 06 05 10 09 30 04 24
  22945571.765   -16967390.391 8 -13205738.46146  22945571.871    22945586.2314
  20294973.451   -24017529.641 9 -18450551.29048  20294973.153    20294983.2314
  21403771.858   -20833364.104 9 -15902902.89847  21403771.298    21403783.9474
  24695473.119    11407466.986 8   8905079.20745  24695473.418    24695495.1774
  20771971.175   -23743141.275 9 -18484512.63747  20771971.673    20771981.8244
  24333271.059    14840382.763 8  11579211.92845  24333271.416    24333287.5314
  21545176.393   -11951457.126 9  -9286586.86947  21545176.485    21545188.0114
 02  1 25  0  7  0.0000000  0  7 06 05 10 09 30 04 24
  22932762.112   -17034704.758 8 -13258191.02746  22932762.210    22932776.4954
  20299765.779   -23992345.718 9 -18430927.45848  20299765.475    20299775.5654
  21391969.275   -20895386.598 9 -15951231.98647  21391968.708    21391981.3034
  24712697.674    11497981.004 8   8975609.27445  24712697.964    24712719.7964
  20763203.394   -23789216.097 9 -18520415.00647  20763203.883    20763213.9934
  24352077.011    14939208.052 8  11656218.55645  24352077.417    24352093.6064
  21557613.200   -11886101.122 9  -9235660.13047  21557613.285    21557624.8774
 02  1 25  0  7 30.0000000  0  7 06 05 10 09 30 04 24
  22919960.032   -17101979.442 8 -13310612.66646  22919960.102    22919974.3464
  20304660.168   -23966625.472 9 -18410885.70948  20304659.876    20304669.9454
  21380260.415   -20956916.469 9 -15999177.20747  21380259.864    21380272.4034
  24729906.987    11588415.011 8   9046077.00945  24729907.281    24729929.1124
  20754529.800   -23834795.759 9 -18555931.53847  20754530.298    20754540.3684
  24370879.738    15038016.284 8  11733211.88345  24370880.100    24370896.3864
  21570092.019   -11820524.506 9  -9184561.48947  21570092.126    21570103.7084
 02  1 25  0  8  0.0000000  0  7 06 05 10 09 30 04 24
  22907165.595   -17169213.927 8 -13363002.99746  22907165.699    22907179.8614
  20309656.498   -23940369.462 9 -18390426.48548  20309656.217    20309666.3074
  21368645.838   -21017951.098 9 -16046736.53047  21368645.275    21368657.7684
  24747100.691    11678766.741 8   9116480.63745  24747100.978    24747122.8244
  20745950.762   -23879878.472 9 -18591060.84348  20745951.267    20745961.3144
  24389678.849    15136805.940 8  11810190.74045  24389679.196    24389695.6074
  21582612.410   -11754729.616 9  -9133292.76147  21582612.508    21582624.0954
 02  1 25  0  8 30.0000000  0  7 06 05 10 09 30 04 24
  22894378.942   -17236407.738 8 -13415361.64246  22894378.972    22894393.0744
  20314754.745   -23913578.145 9 -18369550.13748  20314754.448    20314764.5454
  21357125.943   -21078487.972 9 -16093907.98947  21357125.380    21357137.8684
  24764278.106    11769033.298 8   9186817.89745  24764278.437    24764300.2344
  20737466.699   -23924462.192 9 -18625801.32348  20737467.240    20737477.2784
  24408474.148    15235575.396 8  11887153.84045  24408474.515    24408490.9314
  21595174.037   -11688718.111 9  -9081855.24747  21595174.102    21595185.6944
 02  1 25  0  9  0.0000000  0  7 06 05 10 09 30 04 24
  22881600.137   -17303559.973 8 -13467687.89846  22881600.168    22881614.2534
  20319954.844   -23886251.420 9 -18348256.58948  20319954.558    20319964.6224
  21345701.317   -21138524.268 9 -16140689.39047  21345700.759    21345713.2244
  24781438.951    11859212.682 7   9257087.24045  24781439.196    24781461.1014
  20729078.008   -23968544.587 9 -18660151.16048  20729078.558    20729088.5844
  24427265.292    15334323.514 7  11964100.32045  24427265.676    24427282.1794
  21607776.535   -11622491.618 9  -9030250.21047  21607776.627    21607788.2224
 02  1 25  0  9 30.0000000  0  7 06 05 10 09 30 04 24
  22868829.221   -17370670.837 8 -13519981.91246  22868829.269    22868843.3164
  20325256.687   -23858390.110 9 -18326546.48148  20325256.388    20325266.4624
  21334372.411   -21198057.647 9 -16187078.91147  21334371.862    21334384.3034
  24798582.607    11949301.994 7   9327286.38745  24798582.748    24798604.6174
  20720785.005   -24012124.299 9 -18694109.29548  20720785.549    20720795.5304
  24446051.941    15433048.496 7  12041028.73345  24446051.951    24446071.0034
  21620419.394   -11556053.055 9  -8978479.91847  21620419.485    21620431.0844
 02  1 25  0 10  0.0000000  0  7 06 05 10 09 30 04 24
  22856066.464   -17437739.165 8 -13572242.79846  22856066.515    22856080.4354
  20330660.280   -23829994.138 9 -18304419.75848  20330659.987    20330670.0574
  21323139.775   -21257085.146 9 -16233074.24247  21323139.208    21323151.6134
  24815708.615    12039299.089 7   9397413.70645  24815708.882    24815730.6544
  20712588.141   -24055198.942 9 -18727673.87148  20712588.663    20712598.6374
  24464833.863    15531749.291 7  12117938.26045  24464833.529    24464852.2154
  21633102.362   -11489403.852 9  -8926545.49647  21633102.415    21633114.0174
 02  1 25  0 10 30.0000000  0  7 06 05 10 09 30 04 24
  22843311.755   -17504764.929 8 -13624470.50646  22843311.804    22843325.6364
  20336165.464   -23801064.416 9 -18281877.12548  20336165.136    20336175.1834
  21312003.728   -21315604.854 9 -16278673.89547  21312003.167    21312015.5384
  24832816.729    12129201.174 7   9467467.01945  24832816.798    24832838.7614
  20704487.711   -24097766.733 9 -18760843.50748  20704488.231    20704498.1634
  24483610.829    15630423.912 7  12194827.39845  24483610.659    24483628.8264
  21645824.883   -11422546.480 9  -8874448.86847  21645824.967    21645836.5944
 02  1 25  0 11  0.0000000  0  7 06 05 10 09 30 04 24
  22830565.052   -17571748.619 8 -13676665.43146  22830565.119    22830578.9024
  20341771.962   -23771601.920 9 -18258919.34348  20341771.654    20341781.7084
  21300964.621   -21373615.080 9 -16323876.54847  21300964.070    21300976.4344
  24849905.949    12219005.071 7   9537443.76345  24849906.068    24849928.0724
  20696483.911   -24139826.755 9 -18793617.48748  20696484.442    20696494.3244
  24502382.707    15729070.291 7  12271694.61445  24502382.753    24502400.4354
  21658586.582   -11355483.557 9  -8822192.06747  21658586.633    21658598.2604
 02  1 25  0 11 30.0000000  0  7 06 05 10 09 30 04 24
  22817826.722   -17638688.678 8 -13728826.36346  22817826.767    22817840.4994
  20347479.928   -23741606.408 9 -18235546.22348  20347479.613    20347489.6914
  21290023.113   -21431112.663 9 -16368679.74447  21290022.554    21290034.8884
  24866976.206    12308708.851 7   9607342.51345  24866976.289    24866998.4334
  20688577.235   -24181376.095 9 -18825993.52848  20688577.776    20688587.6404
  24521149.128    15827687.599 8  12348539.19245  24521149.241    24521166.6904
  21671387.100   -11288216.272 9  -8769776.02247  21671387.161    21671398.7794
 02  1 25  0 12  0.0000000  0  7 06 05 10 09 30 04 24
  22805096.694   -17705584.878 8 -13780953.12646  22805096.760    22805110.4474
  20353289.121   -23711078.664 9 -18211758.38048  20353288.831    20353298.9044
  21279179.603   -21488095.131 9 -16413081.55747  21279179.051    21279191.3284
  24884026.894    12398309.701 7   9677161.06445  24884026.926    24884049.4384
  20680768.120   -24222413.247 9 -18857970.46248  20680768.652    20680778.4864
  24539909.783    15926274.209 8  12425359.88245  24539910.033    24539927.2274
  21684226.090   -11220746.923 9  -8717202.53047  21684226.153    21684237.7774
 02  1 25  0 12 30.0000000  0  7 06 05 10 09 30 04 24
  22792374.927   -17772437.644 8 -13833046.04746  22792374.977    22792388.6154
  20359199.396   -23680020.131 9 -18187556.93748  20359199.110    20359209.1704
  21268434.425   -21544561.117 9 -16457080.91547  21268433.880    21268446.1074
  24901057.343    12487804.133 7   9746896.69045  24901057.386    24901079.9844
  20673056.578   -24262937.345 9 -18889547.61548  20673057.101    20673066.9304
  24558664.129    16024827.849 8  12502154.91245  24558664.459    24558681.1404
  21697103.023   -11153078.556 9  -8664473.95447  21697103.068    21697114.6914
 02  1 25  0 13  0.0000000  0  7 06 05 10 09 30 04 24
  22779661.642   -17839245.407 8 -13885103.89446  22779661.758    22779675.3774
  20365210.747   -23648430.320 9 -18162941.50648  20365210.448    20365220.4914
  21257788.262   -21600506.885 9 -16500674.89947  21257787.680    21257799.8704
  24918067.384    12577190.975 7   9816548.48145  24918067.421    24918090.1254
  20665443.226   -24302945.244 9 -18920722.54148  20665443.761    20665453.5884
  24577412.112    16123348.259 8  12578924.05045  24577412.471    24577429.0014
  21710017.570   -11085212.071 9  -8611591.00547  21710017.618    21710029.2534
 02  1 25  0 13 30.0000000  0  7 06 05 10 09 30 04 24
  22766957.044   -17906008.079 8 -13937126.60146  22766957.124    22766970.7244
  20371322.992   -23616310.247 9 -18137912.88948  20371322.687    20371332.7734
  21247241.324   -21655930.867 9 -16543862.29647  21247240.752    21247252.9074
  24935056.263    12666467.181 8   9886114.03445  24935056.379    24935079.2594
  20657928.364   -24342435.940 9 -18951494.44948  20657928.903    20657938.6764
  24596153.286    16221833.262 8  12655665.57745  24596153.707    24596170.2824
  21722969.419   -11017149.724 9  -8558555.43947  21722969.491    21722981.0934
 02  1 25  0 14  0.0000000  0  7 06 05 10 09 30 04 24
  22754261.344   -17972723.638 8 -13989112.58946  22754261.423    22754275.0244
  20377536.255   -23583659.144 9 -18112470.48448  20377535.975    20377546.0544
  21236794.456   -21710829.238 9 -16586640.12847  21236793.874    21236805.9744
  24952024.013    12755631.621 7   9955592.52245  24952024.092    24952046.9934
  20650512.589   -24381405.920 9 -18981860.60848  20650513.117    20650522.8764
  24614887.674    16320282.964 8  12732379.59245  24614888.137    24614904.7514
  21735958.398   -10948892.311 9  -8505367.87147  21735958.459    21735970.0634
 02  1 25  0 14 30.0000000  0  8 06 23 05 10 09 30 04 24
  22741574.223   -18039394.120 8 -14041063.45546  22741574.296    22741587.8914
  24489618.766    -2826802.483 7  -2175503.39045  24489618.550    24489641.2224
  20383850.012   -23550480.193 9 -18086616.76648  20383849.705    20383859.8024
  21226447.497   -21765202.403 9 -16629008.70747  21226446.937    21226459.0004
  24968969.469    12844679.393 7  10024980.08045  24968969.581    24968992.5174
  20643195.692   -24419856.238 9 -19011821.83748  20643196.223    20643205.9374
  24633614.548    16418693.413 7  12809063.01645  24633615.053    24633631.7274
  21748983.629   -10880444.486 9  -8452031.93147  21748983.652    21748995.2744
 02  1 25  0 15  0.0000000  0  8 06 23 05 10 09 30 04 24
  22728895.762   -18106019.102 8 -14092978.87446  22728895.853    22728909.3714
  24469558.677    -2932216.709 7  -2257643.89345  24469558.608    24469581.0954
  20390264.042   -23516774.118 9 -18060352.30848  20390263.764    20390273.8944
  21216200.890   -21819048.161 9 -16670966.32847  21216200.330    21216212.3774
  24985892.218    12933607.807 8  10094274.63145  24985892.336    24985915.2844
  20635978.027   -24457785.137 9 -19041376.76448  20635978.549    20635988.2524
  24652333.773    16517063.159 7  12885714.69745  24652334.144    24652350.9864
  21762044.537   -10811808.802 9  -8398549.61547  21762044.600    21762056.2474
 02  1 25  0 15 30.0000000  0  8 06 23 05 10 09 30 04 24
  22716226.474   -18172596.135 8 -14144856.92646  22716226.544    22716240.0674
  24449497.738    -3037636.424 8  -2339788.74045  24449497.596    24449520.0234
  20396778.648   -23482539.671 9 -18033676.13048  20396778.374    20396788.4944
  21206055.449   -21872362.260 9 -16712509.66947  21206054.904    21206066.9104
  25002792.201    13022416.387 7  10163475.82245  25002792.237    25002815.3084
  20628860.266   -24495188.916 9 -19070522.50448  20628860.797    20628870.5144
  24671045.266    16615392.579 7  12962334.92645  24671045.561    24671062.5094
  21775141.376   -10742984.633 9  -8344920.42147  21775141.423    21775153.0524
 02  1 25  0 16  0.0000000  0  8 06 23 05 10 09 30 04 24
  22703566.594   -18239123.740 8 -14196696.45846  22703566.658    22703580.2114
  24429436.563    -3143058.033 8  -2421935.10045  24429436.234    24429458.5984
  20403393.854   -23447776.597 9 -18006588.03248  20403393.565    20403403.6884
  21196011.845   -21925141.360 9 -16753636.14247  21196011.307    21196023.2544
  25019669.045    13111103.479 7  10232582.35045  25019668.953    25019692.2034
  20621842.968   -24532064.893 9 -19099256.97048  20621843.485    20621853.1704
  24689748.976    16713681.387 7  13038923.52045  24689749.252    24689766.4094
  21788273.874   -10673972.944 9  -8291145.10547  21788273.932    21788285.5704
 02  1 25  0 16 30.0000000  0  8 06 23 05 10 09 30 04 24
  22690915.901   -18305602.894 8 -14248498.23446  22690915.986    22690929.5354
  24409375.110    -3248480.493 8  -2504082.12445  24409374.782    24409397.0124
  20410109.235   -23412487.146 9 -17979089.77248  20410108.936    20410119.0694
  21186070.168   -21977384.653 9 -16794345.10947  21186069.619    21186081.5694
  25036522.034    13199665.482 7  10301591.37545  25036522.036    25036545.4034
  20614926.092   -24568412.922 9 -19127580.03848  20614926.613    20614936.3044
  24708444.417    16811926.495 7  13115478.09145  24708444.689    24708461.8764
  21801441.303   -10604777.807 9  -8237226.84447  21801441.366    21801452.9944
 02  1 25  0 17  0.0000000  0  7 06 23 05 10 30 04 24
  22678274.786   -18372031.913 8 -14300260.95046  22678274.848    22678288.3424
  24389314.153    -3353899.891 7  -2586226.75445  24389313.870    24389335.9714
  20416924.845   -23376670.914 9 -17951181.04048  20416924.537    20416934.6904
  21176231.076   -22029088.937 9 -16834634.06947  21176230.531    21176242.4514
  20608110.191   -24604230.334 9 -19155489.64648  20608110.712    20608120.4064
  24727131.547    16910127.931 8  13191998.65245  24727131.863    24727149.0674
  21814643.495   -10535400.005 9  -8183166.24747  21814643.557    21814655.1534
 02  1 25  0 17 30.0000000  0  7 06 23 05 10 30 04 24
  22665643.404   -18438409.647 8 -14351983.69846  22665643.472    22665656.9274
  24369254.423    -3459313.121 7  -2668366.58345  24369254.127    24369276.0304
  20423840.667   -23340327.974 9 -17922861.88248  20423840.369    20423850.5424
  21166495.051   -22080251.762 9 -16874501.10447  21166494.491    21166506.3704
  20601395.776   -24639514.635 9 -19182983.83848  20601396.280    20601405.9544
  24745810.170    17008284.615 8  13268484.35645  24745810.482    24745827.6804
  21827880.221   -10465840.525 9  -8128964.08347  21827880.303    21827891.9444
 02  1 25  0 18  0.0000000  0  6 06 23 05 10 30 24
  22653021.238   -18504738.881 8 -14403668.65146  22653021.290    22653034.7054
  24349195.729    -3564720.570 7  -2750501.87445  24349195.304    24349217.1644
  20430855.957   -23303462.527 9 -17894135.57848  20430855.653    20430865.8114
  21156861.886   -22130873.927 9 -16913946.85247  21156861.340    21156873.1754
  20594782.457   -24674267.499 9 -19210063.92448  20594782.969    20594792.6504
  21841150.472   -10396104.852 9  -8074624.62347  21841150.576    21841162.1824
 02  1 25  0 18 30.0000000  0  6 06 23 05 10 30 24
  22640408.814   -18571017.051 8 -14455313.82046  22640408.891    22640422.2254
  24329139.001    -3670117.492 7  -2832628.95345  24329138.518    24329160.3414
  20437970.848   -23266073.497 9 -17865001.29048  20437970.547    20437980.7034
  21147332.341   -22180951.313 9 -16952968.10447  21147331.807    21147343.6564
  20588270.930   -24708485.378 9 -19236727.14448  20588271.456    20588281.1224
  21854454.342   -10326192.763 9  -8020147.69647  21854454.436    21854466.0814
 02  1 25  0 19  0.0000000  0  6 06 23 05 10 30 24
  22627806.123   -18637244.062 8 -14506919.13346  22627806.216    22627819.4614
  24309084.630    -3775501.963 7  -2914746.35445  24309083.963    24309105.9674
  20445185.193   -23228162.004 9 -17835459.88548  20445184.903    20445195.0574
  21137906.831   -22230482.466 9 -16991563.71947  21137906.282    21137918.1064
  20581861.399   -24742167.234 9 -19262972.68448  20581861.944    20581871.6074
  21867791.299   -10256106.864 9  -7965535.33147  21867791.383    21867803.0414
 02  1 25  0 19 30.0000000  0  6 06 23 05 10 30 24
  22615213.053   -18703420.025 8 -14558484.63946  22615213.174    22615226.4504
  24289033.250    -3880871.849 7  -2996852.42245  24289032.702    24289054.3864
  20452498.630   -23189729.604 9 -17805512.57748  20452498.330    20452508.4934
  21128585.488   -22279466.249 9 -17029732.80847  21128584.915    21128596.7324
  20575554.088   -24775312.152 9 -19288799.82648  20575554.630    20575564.2944
  21881160.746   -10185849.925 9  -7910789.68347  21881160.808    21881172.5084
 02  1 25  0 20  0.0000000  0  7 06 23 05 17 10 30 24
  22602628.460   -18769551.842 8 -14610015.75446  22602628.566    22602641.7844
  24268983.725    -3986232.109 7  -3078950.95345  24268983.253    24269004.6194
  20459909.569   -23150784.788 9 -17775165.98848  20459909.280    20459919.4674
  25057824.028    -6481935.394 7  -5028206.12245  25057823.660    25057849.9104
  21119367.285   -22327907.845 9 -17067479.42247  21119366.727    21119378.4904
  20569347.830   -24807926.117 9 -19314213.24748  20569348.366    20569358.0104
  21894560.863   -10115431.846 9  -7855918.47047  21894560.941    21894572.6664
 02  1 25  0 20 30.0000000  0  7 06 23 05 17 10 30 24
  22590054.363   -18835628.710 8 -14661504.05246  22590054.441    22590067.6034
  24248938.371    -4091569.816 7  -3161031.90645  24248938.030    24248959.0944
  20467419.798   -23111318.276 9 -17744412.88248  20467419.530    20467429.6904
  25040886.364    -6570940.635 7  -5097560.29845  25040886.266    25040912.2914
  21110254.624   -22375794.841 9 -17104793.87347  21110254.055    21110265.7944
  20563244.795   -24839997.468 9 -19339203.84848  20563245.342    20563254.9754
  21907993.274   -10044844.325 9  -7800915.22547  21907993.352    21908005.0624
 02  1 25  0 21  0.0000000  0  7 06 23 05 17 10 30 24
  22577490.988   -18901649.193 8 -14712948.40546  22577491.059    22577504.1124
  24228897.902    -4196881.528 7  -3243092.55845  24228897.564    24228918.5654
  20475029.305   -23071330.038 9 -17713253.23948  20475029.042    20475039.2124
  25023974.464    -6659810.628 7  -5166809.08945  25023974.442    25024000.3494
  21101247.998   -22423124.469 9 -17141674.01447  21101247.420    21101259.1554
  20557245.498   -24871523.744 9 -19363769.71648  20557246.035    20557255.6394
  21921457.733    -9974088.193 9  -7745780.60147  21921457.821    21921469.5364
 02  1 25  0 21 30.0000000  0  7 06 23 05 17 10 30 24
  22564938.246   -18967613.367 8 -14764348.88246  22564938.329    22564951.3544
  24208862.801    -4302165.038 7  -3325131.21545  24208862.414    24208883.4294
  20482737.845   -23030821.543 9 -17681688.19848  20482737.586    20482747.7464
  25007088.386    -6748545.016 7  -5235952.19744  25007088.463    25007113.7184
  21092347.706   -22469895.363 9 -17178118.77347  21092347.162    21092358.8894
  20551350.073   -24902503.939 9 -19387910.07148  20551350.626    20551360.2144
  21934953.823    -9903166.006 9  -7690516.56647  21934953.877    21934965.5564
 02  1 25  0 22  0.0000000  0  7 06 23 05 17 10 30 24
  22552396.184   -19033521.755 8 -14815705.89646  22552396.261    22552409.2464
  24188833.231    -4407419.006 7  -3407146.84645  24188832.950    24188853.9484
  20490544.952   -22989795.132 9 -17649719.58448  20490544.681    20490554.8404
  24990228.091    -6837144.329 7  -5304989.95444  24990227.816    24990253.1404
  21083553.842   -22516106.931 9 -17214127.67947  21083553.280    21083564.9934
  20545558.619   -24932938.111 9 -19411624.95248  20545559.155    20545568.7104
  21948480.797    -9832081.294 9  -7635125.89547  21948480.853    21948492.5604
 02  1 25  0 22 30.0000000  0  7 06 23 05 17 10 30 24
  22539864.887   -19099373.452 8 -14867018.71546  22539864.927    22539877.9464
  24168809.853    -4512640.427 7  -3489137.13245  24168809.632    24168830.6094
  20498450.472   -22948251.350 9 -17617347.83048  20498450.198    20498460.3504
  24973393.611    -6925607.315 7  -5373921.53845  24973393.410    24973418.5814
  21074866.886   -22561756.850 9 -17249698.93347  21074866.314    21074878.0344
  20539871.475   -24962824.092 9 -19434912.67448  20539872.003    20539881.5204
  21962038.446    -9760835.283 9  -7579609.53547  21962038.517    21962050.2384
 02  1 25  0 23  0.0000000  0  7 06 23 05 17 10 30 24
  22527344.221   -19165168.832 8 -14918287.64746  22527344.264    22527357.2874
  24148793.008    -4617827.811 7  -3571100.86345  24148792.810    24148813.7644
  20506454.080   -22906192.311 9 -17584574.57348  20506453.807    20506463.9524
  24956585.141    -7013933.998 7  -5442746.96345  24956585.087    24956610.1994
  21066286.968   -22606844.026 9 -17284831.67747  21066286.414    21066298.1184
  20534288.634   -24992161.775 9 -19457773.14848  20534289.177    20534298.6884
  21975626.234    -9689430.828 9  -7523969.70947  21975626.320    21975638.0314
 02  1 25  0 23 30.0000000  0  7 06 23 05 17 10 30 24
  22514834.478   -19230907.330 8 -14969512.25446  22514834.525    22514847.5224
  24128783.245    -4722978.409 7  -3653035.93845  24128782.902    24128803.8644
  20514555.500   -22863619.108 9 -17551400.67348  20514555.209    20514565.3794
  24939802.810    -7102123.486 7  -5511465.49745  24939802.754    24939827.5794
  21057814.510   -22651366.847 9 -17319524.67047  21057813.949    21057825.6024
  20528810.387   -25020949.766 9 -19480205.29648  20528810.950    20528820.4694
  21989243.875    -9617869.898 9  -7468207.96447  21989243.943    21989255.6504
 02  1 25  0 24  0.0000000  0  7 06 23 05 17 10 30 24
  22502335.531   -19296589.003 8 -15020692.57546  22502335.608    22502348.5574
  24108780.924    -4828089.865 7  -3734940.52645  24108780.639    24108801.4164
  20522754.451   -22820533.280 9 -17517827.32348  20522754.183    20522764.3594
  24923046.629    -7190175.681 7  -5580077.02045  24923046.555    24923071.3154
  21049449.647   -22695324.015 9 -17353776.89247  21049449.090    21049460.7064
  20523436.972   -25049187.109 9 -19502208.36448  20523437.510    20523447.0174
  22002890.709    -9546155.219 9  -7412326.42147  22002890.766    22002902.4804
 02  1 25  0 24 30.0000000  0  7 06 23 05 17 10 30 24
  22489847.629   -19362212.766 8 -15071827.77547  22489847.693    22489860.6004
  24088786.621    -4933159.315 8  -3816812.41645  24088786.351    24088806.8774
  20531050.829   -22776935.580 9 -17483855.11348  20531050.549    20531060.7414
  24906316.923    -7278089.139 8  -5648580.43145  24906316.757    24906341.5504
  21041192.869   -22738713.255 9 -17387586.58647  21041192.326    21041203.9004
  20518168.644   -25076872.162 9 -19523781.08248  20518169.187    20518178.6644
  22016566.534    -9474288.275 9  -7356326.22147  22016566.598    22016578.3244
 02  1 25  0 25  0.0000000  0  7 06 23 05 17 10 30 24
  22477370.838   -19427778.027 8 -15122917.40446  22477370.910    22477383.7274
  24068800.733    -5038184.309 7  -3898649.64445  24068800.417    24068820.6984
  20539444.385   -22732827.260 9 -17449485.01748  20539444.109    20539454.3064
  24889613.564    -7365863.373 8  -5716975.36845  24889613.480    24889638.1544
  21033044.511   -22781532.816 9 -17420952.37647  21033043.957    21033055.4944
  20513005.682   -25104003.616 9 -19544922.42248  20513006.231    20513015.6764
  22030270.942    -9402271.085 9  -7300208.95747  22030271.021    22030282.7584
 02  1 25  0 25 30.0000000  0  7 06 23 05 17 10 30 24
  22464905.508   -19493282.616 8 -15173959.74146  22464905.570    22464918.3924
  24048824.116    -5143160.576 8  -3980448.92145  24048823.776    24048843.8934
  20547935.162   -22688208.003 9 -17414716.78848  20547934.881    20547945.0704
  24872937.224    -7453495.906 8  -5785259.89045  24872937.145    24872961.7264
  21025005.169   -22823779.438 9 -17453871.72647  21025004.622    21025016.1484
  20507948.571   -25130578.799 9 -19565630.30348  20507949.112    20507958.5254
  22044003.921    -9330104.129 9  -7243974.98447  22044003.984    22044015.6794
 02  1 25  0 26  0.0000000  0  7 06 23 05 17 10 30 24
  22452451.514   -19558728.028 8 -15224955.96947  22452451.601    22452464.3574
  24028856.846    -5248087.542 8  -4062209.76945  24028856.500    24028876.6024
  20556522.566   -22643080.942 9 -17379552.87148  20556522.296    20556532.4974
  24856287.670    -7540988.017 8  -5853434.99745  24856287.521    24856311.9104
  21017074.720   -22865453.790 9 -17486345.15047  21017074.162    21017085.7004
  20502997.150   -25156598.479 9 -19585905.32648  20502997.680    20503007.1004
  22057764.572    -9257791.271 9  -7187627.33347  22057764.647    22057776.3744
 02  1 25  0 26 30.0000000  0  7 06 23 05 17 10 30 24
  22440009.115   -19624112.878 8 -15275905.01147  22440009.205    22440021.8684
  24008899.552    -5352961.914 8  -4143929.64345  24008899.166    24008919.3234
  20565206.549   -22597446.426 9 -17343993.53048  20565206.284    20565216.4894
  24839665.077    -7628338.220 8  -5921499.52545  24839664.879    24839689.2734
  21009253.694   -22906553.315 9 -17518370.65047  21009253.137    21009264.6514
  20498151.829   -25182060.484 9 -19605745.79048  20498152.375    20498161.7894
  22071552.764    -9185334.008 9  -7131167.15547  22071552.842    22071564.5884
 02  1 25  0 27  0.0000000  0  7 06 23 05 17 10 30 24
  22427578.394   -19689435.931 8 -15326805.89347  22427578.461    22427591.1114
  23988952.889    -5457780.362 8  -4225605.93545  23988952.544    23988972.5524
  20573986.904   -22551305.334 9 -17308039.45548  20573986.635    20573996.8744
  24823069.631    -7715545.180 7  -5989452.45045  24823069.418    24823093.7084
  21001542.416   -22947075.779 9 -17549946.50147  21001541.875    21001553.3434
  20493412.952   -25206963.066 9 -19625150.34248  20493413.495    20493422.9224
  22085368.125    -9112733.647 9  -7074595.48347  22085368.208    22085380.0164
 02  1 25  0 27 30.0000000  0  7 06 23 05 17 10 30 24
  22415159.590   -19754696.212 8 -15377657.87247  22415159.678    22415172.2784
  23969017.511    -5562539.890 8  -4307236.34445  23969017.156    23969036.9864
  20582863.505   -22504658.527 9 -17271691.31948  20582863.230    20582873.4784
  24806501.720    -7802607.802 7  -6057292.91945  24806501.577    24806525.6694
  20993941.392   -22987018.898 9 -17581070.91647  20993940.867    20993952.2934
  20488780.826   -25231304.809 9 -19644117.88248  20488781.382    20488790.7874
  22099210.437    -9039991.763 9  -7017913.53147  22099210.535    22099222.3094
 02  1 25  0 28  0.0000000  0  7 06 23 05 17 10 30 24
  22402752.781   -19819893.775 8 -15428460.98747  22402752.877    22402765.3944
  23949093.678    -5667238.815 8  -4388819.52045  23949093.289    23949113.1084
  20591836.004   -22457507.838 9 -17234950.54748  20591835.729    20591845.9834
  24789961.301    -7889525.947 7  -6125020.78545  24789961.068    24789985.1324
  20986450.840   -23026381.747 9 -17611743.17847  20986450.313    20986461.6904
  20484255.561   -25255085.118 9 -19662647.93948  20484256.115    20484265.5024
  22113079.270    -8967110.833 8  -6961123.23747  22113079.334    22113091.1174
 02  1 25  0 28 30.0000000  0  7 06 23 05 17 10 30 24
  22390358.022   -19885027.670 8 -15479214.49847  22390358.148    22390370.5784
  23929181.885    -5771874.026 7  -4470353.05245  23929181.493    23929201.2304
  20600904.169   -22409854.442 9 -17197818.05848  20600903.901    20600914.1574
  24773448.447    -7976298.668 7  -6192635.33845  24773448.279    24773472.1924
  20979071.023   -23065162.525 9 -17641961.88747  20979070.482    20979081.8444
  20479837.349   -25278302.614 9 -19680739.44048  20479837.913    20479847.3034
  22126974.196    -8894092.460 8  -6904225.84447  22126974.265    22126986.0734
 02  1 25  0 29  0.0000000  0  7 06 23 05 17 10 30 24
  22377975.588   -19950097.209 8 -15529917.85147  22377975.700    22377988.0864
  23909282.761    -5876442.557 8  -4551834.63745  23909282.369    23909302.0864
  20610067.786   -22361699.418 9 -17160294.69048  20610067.517    20610077.7884
  24756963.466    -8062925.095 7  -6260135.87744  24756963.252    24756986.9684
  20971802.293   -23103359.720 9 -17671725.85047  20971801.754    20971813.0554
  20475526.517   -25300956.040 9 -19698391.40948  20475527.068    20475536.4214
  22140895.002    -8820938.327 9  -6847222.65947  22140895.087    22140906.8644
 02  1 25  0 29 30.0000000  0  7 06 23 05 17 10 30 24
  22365605.605   -20015101.307 8 -15580570.22347  22365605.714    22365618.0574
  23889396.936    -5980941.659 8  -4633262.12845  23889396.615    23889416.3404
  20619326.663   -22313043.834 9 -17122381.27548  20619326.397    20619336.6384
  24740506.623    -8149404.031 7  -6327521.52344  24740506.564    24740529.9604
  20964644.940   -23140971.519 9 -17701033.66347  20964644.399    20964655.6814
  20471323.297   -25323044.031 9 -19715602.78248  20471323.857    20471333.1694
  22154841.237    -8747650.572 8  -6790115.36847  22154841.302    22154853.1414
 02  1 25  0 30  0.0000000  0  7 06 23 05 17 10 30 24
  22353247.928   -20080040.685 8 -15631172.16247  22353248.029    22353260.3514
  23869524.582    -6085369.957 8  -4714634.45045  23869524.303    23869543.9374
  20628680.242   -22263890.444 9 -17084079.95848  20628679.972    20628690.2094
  24724077.819    -8235736.347 8  -6394792.97445  24724077.717    24724100.8424
  20957598.962   -23177997.965 9 -17729885.35447  20957598.437    20957609.6954
  20467227.627   -25344566.823 9 -19732373.73948  20467228.163    20467237.4654
  22168812.392    -8674232.184 8  -6732906.26947  22168812.431    22168824.1904
 02  1 25  0 30 30.0000000  0  7 06 23 05 17 10 30 24
  22340902.922   -20144913.038 8 -15681721.87547  22340903.025    22340915.4324
  23849666.560    -6189723.224 8  -4795948.31145  23849666.320    23849685.7514
  20638128.643   -22214238.859 9 -17045390.43848  20638128.381    20638138.6254
  24707677.371    -8321919.615 8  -6461948.27445  24707677.322    24707700.2314
  20950664.992   -23214435.817 9 -17758278.40347  20950664.467    20950675.7014
  20463240.006   -25365521.758 9 -19748702.21448  20463240.553    20463249.8314
  22182808.310    -8600683.146 8  -6675595.38047  22182808.361    22182820.0994
 02  1 25  0 31  0.0000000  0  7 06 23 05 17 10 30 24
  22328570.814   -20209717.839 8 -15732218.97247  22328570.912    22328583.2884
  23829823.277    -6293998.888 8  -4877201.71145  23829823.068    23829842.4124
  20647671.634   -22164090.335 9 -17006313.69648  20647671.375    20647681.6154
  24691305.408    -8407953.136 8  -6528986.88945  24691305.326    24691328.0484
  20943843.455   -23250283.106 9 -17786211.27947  20943842.919    20943854.0954
  20459360.634   -25385907.838 9 -19764587.42648  20459361.189    20459370.4424
  22196828.780    -8527005.448 8  -6618184.23247  22196828.825    22196840.5274
 02  1 25  0 31 30.0000000  0  7 06 23 05 17 10 30 24
  22316251.486   -20274455.633 8 -15782663.85547  22316251.571    22316263.8744
  23809994.932    -6398195.592 8  -4958393.57045  23809994.824    23810014.0604
  20657308.607   -22113447.767 9 -16966851.98348  20657308.353    20657318.5964
  24674961.810    -8493837.575 8  -6595909.32745  24674961.780    24674984.3134
  20937134.230   -23285539.920 9 -17813684.04747  20937133.714    20937144.8554
  20455589.463   -25405725.299 9 -19780029.56248  20455590.000    20455599.2414
  22210872.981    -8453202.664 8  -6560675.61647  22210873.043    22210884.7944
 02  1 25  0 32  0.0000000  0  7 06 23 05 17 10 30 24
  22303945.543   -20339123.106 8 -15833053.94647  22303945.610    22303957.9144
  23790182.750    -6502308.008 8  -5039519.76945  23790182.580    23790201.8164
  20667039.830   -22062309.895 9 -16927004.32148  20667039.566    20667049.7954
  24658647.282    -8579569.393 8  -6662712.86145  24658647.225    24658669.6534
  20930538.156   -23320202.318 9 -17840693.62547  20930537.631    20930548.7254
  20451927.180   -25424970.485 9 -19795025.76948  20451927.715    20451936.9404
  22224941.232    -8379273.639 9  -6503068.61747  22224941.313    22224953.0594
 02  1 25  0 32 30.0000000  0  7 06 23 05 17 10 30 24
  22291652.728   -20403721.740 8 -15883390.39147  22291652.760    22291665.0814
  23770386.636    -6606335.707 8  -5120579.96045  23770386.405    23770405.5264
  20676864.633   -22010680.345 9 -16886773.52848  20676864.375    20676874.6184
  24642361.352    -8665150.316 8  -6729398.80945  24642361.249    24642383.6404
  20924054.969   -23354271.241 9 -17867240.75247  20924054.449    20924065.5564
  20448373.622   -25443644.547 9 -19809576.94448  20448374.165    20448383.3484
  22239032.700    -8305222.524 8  -6445366.48447  22239032.768    22239044.5204
 02  1 25  0 33  0.0000000  0  7 06 23 05 17 10 30 24
  22279373.453   -20468249.126 8 -15933671.34347  22279373.501    22279385.7534
  23750607.460    -6710274.406 8  -5201570.81445  23750607.258    23750626.1304
  20686783.007   -21958559.070 9 -16846159.58048  20686782.748    20686792.9994
  24626104.555    -8750577.959 7  -6795965.30645  24626104.454    24626126.9074
  20917685.275   -23387743.707 9 -17893323.10647  20917684.768    20917695.8714
  20444929.210   -25461745.085 9 -19823681.22048  20444929.750    20444938.8854
  22253147.323    -8231049.673 9  -6387569.49247  22253147.437    22253159.1794
 02  1 25  0 33 30.0000000  0  7 06 23 05 17 10 30 24
  22267107.713   -20532705.569 8 -15983897.01347  22267107.772    22267119.8674
  23730845.479    -6814122.677 8  -5282491.20445  23730845.329    23730864.1304
  20696794.465   -21905948.665 9 -16805164.48748  20696794.188    20696804.4394
  24609876.835    -8835852.797 7  -6862412.73845  24609876.738    24609899.1684
  20911429.124   -23420619.585 9 -17918940.58447  20911428.619    20911439.7554
  20441593.883   -25479272.139 9 -19837338.62148  20441594.419    20441603.5534
  22267284.549    -8156758.233 8  -6329680.09047  22267284.640    22267296.4494
 02  1 25  0 34  0.0000000  0  7 06 23 05 17 10 30 24
  22254855.872   -20597088.815 8 -16034065.64647  22254855.954    22254867.9914
  23711101.544    -6917876.310 8  -5363337.85545  23711101.397    23711120.0984
  20706899.000   -21852849.037 9 -16763788.18448  20706898.722    20706908.9734
  24593678.712    -8920972.583 7  -6928739.36345  24593678.552    24593700.9764
  20905287.047   -23452896.047 9 -17944090.98447  20905286.541    20905297.6634
  20438368.121   -25496223.370 9 -19850547.32948  20438368.662    20438377.7974
  22281444.331    -8082348.124 9  -6271698.22247  22281444.437    22281456.2654
 02  1 25  0 34 30.0000000  0  7 06 23 05 17 10 30 24
  22242617.663   -20661400.496 8 -16084178.51047  22242617.726    22242629.7384
  23691375.719    -7021534.805 8  -5444110.35745  23691375.503    23691394.1464
  20717095.956   -21799263.791 9 -16722033.47348  20717095.683    20717105.9444
  24577509.667    -9005939.017 7  -6994946.51245  24577509.526    24577531.8794
  20899258.889   -23484573.939 9 -17968774.96047  20899258.375    20899269.4754
  20435251.700   -25512600.155 9 -19863308.41648  20435252.239    20435261.3444
  22295625.904    -8007823.643 9  -6213627.22447  22295625.999    22295637.8164
 02  1 25  0 35  0.0000000  0  7 06 23 05 17 10 30 24
  22230393.549   -20725638.078 8 -16134233.64747  22230393.649    22230405.6064
  23671668.830    -7125093.730 8  -5524805.26445  23671668.615    23671687.1514
  20727385.344   -21745192.894 9 -16679900.33748  20727385.070    20727395.3454
  24561370.309    -9090749.780 7  -7061032.35345  24561370.018    24561392.3894
  20893345.194   -23515650.321 9 -17992990.23147  20893344.688    20893355.7434
  20432245.051   -25528399.983 9 -19875619.92548  20432245.591    20432254.6884
  22309829.205    -7933185.072 8  -6155467.32747  22309829.257    22309841.1174
 02  1 25  0 35 30.0000000  0  7 06 23 05 17 10 30 24
  22218183.683   -20789800.921 8 -16184230.54047  22218183.781    22218195.7204
  23651981.453    -7228550.605 8  -5605420.68545  23651981.245    23651999.6274
  20737766.774   -21690638.212 9 -16637390.21748  20737766.493    20737776.7714
  24545260.778    -9175404.241 7  -7126996.41945  24545260.461    24545282.7294
  20887546.127   -23546124.100 9 -18016735.93547  20887545.613    20887556.6834
  20429348.377   -25543621.911 9 -19887481.12248  20429348.916    20429358.0134
  22324053.905    -7858433.759 8  -6097219.57347  22324053.979    22324065.8264
 02  1 25  0 36  0.0000000  0  7 06 23 05 17 10 30 24
  22205988.194   -20853888.486 8 -16234168.78547  22205988.274    22206000.1414
  23632313.988    -7331902.943 8  -5685954.63345  23632313.660    23632331.9914
  20748239.953   -21635601.361 9 -16594504.39048  20748239.683    20748249.9794
  24529181.147    -9259901.834 8  -7192838.29645  24529180.762    24529202.7574
  20881861.945   -23575994.481 9 -18040011.46547  20881861.418    20881872.4524
  20426561.751   -25558265.531 9 -19898891.69448  20426562.295    20426571.3724
  22338299.636    -7783572.175 8  -6038885.90147  22338299.697    22338311.5704
 02  1 25  0 36 30.0000000  0  7 06 23 05 17 10 30 24
  22193807.045   -20917900.178 8 -16284047.90547  22193807.147    22193818.9234
  23612666.795    -7435148.262 8  -5766405.19545  23612666.492    23612684.7164
  20758804.514   -21580084.234 9 -16551244.31848  20758804.249    20758814.5614
  24513131.392    -9344242.225 8  -7258557.67945  24513131.043    24513152.6674
  20876292.771   -23605260.293 9 -18062815.89947  20876292.234    20876303.2394
  20423885.317   -25572330.177 9 -19909851.11148  20423885.868    20423894.9254
  22352565.906    -7708602.462 8  -5980467.96247  22352565.981    22352577.8374
 02  1 25  0 37  0.0000000  0  7 06 23 05 17 10 30 24
  22181640.620   -20981834.791 8 -16333866.96147  22181640.690    22181652.3914
  23593040.520    -7538283.455 8  -5846769.92945  23593040.269    23593058.4264
  20769460.302   -21524087.801 9 -16507610.75948  20769460.032    20769470.3504
  24497111.663    -9428424.300 8  -7324153.71145  24497111.403    24497132.8884
  20870838.938   -23633919.868 9 -18085147.94147  20870838.419    20870849.4004
  20421319.306   -25585814.514 9 -19920358.33748  20421319.845    20421328.9014
  22366852.640    -7633525.318 8  -5921966.31247  22366852.710    22366864.5814
 02  1 25  0 37 30.0000000  0  7 06 23 05 17 10 30 24
  22169489.068   -21045690.995 8 -16383624.91647  22169489.132    22169500.8284
  23573435.822    -7641305.476 8  -5927046.47445  23573435.580    23573453.6974
  20780207.059   -21467613.306 9 -16463604.68448  20780206.782    20780217.1294
  24481122.379    -9512447.077 8  -7389625.59345  24481122.142    24481143.3554
  20865500.786   -23661971.748 9 -18107006.45147  20865500.285    20865511.2144
  20418863.850   -25598717.558 9 -19930412.61148  20418864.404    20418873.4754
  22381159.499    -7558342.485 8  -5863382.29947  22381159.566    22381171.3724
 02  1 25  0 38  0.0000000  0  7 06 23 05 17 10 30 24
  22157352.620   -21109468.134 8 -16433321.26647  22157352.704    22157364.3174
  23553853.194    -7744211.735 8  -6007232.80446  23553852.957    23553871.0054
  20791044.489   -21410662.372 9 -16419227.35848  20791044.210    20791054.5584
  24465163.527    -9596309.733 8  -7454972.70045  24465163.241    24465184.5404
  20860278.453   -23689414.948 9 -18128390.66847  20860277.940    20860288.8444
  20416519.247   -25611038.411 9 -19940013.23448  20416519.798    20416528.8634
  22395486.028    -7483055.918 8  -5804717.47347  22395486.137    22395497.9854
 02  1 25  0 38 30.0000000  0  7 06 23 05 17 10 30 24
  22145231.181   -21173166.589 8 -16482956.30147  22145231.246    22145242.7744
  23534292.914    -7847000.683 8  -6087327.73046  23534292.689    23534310.5564
  20801972.012   -21353237.860 9 -16374481.01048  20801971.735    20801982.0874
  24449234.878    -9680013.267 8  -7520195.80145  24449234.598    24449255.8504
  20855171.919   -23716249.482 9 -18149300.59847  20855171.405    20855182.3104
  20414285.311   -25622777.556 9 -19949160.57648  20414285.854    20414294.9154
  22409831.847    -7407668.346 8  -5745973.93447  22409831.927    22409843.8044
 02  1 25  0 39  0.0000000  0  7 06 23 05 17 10 30 24
  22133125.025   -21236783.789 8 -16532528.01047  22133125.147    22133136.6634
  23514755.737    -7949667.932 8  -6167327.82146  23514755.464    23514773.2184
  20812989.686   -21295339.582 9 -16329365.48948  20812989.427    20812999.7784
  24433337.108    -9763555.090 7  -7585292.91845  24433336.724    24433357.9494
  20850181.826   -23742472.475 9 -18169734.00747  20850181.290    20850192.1724
  20412162.476   -25633932.903 9 -19957853.01248  20412163.024    20412172.0944
  22424196.725    -7332180.109 8  -5687151.95447  22424196.851    22424208.7254
 02  1 25  0 39 30.0000000  0  7 06 23 05 17 10 30 24
  22121034.538   -21300319.034 8 -16582035.86847  22121034.677    22121046.1454
  23495242.019    -8052211.251 8  -6247231.34246  23495241.783    23495259.4894
  20824097.136   -21236969.846 9 -16283882.59848  20824096.868    20824107.2204
  24417470.053    -9846935.033 8  -7650263.91245  24417469.708    24417490.8044
  20845308.125   -23768083.409 9 -18189690.48847  20845307.594    20845318.4564
  20410150.856   -25644503.766 9 -19966090.00148  20410151.396    20410160.4544
  22438580.602    -7256592.691 8  -5628252.68147  22438580.714    22438592.5714
 02  1 25  0 40  0.0000000  0  7 06 23 05 17 10 30 24
  22108959.919   -21363770.990 8 -16631478.83147  22108960.066    22108971.5274
  23475752.558    -8154627.188 8  -6327035.60346  23475752.376    23475770.0944
  20835294.091   -21178129.431 9 -16238032.94848  20835293.816    20835304.1934
  24401634.043    -9930151.841 7  -7715107.79145  24401633.751    24401654.7874
  20840551.233   -23793080.769 9 -18209168.86747  20840550.697    20840561.5574
  20408250.701   -25654488.949 9 -19973870.62648  20408251.242    20408260.3274
  22452983.034    -7180907.517 8  -5569277.25047  22452983.113    22452994.9814
 02  1 25  0 40 30.0000000  0  7 06 23 05 17 10 30 24
  22096901.087   -21427140.280 8 -16680857.37347  22096901.224    22096912.6814
  23456287.527    -8256914.656 8  -6406739.74945  23456287.351    23456305.0884
  20846579.984   -21118821.665 9 -16191819.12348  20846579.733    20846590.1134
  24385829.071   -10013206.452 8  -7779825.28445  24385828.793    24385849.7594
  20835910.983   -23817464.970 9 -18228169.46247  20835910.449    20835921.2874
  20406461.828   -25663889.322 9 -19981195.54948  20406462.360    20406471.4524
  22467403.409    -7105127.787 8  -5510228.13947  22467403.530    22467415.4144
 02  1 25  0 41  0.0000000  0  7 06 23 05 17 10 30 24
  22084858.235   -21490425.430 8 -16730170.34047  22084858.351    22084869.8534
  23436847.700    -8359070.236 8  -6486341.11845  23436847.489    23436865.1144
  20857954.625   -21059047.623 9 -16145241.96648  20857954.359    20857964.7634
  24370055.186   -10096097.507 8  -7844415.34345  24370054.942    24370075.6934
  20831387.709   -23841234.418 9 -18246691.02047  20831387.201    20831398.0164
  20404784.431   -25672703.710 9 -19988063.85748  20404784.961    20404794.0634
  22481841.588    -7029254.688 8  -5451106.27047  22481841.715    22481853.6374
 02  1 25  0 41 30.0000000  0  7 06 23 05 17 10 30 24
  22072831.626   -21553625.168 8 -16779416.75747  22072831.717    22072843.2174
  23417433.568    -8461090.820 8  -6565837.29745  23417433.339    23417450.8954
  20869417.756   -20998808.457 9 -16098302.38048  20869417.513    20869427.9304
  24354312.565   -10178824.027 8  -7908877.23445  24354312.342    24354332.9834
  20826981.723   -23864387.781 9 -18264732.52247  20826981.221    20826992.0214
  20403218.785   -25680931.091 9 -19994474.76348  20403219.335    20403228.4084
  22496297.336    -6953289.458 8  -5391912.62147  22496297.457    22496309.4004
 02  1 25  0 42  0.0000000  0  7 06 23 05 17 10 30 24
  22060821.382   -21616738.980 8 -16828596.21847  22060821.471    22060832.8784
  23398045.520    -8562974.129 8  -6645226.51445  23398045.291    23398062.7554
  20880969.009   -20938106.354 9 -16051002.05648  20880968.746    20880979.1494
  24338601.287   -10261385.692 7  -7973210.63145  24338600.938    24338621.5814
  20822693.133   -23886924.234 9 -18282293.31247  20822692.630    20822703.3994
  20401764.904   -25688571.185 9 -20000428.04148  20401765.442    20401774.4974
  22510770.323    -6877233.877 8  -5332648.54946  22510770.408    22510782.2774
 02  1 25  0 42 30.0000000  0  7 06 23 05 17 10 30 24
  22048827.673   -21679765.581 8 -16877707.71747  22048827.774    22048839.1964
  23378684.113    -8664717.345 8  -6724506.56545  23378683.895    23378701.1814
  20892608.046   -20876942.870 9 -16003342.22548  20892607.769    20892618.1764
  24322921.484   -10343781.733 7  -8037414.96445  24322921.212    24322941.7494
  20818522.089   -23908842.859 9 -18299372.68547  20818521.588    20818532.3304
  20400422.905   -25695623.281 9 -20005923.14348  20400423.461    20400432.4914
  22525260.118    -6801089.474 8  -5273315.28246  22525260.237    22525272.1404
 02  1 25  0 43  0.0000000  0  7 06 23 05 17 10 30 24
  22036850.768   -21742703.698 8 -16926750.25847  22036850.886    22036862.3504
  23359349.931    -8766317.289 8  -6803675.00845  23359349.759    23359366.8964
  20904334.624   -20815319.385 9 -15955323.95248  20904334.360    20904344.7844
  24307273.437   -10426011.205 8  -8101489.50845  24307273.236    24307293.5974
  20814468.858   -23930142.415 9 -18315969.66147  20814468.344    20814479.0464
  20399192.965   -25702086.398 9 -20010959.30248  20399193.512    20399202.5554
  22539766.527    -6724857.617 8  -5213913.87246  22539766.674    22539778.5674
 02  1 25  0 43 30.0000000  0  7 06 23 05 17 10 30 24
  22024890.877   -21805552.826 8 -16975723.46447  22024891.025    22024902.4954
  23340043.633    -8867771.521 8  -6882729.91246  23340043.465    23340060.4364
  20916148.327   -20753238.049 9 -15906948.90748  20916148.042    20916158.4884
  24291657.218   -10508073.972 8  -8165434.13445  24291656.866    24291677.2494
  20810533.493   -23950822.505 9 -18332083.94347  20810532.988    20810543.6744
  20398075.115   -25707960.473 9 -20015536.46448  20398075.656    20398084.7194
  22554289.300    -6648540.238 8  -5154445.80346  22554289.440    22554301.2884
 02  1 25  0 44  0.0000000  0  7 06 23 05 17 10 30 24
  22012948.117   -21868312.166 9 -17024626.70747  22012948.253    22012959.6334
  23320765.530    -8969077.343 8  -6961669.16546  23320765.381    23320782.2414
  20928048.754   -20690700.696 9 -15858218.53848  20928048.503    20928058.9794
  24276072.679   -10589969.410 8  -8229248.37345  24276072.366    24276092.6914
  20806716.146   -23970882.630 9 -18347715.13947  20806715.631    20806726.2734
  20397069.442   -25713245.065 9 -20019654.29548  20397070.002    20397079.0504
  22568828.016    -6572139.089 8  -5094912.47746  22568828.105    22568839.9814
 02  1 25  0 44 30.0000000  0  7 06 23 05 17 10 30 24
  22001022.604   -21930980.758 8 -17073459.23247  22001022.729    22001034.0434
  23301516.206    -9070232.145 8  -7040490.75046  23301516.007    23301532.8274
  20940035.657   -20627709.101 9 -15809134.21648  20940035.415    20940045.9084
  24260520.167   -10671697.020 8  -8292931.83545  24260519.872    24260540.0924
  20803016.879   -23990321.962 9 -18362862.60247  20803016.352    20803026.9734
  20396176.028   -25717939.753 9 -20023312.45948  20396176.591    20396185.6274
  22583382.354    -6495655.675 8  -5035315.05446  22583382.460    22583394.3554
 02  1 25  0 45  0.0000000  0  7 06 23 05 17 10 30 24
  21989114.498   -21993557.606 8 -17122220.26147  21989114.613    21989125.8984
  23282296.051    -9171233.322 8  -7119192.63446  23282295.853    23282312.6254
  20952108.691   -20564265.162 9 -15759697.40948  20952108.427    20952118.9394
  24244999.645   -10753256.170 8  -8356484.02345  24244999.417    24245019.6024
  20799435.938   -24009139.600 9 -18377525.61847  20799435.431    20799446.0444
  20395394.997   -25722044.038 9 -20026510.56348  20395395.551    20395404.5734
  22597952.013    -6419091.763 8  -4975654.88346  22597952.103    22597963.9924
 02  1 25  0 45 30.0000000  0  7 06 23 05 17 10 30 24
  21977224.196   -22056040.933 9 -17170908.41447  21977224.344    21977235.6534
  23263105.743    -9272077.444 8  -7197772.15146  23263105.498    23263122.2564
  20964267.576   -20500369.955 9 -15709908.97148  20964267.320    20964277.8164
  24229511.418   -10834645.501 8  -8419903.86845  24229511.299    24229531.4254
  20795973.574   -24027334.226 9 -18391703.17447  20795973.058    20795983.6464
  20394726.554   -25725556.676 9 -20029247.65248  20394727.104    20394736.1044
  22612536.777    -6342448.218 8  -4915932.67346  22612536.846    22612548.7894
 02  1 25  0 46  0.0000000  0  7 06 23 05 17 10 30 24
  21965351.829   -22118430.214 9 -17219523.29147  21965351.973    21965363.2474
  23243945.801    -9372762.234 8  -7276227.51346  23243945.552    23243962.2574
  20976511.861   -20436025.877 9 -15659770.76048  20976511.613    20976522.0994
  24214055.589   -10915865.266 8  -8483191.60245  24214055.389    24214075.4364
  20792629.830   -24044905.494 9 -18405394.99747  20792629.292    20792639.8574
  20394170.651   -25728477.863 9 -20031523.86948  20394171.199    20394180.1864
  22627136.399    -6265727.044 8  -4856149.97646  22627136.499    22627148.4344
 02  1 25  0 46 30.0000000  0  7 06 23 05 17 10 30 24
  21953497.867   -22180722.740 9 -17268062.77147  21953498.010    21953509.1384
  23224817.070    -9473283.367 8  -7354555.36346  23224816.774    23224833.3684
  20988841.538   -20371233.124 9 -15609282.93248  20988841.277    20988851.7784
  24198632.493   -10996913.065 8  -8546345.32145  24198632.266    24198652.1574
  20789405.160   -24061850.946 9 -18418599.16947  20789404.635    20789415.1714
  20393727.638   -25730805.590 9 -20033337.64848  20393728.186    20393737.1804
  22641750.937    -6188927.382 8  -4796306.10546  22641750.992    22641762.9704
 02  1 25  0 47  0.0000000  0  7 06 23 05 17 10 30 24
  21941661.971   -22242920.276 9 -17316528.24147  21941662.114    21941673.1444
  23205719.447    -9573640.895 8  -7432755.73546  23205719.125    23205735.6684
  21001255.709   -20305996.270 9 -15558449.04948  21001255.463    21001265.9554
  24183241.539   -11077791.028 8  -8609366.69445  24183241.371    24183261.1584
  20786299.199   -24078172.674 9 -18431317.31947  20786298.665    20786309.1774
  20393397.149   -25732542.165 9 -20034690.78848  20393397.715    20393406.6874
  22656379.439    -6112054.139 8  -4736404.90746  22656379.485    22656391.4874
 02  1 25  0 47 30.0000000  0  7 06 23 05 17 10 30 24
  21929844.694   -22305020.108 9 -17364917.58247  21929844.825    21929855.8024
  23186653.782    -9673830.168 8  -7510824.99846  23186653.524    23186669.9694
  21013754.382   -20240315.427 9 -15507269.20848  21013754.121    21013764.5934
  24167883.396   -11158496.764 8  -8672253.88745  24167883.204    24167902.9594
  20783312.307   -24093868.501 9 -18443547.75847  20783311.783    20783322.2844
  20393179.548   -25733685.545 9 -20035581.70348  20393180.105    20393189.0854
  22671021.894    -6035107.615 8  -4676446.61246  22671021.968    22671033.9784
 02  1 25  0 48  0.0000000  0  7 06 23 05 17 10 30 24
  21918045.689   -22367023.760 9 -17413231.96847  21918045.803    21918056.7984
  23167620.233    -9773851.208 8  -7588763.18346  23167619.961    23167636.2384
  21026336.666   -20174195.021 9 -15455746.85347  21026336.420    21026346.9434
  24152557.649   -11239032.606 8  -8735008.67545  24152557.413    24152576.9944
  20780444.170   -24108940.364 9 -18455291.98147  20780443.638    20780454.1374
  20393074.397   -25734238.010 9 -20036012.15948  20393074.958    20393083.9394
  22685677.661    -5958091.397 8  -4616433.98646  22685677.722    22685689.7124
 02  1 25  0 48 30.0000000  0  7 06 23 05 17 10 30 24
  21906265.650   -22428927.453 9 -17461468.46647  21906265.768    21906276.7864
  23148619.639    -9873698.607 8  -7666566.08346  23148619.415    23148635.5004
  21039002.776   -20107634.337 9 -15403881.41947  21039002.561    21039013.0504
  24137264.765   -11319395.096 8  -8797628.36445  24137264.570    24137284.0904
  20777695.355   -24123385.032 9 -18466547.48647  20777694.811    20777705.3174
  20393082.277   -25734196.582 9 -20035979.84948  20393082.843    20393091.8024
  22700346.693    -5881004.546 8  -4556366.33246  22700346.807    22700358.8694
 02  1 25  0 49  0.0000000  0  7 06 23 05 17 10 30 24
  21894504.680   -22490730.856 9 -17509626.82347  21894504.810    21894515.8034
  23129652.506    -9973370.345 8  -7744232.09146  23129652.255    23129668.2574
  21051752.175   -20040636.065 9 -15351674.99847  21051751.935    21051762.4064
  24122004.864   -11399584.423 8  -8860113.11745  24122004.694    24122024.2244
  20775065.892   -24137202.587 9 -18477314.32647  20775065.382    20775075.8364
  20393203.050   -25733561.604 9 -20035485.03048  20393203.609    20393212.5574
  22715028.856    -5803849.226 8  -4496245.32246  22715028.973    22715041.1114
 02  1 25  0 49 30.0000000  0  7 06 23 05 17 10 30 24
  21882763.158   -22552432.695 9 -17557706.05447  21882763.268    21882774.1864
  23110719.356   -10072863.432 8  -7821758.88746  23110719.122    23110735.0554
  21064584.433   -19973201.817 9 -15299128.86847  21064584.212    21064594.7174
  24106778.210   -11479599.889 8  -8922462.39345  24106777.965    24106797.3994
  20772555.959   -24150392.198 9 -18487591.86447  20772555.439    20772565.8604
  20393436.854   -25732332.806 9 -20034527.49748  20393437.407    20393446.3564
  22729723.853    -5726626.440 8  -4436071.74646  22729723.980    22729736.1204
 02  1 25  0 50  0.0000000  0  7 06 23 05 17 10 30 24
  21871040.878   -22614032.898 9 -17605706.08447  21871040.984    21871051.9054
  23091820.572   -10172176.069 8  -7899145.04746  23091820.345    23091836.2504
  21077499.203   -19905334.586 9 -15246245.34747  21077498.981    21077509.4894
  24091584.437   -11559441.937 8  -8984676.53945  24091584.284    24091603.5664
  20770165.361   -24162954.490 9 -18497380.58247  20770164.844    20770175.2804
  20393783.572   -25730510.652 9 -20033107.61148  20393784.137    20393793.0954
  22744431.237    -5649338.647 8  -4375847.52146  22744431.358    22744443.5034
 02  1 25  0 50 30.0000000  0  7 06 23 05 17 10 30 24
  21859338.217   -22675530.148 9 -17653625.89247  21859338.345    21859349.2594
  23072956.796   -10271305.121 8  -7976388.16146  23072956.555    23072972.2854
  21090496.027   -19837035.919 9 -15193025.64047  21090495.794    21090506.3244
  24076423.947   -11639109.866 8  -9046755.00445  24076423.799    24076442.8684
  20767894.276   -24174888.617 9 -18506679.81847  20767893.776    20767904.1944
  20394243.249   -25728094.780 9 -20031225.08748  20394243.829    20394252.7604
  22759150.760    -5571987.295 8  -4315573.76546  22759150.878    22759162.9654
 02  1 25  0 51  0.0000000  0  7 06 23 05 17 10 30 24
  21847655.330   -22736923.563 9 -17701464.79547  21847655.473    21847666.3474
  23054128.365   -10370248.221 8  -8053486.37346  23054128.159    23054143.7194
  21103574.528   -19768307.920 9 -15139471.39247  21103574.309    21103584.8274
  24061296.653   -11718603.141 8  -9108697.38345  24061296.462    24061315.3384
  20765742.768   -24186194.470 9 -18515489.49247  20765742.266    20765752.6574
  20394815.946   -25725085.317 9 -20028880.02548  20394816.532    20394825.4304
  22773882.047    -5494573.969 8  -4255251.70446  22773882.160    22773894.2524
 02  1 25  0 51 30.0000000  0  7 06 23 05 17 10 30 24
  21835992.684   -22798211.008 9 -17749221.13547  21835992.827    21836003.5844
  23035335.912   -10469001.762 8  -8130436.86346  23035335.699    23035351.2584
  21116734.609   -19699151.628 9 -15085583.40747  21116734.379    21116744.8824
  24046202.775   -11797920.409 8  -9170502.61545  24046202.541    24046221.2814
  20763711.105   -24196870.505 9 -18523808.39648  20763710.612    20763721.0034
  20395501.807   -25721480.997 9 -20026071.44048  20395502.378    20395511.2864
  22788625.090    -5417098.763 8  -4194881.43346  22788625.243    22788637.3234
 02  1 25  0 52  0.0000000  0  7 06 23 05 17 10 30 24
  21824350.412   -22859390.890 9 -17796893.64447  21824350.537    21824361.3634
  23016580.174   -10567562.553 8  -8207237.15746  23016579.934    23016595.5084
  21129975.853   -19629568.514 9 -15031362.84247  21129975.612    21129986.1464
  24031142.568   -11877060.445 8  -9232169.76145  24031142.387    24031160.9844
  20761799.498   -24206915.815 9 -18531635.83248  20761798.996    20761809.3434
  20396300.981   -25717281.255 9 -20022798.89448  20396301.564    20396310.4414
  22803379.664    -5339562.905 8  -4134463.91046  22803379.789    22803391.9374
 02  1 25  0 52 30.0000000  0  7 06 23 05 17 10 30 24
  21812728.612   -22920463.141 9 -17844482.29747  21812728.772    21812739.6344
  22997861.394   -10665929.161 8  -8283886.12146  22997861.132    22997876.6674
  21143297.691   -19559561.867 9 -14976812.25547  21143297.470    21143308.0104
  24016115.942   -11956024.429 8  -9293699.71345  24016115.720    24016134.1964
  20760007.645   -24216331.719 9 -18538972.82448  20760007.126    20760017.4694
  20397213.225   -25712487.347 9 -20019063.35948  20397213.793    20397222.6774
  22818145.266    -5261968.934 8  -4074001.09746  22818145.427    22818157.5384
 02  1 25  0 53  0.0000000  0  7 06 23 05 17 10 30 24
  21801127.665   -22981426.200 9 -17891985.86647  21801127.803    21801138.5984
  22979180.180   -10764098.239 8  -8360381.16446  22979179.915    22979195.4494
  21156699.870   -19489133.356 9 -14921932.93047  21156699.622    21156710.1454
  24001122.954   -12034811.273 8  -9355091.63645  24001122.739    24001141.0684
  20758335.714   -24225117.280 9 -18545818.63948  20758335.214    20758345.5394
  20398238.597   -25707098.758 9 -20014864.43548  20398239.173    20398248.0474
  22832921.787    -5184318.033 8  -4013493.90846  22832921.937    22832933.9994
 02  1 25  0 53 30.0000000  0  7 06 23 05 17 10 30 24
  21789547.566   -23042279.786 9 -17939404.14547  21789547.680    21789558.3924
  22960536.929   -10862067.996 8  -8436720.89046  22960536.632    22960552.0874
  21170181.738   -19418285.734 9 -14866727.03447  21170181.478    21170192.0574
  23986163.664   -12113421.009 8  -9416345.57145  23986163.454    23986181.6274
  20756783.786   -24233272.489 9 -18552173.27348  20756783.278    20756793.5664
  20399377.067   -25701116.056 9 -20010202.56748  20399377.655    20399386.5044
  22847708.712    -5106612.324 8  -3952944.02646  22847708.810    22847720.8934
 02  1 25  0 54  0.0000000  0  7 06 23 05 17 10 30 24
  21777988.519   -23103022.198 9 -17986735.79147  21777988.642    21777999.3534
  22941932.206   -10959835.105 8  -8512902.71246  22941931.922    22941947.2554
  21183743.123   -19347020.424 9 -14811195.66147  21183742.880    21183753.4514
  23971238.219   -12191852.864 8  -9477460.89145  23971238.088    23971256.1084
  20755351.918   -24240796.651 9 -18558036.18348  20755351.409    20755361.6744
  20400628.727   -25694538.638 9 -20005077.28548  20400629.298    20400638.0984
  22862505.866    -5028852.769 8  -3892352.18346  22862505.977    22862518.0624
 02  1 25  0 54 30.0000000  0  7 06 23 05 17 10 30 24
  21766451.094   -23163651.685 9 -18033979.44847  21766451.220    21766461.9114
  22923366.705   -11057396.266 8  -8588924.05746  22923366.414    22923381.6544
  21197383.704   -19275338.927 9 -14755339.98447  21197383.447    21197393.9864
  23956346.872   -12270105.691 8  -9538436.73045  23956346.757    23956364.6944
  20754040.249   -24247689.352 9 -18563407.04948  20754039.757    20754049.9534
  20401993.607   -25687365.936 9 -19999488.14648  20401994.183    20402002.9654
  22877313.165    -4951040.224 8  -3831719.03846  22877313.286    22877325.2914
 02  1 25  0 55  0.0000000  0  7 06 23 05 17 10 30 24
  21754935.095   -23224168.053 9 -18081134.95947  21754935.222    21754945.9134
  22904840.701   -11154749.696 8  -8664783.53246  22904840.459    22904855.5614
  21211102.809   -19203244.337 9 -14699162.42547  21211102.569    21211113.1914
  23941489.520   -12348179.964 8  -9599273.42345  23941489.372    23941507.2704
  20752848.640   -24253951.022 9 -18568286.20548  20752848.162    20752858.3634
  20403471.624   -25679598.804 9 -19993435.81448  20403472.200    20403480.9944
  22892130.037    -4873176.740 8  -3771046.22346  22892130.128    22892142.2004
 02  1 25  0 55 30.0000000  0  7 06 23 05 17 10 30 24
  21743440.987   -23284569.477 9 -18128200.91347  21743441.089    21743451.7504
  22886354.785   -11251892.329 8  -8740478.74846  22886354.547    22886369.5974
  21224900.338   -19130738.152 9 -14642664.14147  21224900.117    21224910.7564
  23926666.368   -12426074.536 8  -9659970.08645  23926666.274    23926684.1064
  20751777.214   -24259581.120 9 -18572673.22748  20751776.724    20751786.9324
  20405062.840   -25671236.854 9 -19986919.99048  20405063.409    20405072.1934
  22906956.558    -4795263.155 8  -3710334.35146  22906956.683    22906968.7084
 02  1 25  0 56  0.0000000  0  7 06 23 05 17 10 30 24
  21731968.903   -23344855.253 9 -18175176.74547  21731969.011    21731979.6514
  22867909.444   -11348821.834 8  -8816007.89446  22867909.197    22867924.1854
  21238775.733   -19057822.904 9 -14585847.10147  21238775.462    21238786.0874
  23911877.441   -12503789.644 8  -9720526.91845  23911877.323    23911895.0174
  20750825.886   -24264580.054 9 -18576568.43048  20750825.403    20750835.6134
  20406767.137   -25662280.679 9 -19979941.13148  20406767.709    20406776.4914
  22921792.200    -4717301.309 8  -3649584.86446  22921792.323    22921804.3064
 02  1 25  0 56 30.0000000  0  7 06 23 05 17 10 30 24
  21720519.095   -23405024.048 9 -18222061.43247  21720519.198    21720529.7864
  22849505.237   -11445535.421 8  -8891368.79946  22849504.978    22849519.8814
  21252728.506   -18984500.450 9 -14528712.75447  21252728.252    21252738.8964
  23897122.713   -12581324.566 8  -9780943.33746  23897122.617    23897140.2814
  20749994.799   -24268947.166 9 -18579971.30948  20749994.308    20750004.5224
  20408584.500   -25652730.187 9 -19972499.17348  20408585.080    20408593.8654
  22936636.811    -4639292.342 8  -3588798.68046  22936636.976    22936648.9954
 02  1 25  0 57  0.0000000  0  7 06 23 05 17 10 30 24
  21709091.613   -23465075.096 9 -18268854.35747  21709091.739    21709102.3824
  22831142.535   -11542030.576 8  -8966559.50146  22831142.260    22831157.1554
  21266758.291   -18910773.339 9 -14471263.09447  21266758.070    21266768.7394
  23882402.227   -12658679.283 8  -9841219.34046  23882402.128    23882419.8634
  20749283.920   -24272682.622 9 -18582881.98148  20749283.430    20749293.6164
  20410514.876   -25642585.832 9 -19964594.45948  20410515.464    20410524.2554
  22951490.071    -4561238.291 8  -3527977.34346  22951490.214    22951502.1744
 02  1 25  0 57 30.0000000  0  7 06 23 05 17 10 30 24
  21697687.128   -23525005.743 9 -18315553.48447  21697687.274    21697697.8104
  22812822.152   -11638303.275 8  -9041576.87146  22812821.903    22812836.7824
  21280864.977   -18836642.426 9 -14413498.79747  21280864.724    21280875.4204
  23867716.426   -12735851.987 8  -9901353.52346  23867716.334    23867734.0694
  20748693.434   -24275785.177 9 -18585299.49248  20748692.939    20748703.1034
  20412558.554   -25631846.309 9 -19956225.98648  20412559.149    20412567.9164
  22966351.966    -4483138.756 8  -3467120.58746  22966352.056    22966364.0314
 02  1 25  0 58  0.0000000  0  7 06 23 05 17 10 30 24
  21686305.353   -23584817.017 9 -18362159.58247  21686305.513    21686315.9774
  22794544.238   -11734352.925 8  -9116420.42346  22794543.986    22794558.8524
  21295047.667   -18762111.825 9 -14355423.04447  21295047.435    21295058.0904
  23853065.027   -12812844.208 8  -9961347.06946  23853064.928    23853082.5044
  20748222.990   -24278257.017 9 -18587225.52948  20748222.505    20748232.6694
  20414714.980   -25620514.091 9 -19947395.67048  20414715.567    20414724.3534
  22981221.892    -4404996.852 8  -3406230.80046  22981222.011    22981233.9514
 02  1 25  0 58 30.0000000  0  7 06 23 05 17 10 30 24
  21674946.815   -23644506.175 9 -18408670.51947  21674946.967    21674957.4484
  22776309.593   -11830175.298 8  -9191086.89146  22776309.359    22776324.1784
  21309306.386   -18687182.126 9 -14297036.31147  21309306.134    21309316.7854
  23838448.290   -12889654.141 8 -10021198.57146  23838448.127    23838465.6944
  20747872.888   -24280096.588 9 -18588658.89148  20747872.407    20747882.5544
  20416984.532   -25608587.618 9 -19938102.30248  20416985.105    20416993.8774
  22996099.795    -4326812.817 8  -3345308.18846  22996099.911    22996111.8714
 02  1 25  0 59  0.0000000  0  7 06 23 05 17 10 30 24
  21663611.622   -23704072.731 9 -18455085.92447  21663611.784    21663622.2524
  22758118.466   -11925768.854 8  -9265575.07646  22758118.293    22758132.9844
  21323640.468   -18611856.359 9 -14238340.96847  21323640.201    21323650.8654
  23823866.093   -12966282.331 8 -10080908.46446  23823865.952    23823883.4344
  20747642.980   -24281304.580 9 -18589600.11748  20747642.486    20747652.6244
  20419366.904   -25596068.113 9 -19928346.83448  20419367.466    20419376.2284
  23010985.360    -4248588.708 8  -3284354.34846  23010985.477    23010997.4604
 02  1 25  0 59 30.0000000  0  7 06 23 05 17 10 30 24
  21652299.989   -23763515.427 9 -18501404.81947  21652300.145    21652310.5734
  22739971.452   -12021130.832 8  -9339882.80746  22739971.286    22739985.8324
  21338049.453   -18536136.707 9 -14179338.69647  21338049.196    21338059.8724
  23809318.728   -13042728.192 8 -10140476.28146  23809318.543    23809335.8664
  20747533.140   -24281881.370 9 -18590049.49048  20747532.662    20747542.7614
  20421862.038   -25582955.918 9 -19918129.52548  20421862.609    20421871.3924
  23025878.229    -4170326.343 8  -3223370.70946  23025878.306    23025890.3134
 02  1 25  1  0  0.0000000  0  7 06 23 05 17 10 30 24
  21641012.302   -23822832.262 9 -18547625.64647  21641012.439    21641022.8004
  22721869.203   -12116257.905 8  -9414007.50646  22721868.968    22721883.4364
  21352533.175   -18460024.494 9 -14120030.53447  21352532.929    21352543.5634
  23794806.219   -13118990.626 8 -10199901.18646  23794805.980    23794823.1814
  20747543.688   -24281826.038 9 -18590006.30648  20747543.185    20747553.2404
  20424470.079   -25569250.383 9 -19907449.88048  20424470.663    20424479.4444
  23040778.373    -4092025.719 8  -3162357.24046  23040778.501    23040790.5074
 02  1 25  1  0 30.0000000  0  7 06 23 05 17 10 30 24
  21629748.551   -23882023.032 9 -18593748.21847  21629748.717    21629759.1464
  22703811.946   -12211148.209 8  -9487947.69246  22703811.709    22703826.1094
  21367090.986   -18383522.931 9 -14060418.97747  21367090.731    21367101.3804
  23780328.439   -13195070.299 8 -10259183.68246  23780328.202    23780345.2494
  20747674.183   -24281139.835 9 -18589471.53248  20747673.704    20747683.7414
  20427190.785   -25554952.951 9 -19896309.01148  20427191.380    20427200.1284
  23055685.280    -4013689.064 8  -3101315.70446  23055685.382    23055697.5064
 02  1 25  1  1  0.0000000  0  7 06 23 05 17 10 30 24
  21618509.315   -23941085.527 9 -18639770.84547  21618509.448    21618519.8414
  22685800.380   -12305798.197 8  -9561700.64546  22685800.208    22685814.4934
  21381722.582   -18306633.299 9 -14000505.04547  21381722.351    21381733.0514
  23765885.755   -13270965.774 8 -10318322.65746  23765885.580    23765902.4184
  20747924.955   -24279821.779 9 -18588444.40748  20747924.461    20747934.4784
  20430024.310   -25540062.736 9 -19884706.23648  20430024.888    20430033.6374
  23070599.073    -3935316.661 8  -3040246.31746  23070599.167    23070611.3244
 02  1 25  1  1 30.0000000  0  7 06 23 05 17 10 30 24
  21607294.573   -24000018.934 9 -18685692.88347  21607294.721    21607305.0614
  22667835.016   -12400205.930 8  -9635264.83046  22667834.825    22667849.0044
  21396427.524   -18229358.718 9 -13940291.14447  21396427.311    21396437.9664
  23751478.065   -13346677.440 8 -10377318.39446  23751477.885    23751494.5644
  20748295.786   -24277872.852 9 -18586925.70048  20748295.294    20748305.2834
  20432970.349   -25524581.032 9 -19872642.56248  20432970.929    20432979.6734
  23085519.273    -3856910.419 8  -2979150.55746  23085519.368    23085531.5794
 02  1 25  1  2  0.0000000  0  7 06 23 05 17 10 30 24
  21596104.676   -24058821.913 9 -18731513.27847  21596104.808    21596115.0924
  22649916.297   -12494368.531 8  -9708638.00246  22649916.080    22649930.1734
  21411205.397   -18151700.985 9 -13879778.68247  21411205.161    21411215.7884
  23737105.452   -13422204.558 8 -10436170.32646  23737105.225    23737121.7494
  20748786.644   -24275292.878 9 -18584915.26548  20748786.164    20748796.1624
  20436028.984   -25508507.760 9 -19860117.92148  20436029.551    20436038.3044
  23100445.666    -3778471.778 8  -2918029.56146  23100445.774    23100457.9594
 02  1 25  1  2 30.0000000  0  7 06 23 05 17 10 30 24
  21584939.784   -24117493.663 9 -18777231.42447  21584939.927    21584950.1924
  22632044.546   -12588283.897 8  -9781818.52746  22632044.342    22632058.3874
  21426055.562   -18073662.866 9 -13818969.81547  21426055.341    21426066.0084
  23722767.814   -13497547.424 8 -10494878.66846  23722767.551    23722784.1004
  20749397.479   -24272082.701 9 -18582413.76048  20749396.981    20749406.9504
  20439199.958   -25491843.931 9 -19847133.10648  20439200.536    20439209.3044
  23115377.988    -3700002.161 8  -2856884.41346  23115378.067    23115390.2734
 02  1 25  1  3  0.0000000  0  7 06 23 05 17 10 30 24
  21573800.277   -24176031.745 9 -18822845.40947  21573800.389    21573810.6614
  22614220.591   -12681948.212 8  -9854803.43646  22614220.371    22614234.3544
  21440977.958   -17995245.435 9 -13757865.38047  21440977.740    21440988.4064
  23708465.631   -13572704.371 8 -10553442.16646  23708465.382    23708481.7784
  20750128.452   -24268241.264 9 -18579420.36748  20750127.955    20750137.9304
  20442483.495   -25474588.780 9 -19833687.52148  20442484.073    20442492.8424
  23130316.195    -3621501.292 8  -2795714.92846  23130316.255    23130328.4814
 02  1 25  1  3 30.0000000  0  7 06 23 05 17 10 30 24
  21562686.161   -24234436.321 9 -18868355.36347  21562686.283    21562696.5234
  22596444.701   -12775360.162 8  -9927591.70246  22596444.498    22596458.3084
  21455971.787   -17916452.604 9 -13696468.41847  21455971.550    21455982.2304
  23694198.567   -13647676.694 8 -10611861.76346  23694198.298    23694214.6594
  20750979.194   -24263770.312 9 -18575936.43548  20750978.716    20750988.6154
  20445879.192   -25456744.256 9 -19819782.67748  20445879.782    20445888.5454
  23145259.742    -3542972.258 8  -2734523.47946  23145259.800    23145272.0244
 02  1 25  1  4  0.0000000  0  7 06 23 05 17 10 30 24
  21551597.976   -24292704.720 9 -18913759.21447  21551598.109    21551608.3174
  22578717.584   -12868515.759 8 -10000180.21946  22578717.400    22578731.0464
  21471036.897   -17837285.071 9 -13634779.48247  21471036.680    21471047.3724
  23679966.992   -13722462.401 8 -10670135.97846  23679966.750    23679983.0994
  20751949.975   -24258668.695 9 -18571961.08248  20751949.474    20751959.3664
  20449387.227   -25438309.455 9 -19805417.88348  20449387.803    20449396.5564
  23160208.757    -3464414.766 8  -2673309.86546  23160208.881    23160221.0304
 02  1 25  1  4 30.0000000  0  7 06 23 05 17 10 30 24
  21540535.719   -24350836.760 9 -18959056.79547  21540535.828    21540546.0514
  22561039.530   -12961413.757 8 -10072568.00546  22561039.338    22561052.8914
  21486172.693   -17757746.348 9 -13572801.30447  21486172.452    21486183.1454
  23665770.699   -13797062.590 8 -10728265.62546  23665770.518    23665786.8314
  20753040.368   -24252938.089 9 -18567495.59748  20753039.880    20753049.7704
  20453007.265   -25419285.995 9 -19790594.39148  20453007.847    20453016.6214
  23175162.734    -3385831.249 8  -2612075.96846  23175162.809    23175175.0254
 02  1 25  1  5  0.0000000  0  7 06 23 05 17 10 30 24
  21529499.836   -24408830.280 9 -19004246.44247  21529499.977    21529510.1844
  22543411.079   -13054050.859 8 -10144752.50346  22543410.882    22543424.4154
  21501378.792   -17677837.801 9 -13510534.95547  21501378.565    21501389.2974
  23651609.989   -13871475.950 8 -10786249.70146  23651609.842    23651626.0784
  20754250.586   -24246577.956 9 -18562539.57648  20754250.092    20754259.9914
  20456739.351   -25399673.690 9 -19775312.05848  20456739.924    20456748.6774
  23190121.563    -3307222.077 8  -2550822.09246  23190121.633    23190133.8704
 02  1 25  1  5 30.0000000  0  7 06 23 05 17 10 30 24
  21518490.447   -24466684.622 9 -19049327.64247  21518490.589    21518500.7224
  22525832.633   -13146425.090 8 -10216732.17146  22525832.411    22525845.9454
  21516654.703   -17597562.422 9 -13447982.76147  21516654.470    21516665.2314
  23637484.737   -13945703.011 8 -10844088.60346  23637484.580    23637500.8184
  20755580.476   -24239589.268 9 -18557093.76648  20755579.991    20755589.8484
  20460583.233   -25379473.731 9 -19759571.81548  20460583.803    20460592.5794
  23205084.911    -3228589.189 8  -2489549.72546  23205084.974    23205097.2204
 02  1 25  1  6  0.0000000  0  7 06 23 05 17 10 30 24
  21507507.909   -24524397.935 9 -19094298.95347  21507508.042    21507518.1704
  22508304.760   -13238533.189 8 -10288504.47746  22508304.616    22508318.1064
  21532000.141   -17516922.032 9 -13385146.14647  21531999.917    21532010.6284
  23623395.136   -14019742.820 8 -10901781.60246  23623394.985    23623411.0454
  20757029.930   -24231971.957 9 -18551158.12448  20757029.438    20757039.2794
  20464538.969   -25358686.142 9 -19743373.67848  20464539.554    20464548.3314
  23220052.718    -3149932.923 8  -2428259.13846  23220052.802    23220065.0474
 02  1 25  1  6 30.0000000  0  7 06 23 05 17 10 30 24
  21496552.244   -24581969.748 9 -19139160.00447  21496552.396    21496562.4814
  22490827.940   -13330373.341 8 -10360068.00146  22490827.805    22490841.2284
  21547414.367   -17435919.883 9 -13322027.63847  21547414.116    21547424.8904
  23609341.122   -14093595.830 8 -10959329.05146  23609340.964    23609356.8764
  20758598.793   -24223727.336 9 -18544733.66848  20758598.302    20758608.1064
  20468606.278   -25337312.385 9 -19726718.78848  20468606.838    20468615.5834
  23235024.583    -3071255.288 8  -2366951.91346  23235024.647    23235036.8904
 02  1 25  1  7  0.0000000  0  7 06 23 05 17 10 30 24
  21485624.031   -24639397.668 9 -19183908.93747  21485624.162    21485634.2204
  22473402.819   -13421942.064 8 -10431420.02746  22473402.618    22473416.0334
  21562897.160   -17354557.275 9 -13258628.26147  21562896.947    21562907.7604
  23595322.832   -14167260.769 8 -11016729.95246  23595322.699    23595338.5624
  20760287.046   -24214855.062 9 -18537820.13448  20760286.553    20760296.3764
  20472785.169   -25315351.984 9 -19709606.77648  20472785.735    20472794.4904
  23250000.489    -2992556.434 8  -2305628.14046  23250000.579    23250012.7384
 02  1 25  1  7 30.0000000  0  7 06 23 05 17 10 30 24
  21474723.151   -24696681.687 9 -19228545.74447  21474723.299    21474733.2894
  22456029.595   -13513238.143 8 -10502559.60846  22456029.345    22456042.7554
  21578447.853   -17272838.017 9 -13194950.97147  21578447.641    21578458.4634
  23581340.158   -14240738.731 8 -11073985.14746  23581340.018    23581355.8294
  20762094.413   -24205356.723 9 -18530418.75148  20762093.942    20762103.7644
  20477075.347   -25292806.872 9 -19692039.13948  20477075.925    20477084.6664
  23264979.952    -2913839.110 8  -2244289.96846  23264980.060    23264992.1604
 02  1 25  1  8  0.0000000  0  7 06 23 05 17 10 30 24
  21463850.045   -24753819.725 9 -19273068.78647  21463850.196    21463860.2034
  22438708.876   -13604258.012 8 -10573483.97246  22438708.646    22438721.9964
  21594066.197   -17190763.467 9 -13130996.82547  21594065.979    21594076.7924
  23567393.337   -14314028.507 8 -11131093.71446  23567393.154    23567408.9224
  20764021.021   -24195232.260 9 -18522529.47848  20764020.548    20764030.3404
  20481476.806   -25269677.115 9 -19674015.93848  20481477.358    20481486.1204
  23279962.831    -2835103.373 8  -2182937.45446  23279962.977    23279975.0844
 02  1 25  1  8 30.0000000  0  7 06 23 05 17 10 30 24
  21453005.196   -24810809.685 9 -19317476.45547  21453005.324    21453015.2654
  22421441.344   -13694998.726 8 -10644190.81146  22421441.120    22421454.3844
  21609751.747   -17108335.404 9 -13066767.22747  21609751.520    21609762.4024
  23553482.396   -14387129.469 8 -11188055.14846  23553482.214    23553497.9854
  20766066.800   -24184481.384 9 -18514152.09348  20766066.321    20766076.0944
  20485989.442   -25245962.791 9 -19655537.23348  20485990.014    20485998.7794
  23294949.125    -2756349.800 8  -2121571.05046  23294949.312    23294961.4304
 02  1 25  1  9  0.0000000  0  7 06 23 05 17 10 30 24
  21442188.514   -24867651.292 9 -19361768.52147  21442188.652    21442198.5914
  22404227.169   -13785458.948 8 -10714679.10046  22404226.977    22404240.1304
  21625503.913   -17025557.556 9 -13002265.06847  21625503.675    21625514.5704
  23539607.284   -14460042.485 8 -11244870.13646  23539607.110    23539622.7384
  20768231.450   -24173105.949 9 -18505288.04248  20768230.973    20768240.7064
  20490613.001   -25221665.903 9 -19636604.58248  20490613.553    20490622.3024
  23309938.401    -2677581.001 8  -2060192.77546  23309938.496    23309950.6644
 02  1 25  1  9 30.0000000  0  7 06 23 05 17 10 30 24
  21431400.410   -24924342.736 9 -19405943.57647  21431400.520    21431410.4344
  22387067.008   -13875635.490 8 -10784946.33146  22387066.807    22387079.9504
  21641322.307   -16942431.607 9 -12937491.65947  21641322.055    21641332.9204
  23525768.168   -14532766.536 8 -11301537.90146  23525767.970    23525783.4574
  20770514.886   -24161106.037 9 -18495937.38748  20770514.392    20770524.0904
  20495347.389   -25196786.447 9 -19617217.98448  20495347.946    20495356.6974
  23324930.398    -2598797.436 8  -1998803.00146  23324930.527    23324942.7104
 02  1 25  1 10  0.0000000  0  7 06 23 05 17 10 30 24
  21420641.263   -24980882.225 9 -19450000.22747  21420641.359    21420651.2854
  22369961.346   -13965525.487 8 -10854990.28746  22369961.139    22369974.2434
  21657206.488   -16858959.677 9 -12872448.65747  21657206.268    21657217.1654
  23511965.011   -14605301.154 8 -11358058.04346  23511964.816    23511980.2354
  20772917.069   -24148481.970 9 -18486100.38048  20772916.589    20772926.3104
  20500192.545   -25171325.010 9 -19597377.89448  20500193.112    20500201.8434
  23339925.114    -2519999.427 8  -1937401.96146  23339925.246    23339937.4434
 02  1 25  1 10 30.0000000  0  7 06 23 05 17 10 30 24
  21409911.093   -25037268.968 9 -19493937.86247  21409911.237    21409921.1074
  22352910.529   -14055127.137 8 -10924809.56446  22352910.323    22352923.3454
  21673155.970   -16775144.765 9 -12807138.40047  21673155.756    21673166.6774
  23498197.803   -14677646.728 8 -11414430.90346  23498197.657    23498212.9634
  20775437.819   -24135234.984 9 -18475777.98848  20775437.334    20775447.0444
  20505148.128   -25145283.089 9 -19577085.47948  20505148.691    20505157.4184
  23354922.288    -2441189.038 8  -1875991.28146  23354922.404    23354934.5264
 02  1 25  1 11  0.0000000  0  7 06 23 05 17 10 30 24
  21399210.382   -25093501.354 9 -19537755.21747  21399210.505    21399220.3794
  22335915.175   -14144437.565 8 -10994401.92046  22335914.968    22335927.9014
  21689170.339   -16690988.998 9 -12741562.54447  21689170.100    21689181.0314
  23484466.661   -14749802.729 8 -11470656.04646  23484466.523    23484481.7834
  20778077.054   -24121365.510 9 -18464970.54548  20778076.557    20778086.2664
  20510214.098   -25118660.999 9 -19556340.98648  20510214.674    20510223.3964
  23369921.710    -2362366.850 8  -1814571.39146  23369921.829    23369933.8504
 02  1 25  1 11 30.0000000  0  7 06 23 05 17 10 30 24
  21388539.203   -25149578.489 9 -19581451.59747  21388539.313    21388549.1344
  22318975.598   -14233454.593 8 -11063765.63447  22318975.425    22318988.3124
  21705248.970   -16606495.337 9 -12675723.38447  21705248.729    21705259.7154
  23470771.685   -14821769.198 8 -11526733.50046  23470771.514    23470786.6744
  20780834.483   -24106874.692 9 -18453678.93348  20780833.998    20780843.6974
  20515390.247   -25091460.233 9 -19535145.57848  20515390.801    20515399.5314
  23384922.963    -2283534.710 8  -1753143.76346  23384923.095    23384935.1634
 02  1 25  1 12  0.0000000  0  7 06 23 05 17 10 30 24
  21377897.863   -25205498.391 9 -19625025.45047  21377898.009    21377907.8934
  22302092.483   -14322175.371 8 -11132898.50947  22302092.293    22302105.1134
  21721391.514   -16521665.776 9 -12609622.48247  21721391.284    21721402.2994
  23457112.798   -14893545.692 8 -11582662.93546  23457112.629    23457127.6954
  20783710.069   -24091763.088 9 -18441903.59748  20783709.587    20783719.2674
  20520676.440   -25063681.148 9 -19513499.53248  20520677.011    20520685.7324
  23399926.002    -2204693.022 8  -1691708.69746  23399926.118    23399938.2634
 02  1 25  1 12 30.0000000  0  7 06 23 05 17 10 30 24
  21367286.824   -25261259.510 9 -19668475.59347  21367286.965    21367296.7414
  22285266.266   -14410597.107 8 -11201798.37747  22285266.072    22285278.7954
  21737597.609   -16436502.469 9 -12543261.52447  21737597.374    21737608.4374
  23443490.276   -14965131.515 8 -11638443.80846  23443490.070    23443505.0824
  20786703.736   -24076031.082 9 -18429644.83248  20786703.265    20786712.8854
  20526072.516   -25035324.429 9 -19491403.38348  20526073.085    20526081.8054
  23414930.757    -2125842.513 8  -1630266.74846  23414930.841    23414943.0814
 02  1 25  1 13  0.0000000  0  7 06 23 05 17 10 30 24
  21356706.154   -25316861.036 9 -19711801.37647  21356706.280    21356716.0304
  22268497.305   -14498717.858 8 -11270463.70147  22268497.111    22268509.7644
  21753866.586   -16351008.489 9 -12476642.89947  21753866.362    21753877.4894
  23429903.880   -15036527.266 8 -11694076.58346  23429903.716    23429918.6154
  20789815.226   -24059679.955 9 -18416903.64248  20789814.741    20789824.3304
  20531578.245   -25006391.584 9 -19468858.30448  20531578.834    20531587.5674
  23429936.887    -2046984.574 8  -1568819.02346  23429936.982    23429949.2204
 02  1 25  1 13 30.0000000  0  7 06 23 05 17 10 30 24
  21346156.132   -25372301.463 9 -19755001.61947  21346156.274    21346165.9754
  22251786.071   -14586535.062 8 -11338892.49147  22251785.870    22251798.5074
  21770198.086   -16265186.118 9 -12409768.38247  21770197.865    21770209.0044
  23416353.783   -15107732.547 8 -11749560.94846  23416353.606    23416368.3214
  20793044.321   -24042710.677 9 -18403680.77948  20793043.835    20793053.4394
  20537193.478   -24976883.436 9 -19445864.93348  20537194.046    20537202.7704
  23444944.219    -1968120.658 8  -1507366.64046  23444944.253    23444956.5374
 02  1 25  1 14  0.0000000  0  7 06 23 05 17 10 30 24
  21335637.097   -25427579.249 9 -19798075.13747  21335637.216    21335646.8914
  22235133.104   -14674046.408 8 -11407082.95147  22235132.888    22235145.4904
  21786591.584   -16179037.935 9 -12342639.98147  21786591.367    21786602.4864
  23402839.940   -15178747.198 8 -11804896.76646  23402839.782    23402854.3564
  20796390.996   -24025123.707 9 -18389976.59748  20796390.508    20796400.0754
  20542917.935   -24946801.103 9 -19422424.14848  20542918.514    20542927.2244
  23459952.436    -1889251.748 8  -1445910.34946  23459952.552    23459964.7084
 02  1 25  1 14 30.0000000  0  7 06 23 05 17 10 30 24
  21325149.163   -25482693.308 9 -19841021.07647  21325149.306    21325158.8814
  22218538.670   -14761249.772 8 -11475033.42047  22218538.466    22218550.9964
  21803046.582   -16092566.792 9 -12275259.92847  21803046.355    21803057.4644
  23389362.404   -15249571.378 8 -11860084.18446  23389362.202    23389376.6904
  20799854.924   -24006920.602 9 -18375792.31348  20799854.431    20799863.9344
  20548751.402   -24916146.012 9 -19398537.06048  20548751.995    20548760.7084
  23474961.529    -1810378.857 8  -1384450.95046  23474961.632    23474973.6734
 02  1 25  1 15  0.0000000  0  8 06 23 05 17 10 30 15 24
  21314692.021   -25537645.413 9 -19883840.80247  21314692.186    21314701.7874
  22202002.720   -14848146.017 8 -11542744.57947  22202002.504    22202014.9974
  21819561.907   -16005778.397 9 -12207632.66447  21819561.662    21819572.7764
  23375920.434   -15320208.092 8 -11915125.52146  23375920.208    23375934.6874
  20803435.267   -23988105.420 9 -18361131.08448  20803434.772    20803444.2824
  20554693.065   -24884922.267 9 -19374206.85948  20554693.642    20554702.3524
  24721986.374    -7455229.969 7  -5506603.31545  24721985.966    24722009.4284
  23489970.514    -1731506.220 8  -1322991.75546  23489970.602    23489982.6364
 02  1 25  1 15 30.0000000  0  8 06 23 05 17 10 30 15 24
  21304264.624   -25592441.692 9 -19926539.11747  21304264.755    21304274.2844
  22185524.208   -14934740.327 8 -11610220.45947  22185524.001    22185536.4714
  21836135.702   -15918682.798 9 -12139766.02447  21836135.488    21836146.6034
  23362512.667   -15390664.790 8 -11970026.59046  23362512.500    23362527.0024
  20807130.437   -23968686.790 9 -18345999.64248  20807129.974    20807139.4704
  20560741.328   -24853138.455 9 -19349440.24248  20560741.895    20560750.5994
  24705319.235    -7542813.793 7  -5574849.86845  24705318.915    24705342.1944
  23504977.691    -1652642.652 8  -1261539.65046  23504977.802    23504989.9134
 02  1 25  1 16  0.0000000  0  8 06 23 05 17 10 30 15 24
  21293870.546   -25647062.425 9 -19969100.64147  21293870.720    21293880.2644
  22169107.100   -15021011.873 8 -11677444.83547  22169106.917    22169119.3464
  21852770.957   -15831264.180 9 -12071647.68247  21852770.732    21852781.8534
  23349142.764   -15460922.961 8 -12024772.97846  23349142.566    23349157.0014
  20810943.778   -23948647.538 9 -18330384.60047  20810943.294    20810952.7604
  20566899.432   -24820777.490 9 -19324223.89848  20566900.001    20566908.7034
  24688679.562    -7630253.349 7  -5642984.00945  24688679.134    24688702.4044
  23519986.552    -1573770.946 8  -1200081.18146  23519986.672    23519998.7684
 02  1 25  1 16 30.0000000  0  8 06 23 05 17 10 30 15 24
  21283509.495   -25701509.720 9 -20011527.02147  21283509.663    21283519.1744
  22152751.269   -15106961.730 8 -11744418.53847  22152751.070    22152763.4684
  21869466.478   -15743528.788 8 -12003282.50347  21869466.253    21869477.4224
  23335810.025   -15530986.056 8 -12079367.36346  23335809.825    23335824.2204
  20814874.354   -23927991.802 9 -18314289.18347  20814873.873    20814883.3384
  20573166.471   -24787843.997 9 -19298561.42548  20573167.043    20573175.7454
  24672066.840    -7717551.636 8  -5711008.08745  24672066.475    24672089.4144
  23534996.084    -1494895.667 8  -1138619.93246  23534996.201    23535008.2924
 02  1 25  1 17  0.0000000  0  8 06 23 05 17 10 30 15 24
  21273181.508   -25755783.705 9 -20053818.34547  21273181.643    21273191.1724
  22136456.782   -15192589.000 8 -11811140.87647  22136456.600    22136468.8924
  21886221.561   -15655480.448 8 -11934673.46147  21886221.344    21886232.5284
  23322514.180   -15600855.470 8 -12133810.83146  23322513.960    23322528.2674
  20818921.729   -23906722.459 9 -18297715.63147  20818921.261    20818930.7394
  20579541.908   -24754340.771 9 -19272455.00548  20579542.469    20579551.1714
  24655480.804    -7804709.831 8  -5778923.01045  24655480.577    24655503.0734
  23550005.703    -1416019.286 8  -1077157.83746  23550005.850    23550017.9884
 02  1 25  1 17 30.0000000  0  8 06 23 05 17 10 30 15 24
  21262886.645   -25809883.229 9 -20095973.74247  21262886.830    21262896.2584
  22120224.042   -15277891.774 8 -11877610.36247  22120223.858    22120236.0954
  21903035.638   -15567122.033 8 -11865822.79947  21903035.424    21903046.5904
  23309255.128   -15670531.469 8 -12188103.61646  23309254.899    23309269.0894
  20823085.607   -23884841.067 9 -18280665.16547  20823085.128    20823094.5744
  20586025.477   -24720269.240 9 -19245905.75048  20586026.041    20586034.7434
  24638921.367    -7891727.771 7  -5846728.66445  24638921.032    24638943.4444
  23565015.416    -1337142.924 8  -1015695.74246  23565015.569    23565027.7654
 02  1 25  1 18  0.0000000  0  8 06 23 05 17 10 30 15 24
  21252625.052   -25863808.101 9 -20137993.02647  21252625.204    21252634.6484
  22104053.210   -15362868.953 8 -11943826.12547  22104053.053    22104065.2924
  21919908.002   -15478457.530 8 -11796733.62947  21919907.794    21919918.9514
  23296032.684   -15740015.158 8 -12242246.53046  23296032.493    23296046.5254
  20827365.558   -23862349.615 9 -18263139.32447  20827365.075    20827374.5344
  20592616.764   -24685631.935 9 -19218915.63048  20592617.308    20592626.0284
  24622388.540    -7978606.181 7  -5914425.57845  24622388.176    24622410.3834
  23580024.672    -1258268.863 8   -954235.43546  23580024.809    23580037.0024
 02  1 25  1 18 30.0000000  0  8 06 23 05 17 10 30 15 24
  21242397.059   -25917556.327 9 -20179874.67747  21242397.185    21242406.5964
  22087944.916   -15447517.864 8 -12009786.11147  22087944.754    22087956.9554
  21936838.181   -15389489.083 8 -11727407.62547  21936837.933    21936849.1154
  23282846.931   -15809306.008 8 -12296239.19646  23282846.751    23282860.6994
  20831761.401   -23839249.242 9 -18245139.00347  20831760.922    20831770.3464
  20599315.497   -24650429.746 9 -19191485.34848  20599316.060    20599324.7524
  24605882.445    -8065344.121 7  -5982012.98445  24605882.113    24605904.2644
  23595033.286    -1179398.210 8   -892777.79146  23595033.458    23595045.5844
 02  1 25  1 19  0.0000000  0  8 06 23 05 17 10 30 15 24
  21232202.859   -25971126.839 9 -20221617.85047  21232203.012    21232212.4174
  22071899.523   -15531836.369 8 -12075488.63247  22071899.352    22071911.4384
  21953825.658   -15300219.505 8 -11657846.97847  21953825.453    21953836.6604
  23269697.774   -15878404.252 8 -12350081.78546  23269697.594    23269711.6084
  20836272.817   -23815541.239 9 -18226665.20347  20836272.359    20836281.7764
  20606121.472   -24614664.069 9 -19163615.97748  20606122.029    20606130.6964
  24589403.047    -8151941.393 7  -6049490.80145  24589402.761    24589424.8734
  23610041.185    -1100531.612 8   -831323.30646  23610041.378    23610053.4394
 02  1 25  1 19 30.0000000  0  8 06 23 05 17 10 30 15 24
  21222042.564   -26024518.840 9 -20263221.92247  21222042.726    21222052.1254
  22055917.271   -15615822.841 8 -12140932.41847  22055917.107    22055929.1364
  21970869.804   -15210652.096 8 -11588054.25947  21970869.583    21970880.8194
  23256585.133   -15947310.397 8 -12403774.67146  23256584.962    23256599.0564
  20840899.620   -23791227.209 9 -18207719.17447  20840899.156    20840908.5494
  20613034.264   -24578336.981 9 -19135309.14448  20613034.823    20613043.5324
  24572950.332    -8238398.405 7  -6116859.34345  24572950.042    24572972.0394
  23625047.914    -1021670.836 8   -769873.37046  23625048.060    23625060.1834
 02  1 25  1 20  0.0000000  0  8 06 23 05 17 10 30 15 24
  21211916.762   -26077729.911 9 -20304685.01647  21211916.906    21211926.3334
  22039998.809   -15699474.005 8 -12206114.92947  22039998.667    22040010.6544
  21987970.339   -15120788.583 8 -11518030.80747  21987970.125    21987981.3154
  23243509.267   -16016023.413 8 -12457317.07146  23243509.044    23243523.2144
  20845641.590   -23766307.721 9 -18188301.37047  20845641.133    20845650.5134
  20620053.823   -24541448.755 9 -19106565.06348  20620054.393    20620063.1254
  24556524.557    -8324713.890 7  -6184117.58345  24556524.213    24556546.1434
  23640053.457     -942815.975 8   -708428.04246  23640053.631    23640065.7364
 02  1 25  1 20 30.0000000  0  8 06 23 05 17 10 30 15 24
  21201825.617   -26130758.905 9 -20346006.23447  21201825.772    21201835.1664
  22024144.578   -15782787.860 8 -12271034.61447  22024144.413    22024156.3314
  22005126.663   -15030631.804 8 -11447778.84247  22005126.438    22005137.6134
  23230470.112   -16084543.582 8 -12510709.21246  23230469.921    23230484.0214
  20850498.537   -23740784.365 9 -18168413.01647  20850498.061    20850507.4634
  20627179.850   -24504001.141 9 -19077385.09448  20627180.430    20627189.1354
  24540125.976    -8410887.359 7  -6251265.17345  24540125.606    24540147.3114
  23655057.708     -863968.103 8   -646988.15246  23655057.855    23655070.0044
 02  1 25  1 21  0.0000000  0  8 06 23 05 17 10 30 15 24
  21191769.299   -26183604.832 9 -20387184.79547  21191769.453    21191778.8214
  22008354.819   -15865762.735 8 -12335690.15447  22008354.633    22008366.4834
  22022338.210   -14940185.020 8 -11377300.90247  22022337.943    22022349.1504
  23217467.649   -16152871.524 8 -12563951.56746  23217467.382    23217481.3874
  20855469.991   -23714658.865 9 -18148055.45947  20855469.499    20855478.9374
  20634412.008   -24465996.062 9 -19047770.73648  20634412.573    20634421.2814
  24523754.226    -8496919.076 7  -6318302.29045  24523753.970    24523775.5464
  23670060.310     -785128.917 8   -585555.02546  23670060.478    23670072.5824
 02  1 25  1 21 30.0000000  0  8 06 23 05 17 10 30 15 24
  21181748.249   -26236265.513 9 -20428219.01047  21181748.401    21181757.7504
  21992630.151   -15948395.558 8 -12400079.16047  21992629.969    21992641.7824
  22039604.509   -14849450.149 8 -11306598.47847  22039604.269    22039615.4854
  23204501.982   -16221006.265 8 -12617043.36646  23204501.688    23204515.5454
  20860556.007   -23687931.739 9 -18127229.10047  20860555.508    20860564.9114
  20641750.134   -24427433.955 9 -19017722.33248  20641750.693    20641759.3824
  24507409.671    -8582807.870 8  -6385228.06245  24507409.394    24507430.9364
  23685061.201     -706298.767 8   -524128.93246  23685061.354    23685073.4214
 02  1 25  1 22  0.0000000  0  8 06 23 05 17 10 30 15 24
  21171762.696   -26288739.619 9 -20469107.85447  21171762.864    21171772.1584
  21976970.982   -16030684.243 8 -12464200.01447  21976970.770    21976982.5484
  22056925.103   -14758429.810 8 -11235673.61347  22056924.898    22056936.1354
  23191572.943   -16288947.853 8 -12669984.65446  23191572.669    23191586.4414
  20865756.205   -23660604.396 9 -18105935.04547  20865755.718    20865765.1104
  20649193.899   -24388316.598 9 -18987241.26348  20649194.470    20649203.1474
  24491092.464    -8668553.589 8  -6452042.35445  24491092.150    24491113.5694
  23700060.129     -627478.584 8   -462710.62946  23700060.330    23700072.4164
 02  1 25  1 22 30.0000000  0  8 06 23 05 17 10 30 15 24
  21161812.882   -26341026.024 9 -20509850.42647  21161813.052    21161822.3434
  21961377.634   -16112626.811 8 -12528051.16047  21961377.445    21961389.1954
  22074299.548   -14667126.977 8 -11164528.62147  22074299.310    22074310.6034
  23178680.545   -16356696.750 8 -12722775.78246  23178680.284    23178694.0274
  20871070.324   -23632678.482 9 -18084174.56247  20871069.839    20871079.1954
  20656742.980   -24348645.770 9 -18956328.91948  20656743.564    20656752.2574
  24474802.588    -8754156.037 8  -6518745.02246  24474802.198    24474823.5234
  23715057.072     -548669.443 8   -401300.91646  23715057.237    23715069.4094
 02  1 25  1 23  0.0000000  0  8 06 23 05 17 10 30 15 24
  21151899.111   -26393123.021 9 -20550445.41147  21151899.265    21151908.4944
  21945850.586   -16194221.026 8 -12591630.87747  21945850.414    21945862.1004
  22091727.230   -14575544.194 8 -11093165.49047  22091726.976    22091738.3234
  23165824.913   -16424252.606 8 -12775416.48946  23165824.644    23165838.3714
  20876498.071   -23604155.456 9 -18061948.80347  20876497.572    20876506.9544
  20664397.179   -24308422.650 9 -18924986.21648  20664397.755    20664406.4654
  24458539.991    -8839614.750 8  -6585335.70646  24458539.636    24458560.6574
  23730051.757     -469872.090 8   -339900.39846  23730051.877    23730064.0314
 02  1 25  1 23 30.0000000  0  8 06 23 05 17 10 30 15 24
  21142021.759   -26445028.455 9 -20590891.12647  21142021.913    21142031.1554
  21930390.443   -16275463.909 8 -12654936.83247  21930390.267    21930401.8714
  22109207.853   -14483683.254 8 -11021585.60747  22109207.604    22109218.9564
  23153006.113   -16491614.865 8 -12827906.33046  23153005.878    23153019.5914
  20882039.224   -23575036.135 9 -18039258.40247  20882038.745    20882048.1414
  20672156.297   -24267648.081 9 -18893213.81648  20672156.874    20672165.5744
  24442304.988    -8924928.420 8  -6651813.39346  24442304.626    24442325.5004
  23745044.128     -391086.534 8   -278509.05845  23745044.258    23745056.4084
 02  1 25  1 24  0.0000000  0  8 06 23 05 17 10 30 15 24
  21132180.922   -26496741.954 9 -20631187.27747  21132181.096    21132190.3194
  21914997.368   -16356354.394 8 -12717968.17047  21914997.203    21915008.7624
  22126740.643   -14391548.092 8 -10949792.04947  22126740.366    22126751.7484
  23140223.964   -16558784.399 8 -12880245.98346  23140223.747    23140237.4604
  20887693.479   -23545322.801 9 -18016105.12347  20887693.021    20887702.3844
  20680019.859   -24226324.729 9 -18861013.79248  20680020.430    20680029.1314
  24426097.302    -9010098.040 8  -6718178.82846  24426096.976    24426117.7394
  23760033.806     -312315.311 8   -217128.89945  23760033.901    23760045.9964
 02  1 25  1 24 30.0000000  0  8 06 23 05 17 10 30 15 24
  21122377.140   -26548260.798 9 -20671331.75148  21122377.303    21122386.5294
  21899671.969   -16436889.030 8 -12780722.24147  21899671.813    21899683.3064
  22144325.331   -14299140.251 8 -10877786.01247  22144325.062    22144336.4254
  23127478.735   -16625760.329 8 -12932434.76746  23127478.540    23127492.2084
  20893460.697   -23515015.804 9 -17992489.25847  20893460.209    20893469.6024
  20687987.786   -24184452.970 9 -18828386.44048  20687988.364    20687997.0534
  24409917.327    -9095121.947 8  -6784430.72945  24409917.057    24409937.6684
  23775020.862     -233557.824 8   -155759.42345  23775020.966    23775032.9554
 02  1 25  1 25  0.0000000  0  8 06 23 05 17 10 30 15 24
  21112610.558   -26599584.203 9 -20711323.93648  21112610.714    21112619.9334
  21884414.632   -16517066.310 9 -12843197.85547  21884414.455    21884425.9304
  22161961.269   -14206463.109 8 -10805570.12747  22161961.013    22161972.3454
  23114770.324   -16692543.012 8 -12984472.97946  23114770.108    23114783.6134
  20899340.482   -23484117.069 9 -17968412.29747  20899340.008    20899349.3954
  20696059.606   -24142035.207 9 -18795333.63948  20696060.206    20696068.8754
  24393765.205    -9180000.348 8  -6850569.26345  24393764.870    24393785.3244
  23790004.887     -154815.859 8    -94402.06445  23790004.943    23790017.0524
 02  1 25  1 25 30.0000000  0  8 06 23 05 17 10 30 15 24
  21102881.584   -26650709.937 9 -20751162.09148  21102881.769    21102890.9704
  21869225.746   -16596883.430 8 -12905392.81847  21869225.601    21869237.0394
  22179648.043   -14113518.596 8 -10733145.90547  22179647.789    22179659.1734
  23102098.665   -16759132.094 8 -13036360.32646  23102098.480    23102111.8774
  20905332.678   -23452627.925 9 -17943875.27247  20905332.200    20905341.5164
  20704235.251   -24099071.917 9 -18761855.74848  20704235.856    20704244.5234
  24377640.750    -9264732.357 7  -6916593.74145  24377640.382    24377660.8174
  23804985.852      -76089.535 8    -33056.88545  23804986.011    23804998.1924
 02  1 25  1 26  0.0000000  0  8 06 23 05 17 10 30 15 24
  21093190.553   -26701636.262 9 -20790844.85748  21093190.728    21093199.9164
  21854105.955   -16676337.948 9 -12967305.24247  21854105.788    21854117.1574
  22197385.251   -14020309.131 8 -10660515.22947  22197385.010    22197396.3914
  23089463.917   -16825527.109 8 -13088096.44246  23089463.728    23089477.0314
  20911437.025   -23420549.275 9 -17918878.88947  20911436.524    20911445.8514
  20712514.360   -24055564.744 9 -18727954.05348  20712514.964    20712523.6614
  24361544.285    -9349317.266 7  -6982503.58745  24361543.905    24361564.3784
  23819963.933        2620.601 8     28275.69845  23819964.082    23819976.3044
 02  1 25  1 26 30.0000000  0  8 06 23 05 17 10 30 15 24
  21083537.656   -26752362.403 9 -20830371.63548  21083537.811    21083546.9804
  21839055.341   -16755428.652 8 -13028934.17447  21839055.157    21839066.4864
  22215172.246   -13926838.159 8 -10587680.77547  22215171.986    22215183.3674
  23076865.886   -16891729.065 8 -13139682.12446  23076865.719    23076878.8944
  20917653.085   -23387883.495 9 -17893425.00147  20917652.610    20917661.9314
  20720896.549   -24011516.172 9 -18693630.49248  20720897.161    20720905.8274
  24345475.561    -9433755.541 7  -7048299.19744  24345475.000    24345495.7194
  23834938.668       81312.719 8     89594.24245  23834938.765    23834950.9994
 02  1 25  1 27  0.0000000  0  8 06 23 05 17 10 30 15 24
  21073923.240   -26802886.195 9 -20869740.73648  21073923.397    21073932.5554
  21824074.468   -16834152.751 9 -13090277.43947  21824074.318    21824085.6034
  22233008.546   -13833107.750 8 -10514644.16747  22233008.309    22233019.7474
  23064304.761   -16957737.271 8 -13191116.84546  23064304.585    23064317.6774
  20923980.693   -23354631.551 9 -17867514.35847  20923980.210    20923989.4834
  20729381.577   -23966927.082 9 -18658885.74648  20729382.167    20729390.8204
  24329435.118    -9518046.158 7  -7113979.74944  24329434.754    24329455.3934
  23849909.811      159986.726 8    150898.67145  23849909.931    23849922.1764
 02  1 25  1 27 30.0000000  0  8 06 23 05 17 10 30 15 24
  21064347.537   -26853206.587 9 -20908951.34848  21064347.696    21064356.8114
  21809163.705   -16912508.431 9 -13151333.62547  21809163.541    21809174.8374
  22250893.581   -13739121.030 8 -10441407.83347  22250893.397    22250904.9324
  23051780.510   -17023552.045 8 -13242400.82046  23051780.285    23051793.2834
  20930419.422   -23320795.568 9 -17841148.62447  20930418.933    20930428.2144
  20737969.062   -23921799.569 9 -18623721.45748  20737969.642    20737978.2994
  24313423.026    -9602189.240 7  -7179545.42745  24313422.838    24313442.7664
  23864877.218      238641.317 8    212187.98145  23864877.409    23864889.5834
 02  1 25  1 28  0.0000000  0  8 06 23 05 17 10 30 15 24
  21054810.813   -26903321.996 9 -20948002.23448  21054810.958    21054820.0524
  21794323.521   -16990493.611 9 -13212101.11747  21794323.344    21794334.6044
  22268827.005   -13644880.675 8 -10367973.87747  22268826.832    22268838.4054
  23039292.986   -17089173.349 8 -13293534.04846  23039292.770    23039305.6784
  20936969.064   -23286377.005 9 -17814328.92647  20936968.598    20936977.8584
  20746658.713   -23876135.241 9 -18588138.86748  20746659.287    20746667.9544
  24297439.104    -9686184.259 8  -7244995.71045  24297438.884    24297458.6294
  23879840.877      317276.149 8    273461.89245  23879841.130    23879853.2344
 02  1 25  1 28 30.0000000  0  8 06 23 05 17 10 30 15 24
  21045313.496   -26953230.310 9 -20986891.74248  21045313.663    21045322.7404
  21779554.273   -17068105.543 9 -13272577.76247  21779554.099    21779565.3034
  22286808.324   -13550388.987 8 -10294344.06047  22286808.124    22286819.6314
  23026842.395   -17154600.860 8 -13344516.26646  23026842.169    23026855.0424
  20943629.296   -23251377.237 9 -17787056.33647  20943628.798    20943638.0864
  20755450.237   -23829935.366 9 -18552138.96848  20755450.811    20755459.4564
  24281483.505    -9770030.370 8  -7310329.96445  24281483.239    24281502.6824
  23894800.643      395890.419 8    334719.77645  23894800.823    23894813.0294
 02  1 25  1 29  0.0000000  0  8 06 23 05 17 10 30 15 24
  21035855.819   -27002930.551 9 -21025619.11748  21035855.980    21035865.0354
  21764856.370   -17145342.895 9 -13332762.53347  21764856.194    21764867.3464
  22304836.789   -13455649.002 8 -10220520.76147  22304836.593    22304848.0734
  23014428.515   -17219835.304 8 -13395348.04946  23014428.313    23014441.0984
  20950399.689   -23215798.210 9 -17759332.38347  20950399.201    20950408.4884
  20764343.281   -23783202.146 9 -18515723.47948  20764343.844    20764352.5194
  24265556.183    -9853727.939 8  -7375548.46245  24265555.975    24265575.2124
  23909756.331      474483.008 8    395960.77045  23909756.469    23909768.7034
 02  1 25  1 29 30.0000000  0  8 06 23 05 17 10 30 15 24
  21026437.998   -27052421.194 9 -21064183.16848  21026438.150    21026447.1884
  21750230.217   -17222203.436 9 -13392653.68247  21750230.019    21750241.1014
  22322911.922   -13360663.598 8 -10146506.23547  22322911.759    22322923.2314
  23002051.370   -17284876.535 8 -13446029.28146  23002051.192    23002063.8984
  20957280.050   -23179641.505 9 -17731158.28647  20957279.577    20957288.8484
  20773337.437   -23735937.400 9 -18478893.81248  20773337.997    20773346.6874
  24249657.141    -9937276.692 8  -7440650.96945  24249656.912    24249676.1084
  23924707.820      553053.343 8    457184.43045  23924707.939    23924720.1674
 02  1 25  1 30  0.0000000  0  8 06 23 05 17 10 30 15 24
  21017060.351   -27101700.809 9 -21102582.77948  21017060.522    21017069.5274
  21735676.053   -17298685.202 9 -13452249.67847  21735675.875    21735686.9044
  22341033.314   -13265435.626 8 -10072302.69347  22341033.124    22341044.6384
  22989710.960   -17349724.798 8 -13496560.14046  22989710.795    22989723.4214
  20964269.950   -23142909.326 9 -17702535.77147  20964269.468    20964278.7184
  20782432.373   -23688143.104 9 -18441651.50548  20782432.941    20782441.6344
  24233786.431   -10020676.257 8  -7505637.21945  24233786.179    24233805.3344
  23939654.721      631599.927 8    518389.58946  23939654.852    23939667.1054
 02  1 25  1 30 30.0000000  0  8 06 23 05 17 10 30 15 24
  21007723.303   -27150766.851 9 -21140815.98148  21007723.476    21007732.4614
  21721194.623   -17374785.190 9 -13511548.19547  21721194.420    21721205.3744
  22359200.519   -13169966.817 8  -9997911.48647  22359200.328    22359211.8154
  22977407.390   -17414379.155 8 -13546939.92046  22977407.253    22977419.8614
  20971369.208   -23105602.282 9 -17673465.30947  20971368.734    20971377.9454
  20791627.920   -23639820.097 9 -18403997.21848  20791628.515    20791637.2074
  24217944.324   -10103925.450 8  -7570506.29445  24217944.067    24217963.1974
  23954597.188      710123.179 8    579576.56646  23954597.327    23954609.5614
 02  1 25  1 31  0.0000000  0  8 06 23 05 17 10 30 15 24
  20998427.350   -27199617.266 9 -21178881.16048  20998427.491    20998436.4654
  21706786.293   -17450500.927 9 -13570547.28847  21706786.075    21706796.9904
  22377413.091   -13074259.455 8  -9923334.39647  22377412.879    22377424.3984
  22965140.785   -17478839.195 8 -13597168.28346  22965140.674    22965153.2874
  20978577.636   -23067721.740 9 -17643947.96947  20978577.143    20978586.3644
  20800923.868   -23590969.574 9 -18365931.87848  20800924.470    20800933.1724
  24202130.913   -10187023.509 8  -7635257.58145  24202130.684    24202149.7704
  23969535.156      788622.992 8    640745.28245  23969535.366    23969547.5464
 02  1 25  1 31 30.0000000  0  8 06 23 05 17 10 30 15 24
  20989172.602   -27248251.012 9 -21216777.51048  20989172.748    20989181.7074
  21692451.262   -17525831.023 9 -13629245.88047  21692451.069    21692461.9254
  22395670.450   -12978316.656 8  -9848573.85447  22395670.230    22395681.7884
  22952911.079   -17543105.622 8 -13647245.79246  22952910.961    22952923.5214
  20985894.692   -23029270.038 9 -17613985.57347  20985894.198    20985903.4474
  20810319.774   -23541593.953 9 -18327457.37048  20810320.365    20810329.0554
  24186346.300   -10269970.612 8  -7699891.21145  24186346.052    24186365.0614
  23984468.318      867097.608 8    701894.34145  23984468.518    23984480.8404
 02  1 25  1 32  0.0000000  0  8 06 23 05 17 10 30 15 24
  20979959.481   -27296665.883 9 -21254503.30848  20979959.636    20979968.5744
  21678190.173   -17600772.832 9 -13687641.91747  21678189.982    21678200.7604
  22413972.223   -12882140.627 8  -9773631.56746  22413971.990    22413983.5924
  22940718.411   -17607177.829 8 -13697171.96346  22940718.252    22940730.7444
  20993320.299   -22990248.084 9 -17583578.83147  20993319.827    20993329.0494
  20819815.358   -23491694.420 9 -18288574.61548  20819815.941    20819824.5984
  24170590.414   -10352766.049 8  -7764406.62345  24170590.149    24170609.1924
  23999396.731      945547.073 8    763023.84445  23999396.994    23999409.2044
 02  1 25  1 32 30.0000000  0  8 06 23 05 17 10 30 15 24
  20970788.058   -27344861.579 9 -21292058.32148  20970788.216    20970797.1314
  21664003.078   -17675325.672 9 -13745734.86447  21664002.903    21664013.6244
  22432317.574   -12785735.372 8  -9698510.66146  22432317.340    22432328.9684
  22928562.339   -17671057.092 8 -13746947.79946  22928562.227    22928574.7074
  21000853.859   -22950658.831 9 -17552730.03647  21000853.352    21000862.5614
  20829410.025   -23441274.145 9 -18249286.08948  20829410.599    20829419.2854
  24154863.328   -10435410.375 8  -7828804.28145  24154863.017    24154882.0724
  24014320.111     1023969.449 8    824132.25045  24014320.372    24014332.3254
 02  1 25  1 33  0.0000000  0  8 06 23 05 17 10 30 15 24
  20961658.875   -27392835.438 9 -21329440.47748  20961659.025    20961667.9114
  21649890.635   -17749486.216 9 -13803522.12547  21649890.473    21649901.1704
  22450706.289   -12689102.507 8  -9623212.40646  22450706.030    22450717.6794
  22916443.322   -17734742.337 8 -13796572.45546  22916443.217    22916455.6284
  21008495.209   -22910503.110 9 -17521439.83947  21008494.732    21008503.9014
  20839103.604   -23390334.027 9 -18209592.48848  20839104.178    20839112.8524
  24139165.245   -10517902.244 7  -7893083.11145  24139164.875    24139183.9474
  24029238.363     1102365.215 8    885219.88745  24029238.524    24029250.4974
 02  1 25  1 33 30.0000000  0  8 06 23 05 17 10 30 15 24
  20952572.067   -27440586.766 9 -21366649.23348  20952572.216    20952581.0564
  21635853.105   -17823253.454 9 -13861002.92247  21635852.921    21635863.5884
  22469137.639   -12592245.398 8  -9547739.41646  22469137.390    22469149.0254
  22904360.989   -17798234.741 8 -13846046.86046  22904360.851    22904373.2584
  21016243.818   -22869783.763 9 -17489710.46147  21016243.328    21016252.5114
  20848895.579   -23338876.696 9 -18169495.86448  20848896.160    20848904.8274
  24123495.935   -10600242.476 7  -7957243.77045  24123495.592    24123514.6384
  24044151.141     1180732.651 8    946285.43946  24044151.291    24044163.3934
 02  1 25  1 34  0.0000000  0  8 06 23 05 17 10 30 15 24
  20943528.057   -27488112.946 9 -21403682.54548  20943528.217    20943537.0484
  21621890.868   -17896624.576 9 -13918175.05647  21621890.707    21621901.3184
  22487611.210   -12495166.127 8  -9472093.29246  22487610.971    22487622.6104
  22892315.522   -17861533.334 8 -13895370.24046  22892315.360    22892327.7524
  21024099.435   -22828501.975 9 -17457542.81047  21024098.979    21024108.1144
  20858785.814   -23286903.181 9 -18128997.01548  20858786.403    20858795.0554
  24107855.757   -10682429.701 8  -8021285.18345  24107855.529    24107874.2574
  24059058.597     1259072.333 8   1007329.36245  24059058.770    24059071.0324
 02  1 25  1 34 30.0000000  0  8 06 23 05 17 10 30 15 24
  20934527.095   -27535412.910 9 -21440539.59548  20934527.248    20934536.0834
  21608004.299   -17969598.403 9 -13975037.61447  21608004.130    21608014.7084
  22506126.463   -12397868.154 8  -9396276.76446  22506126.223    22506137.8714
  22880306.772   -17924639.031 8 -13944543.32946  22880306.594    22880318.9744
  21032061.637   -22786660.328 9 -17424938.91147  21032061.167    21032070.2814
  20868773.766   -23234416.229 9 -18088098.08548  20868774.338    20868783.0294
  24092244.776   -10764464.602 8  -8085207.87445  24092244.447    24092262.9644
  24073960.495     1337382.543 7   1068350.28345  24073960.634    24073972.9364
 02  1 25  1 35  0.0000000  0  8 06 23 05 17 10 30 15 24
  20925569.514   -27582485.113 9 -21477219.16948  20925569.680    20925578.4914
  21594193.737   -18042172.654 9 -14031588.81747  21594193.571    21594204.0794
  22524682.836   -12300353.931 8  -9320291.72946  22524682.577    22524694.2664
  22868334.783   -17987551.586 8 -13993565.92246  22868334.612    22868346.9624
  21040130.153   -22744260.025 9 -17391899.69847  21040129.681    21040138.8004
  20878859.081   -23181417.539 9 -18046800.40248  20878859.656    20878868.3364
  24076662.780   -10846346.519 8  -8149011.34645  24076662.454    24076680.8164
  24088856.555     1415662.752 7   1129347.81245  24088856.702    24088869.2014
 02  1 25  1 35 30.0000000  0  8 06 23 05 17 10 30 15 24
  20916655.725   -27629327.101 9 -21513719.35948  20916655.870    20916664.6664
  21580459.753   -18114344.615 9 -14087826.54747  21580459.579    21580470.0454
  22543279.998   -12202625.339 8  -9244139.65946  22543279.762    22543291.5164
  22856399.665   -18050270.260 8 -14042437.43846  22856399.494    22856411.7774
  21048304.718   -22701302.227 9 -17358426.07447  21048304.252    21048313.3794
  20889041.546   -23127908.356 9 -18005104.92948  20889042.117    20889050.8074
  24061110.080   -10928074.375 8  -8212694.74145  24061109.701    24061127.9644
  24103747.072     1493913.161 8   1190322.14745  24103747.233    24103759.8234
 02  1 25  1 36  0.0000000  0  8 06 23 05 17 10 30 15 24
  20907785.879   -27675938.356 9 -21550039.75748  20907786.011    20907794.7814
  21566802.463   -18186113.464 9 -14143750.17147  21566802.274    21566812.6844
  22561917.229   -12104686.377 8  -9167823.65946  22561917.000    22561928.7974
  22844501.213   -18112796.415 8 -14091158.96446  22844501.071    22844513.2334
  21056584.741   -22657790.261 9 -17324520.63747  21056584.290    21056593.3764
  20899320.546   -23073891.659 9 -17963013.99647  20899321.101    20899329.8224
  24045586.519   -11009649.169 8  -8276258.85145  24045586.108    24045604.1944
  24118631.695     1572131.995 8   1251271.92245  24118631.839    24118644.3554
 02  1 25  1 36 30.0000000  0  8 06 23 05 17 10 30 15 24
  20898960.338   -27722316.348 9 -21586178.39148  20898960.491    20898969.2614
  21553222.456   -18257476.466 9 -14199357.54747  21553222.265    21553232.6324
  22580594.147   -12006538.806 8  -9091345.10846  22580593.910    22580605.7014
  22832639.571   -18175129.249 8 -14139729.85246  22832639.413    22832651.4774
  21064970.037   -22613725.275 9 -17290184.26247  21064969.565    21064978.6734
  20909695.913   -23019368.786 9 -17920528.63347  20909696.498    20909705.1834
  24030092.152   -11091069.720 8  -8339702.76745  24030091.785    24030109.8074
  24133510.252     1650318.916 8   1312196.84745  24133510.398    24133522.7324
 02  1 25  1 37  0.0000000  0  8 06 23 05 17 10 30 15 24
  20890179.505   -27768459.588 9 -21622134.10148  20890179.660    20890188.4214
  21539719.915   -18328431.957 9 -14254647.38447  21539719.743    21539730.0894
  22599310.180   -11908185.587 8  -9014706.30346  22599309.983    22599321.7384
  22820814.609   -18237269.131 8 -14188150.39646  22820814.439    22820826.4234
  21073460.166   -22569109.178 9 -17255418.45747  21073459.717    21073468.8384
  20920167.212   -22964341.780 9 -17877650.44447  20920167.789    20920176.4564
  24014627.162   -11172335.947 8  -8403026.42745  24014626.811    24014644.6834
  24148382.701     1728473.586 8   1373096.64445  24148382.832    24148395.0114
 02  1 25  1 37 30.0000000  0  8 06 23 05 17 10 30 15 24
  20881443.611   -27814366.755 9 -21657905.86748  20881443.767    20881452.5104
  21526295.278   -18398978.288 9 -14309618.40447  21526295.116    21526305.4184
  22618064.816   -11809629.689 8  -8937909.56846  22618064.630    22618076.3444
  22809026.342   -18299216.242 8 -14236420.73346  22809026.180    22809038.0544
  21082054.733   -22523944.538 9 -17220225.21347  21082054.238    21082063.3444
  20930733.969   -22908812.913 9 -17834381.20247  20930734.564    20930743.2474
  23999191.589   -11253447.866 8  -8466229.84745  23999191.236    23999208.9414
  24163248.845     1806595.410 8   1433970.82445  24163248.881    24163261.0564
 02  1 25  1 38  0.0000000  0  8 06 23 05 17 10 30 15 24
  20872753.142   -27860035.368 9 -21693491.74048  20872753.294    20872762.0114
  21512948.962   -18469112.878 9 -14364268.58647  21512948.796    21512959.0824
  22636857.625   -11710873.022 8  -8860956.39646  22636857.400    22636869.2124
  22797274.843   -18360970.135 8 -14284540.51146  22797274.646    22797286.5064
  21090753.457   -22478232.380 9 -17184605.33147  21090752.976    21090762.0854
  20941396.006   -22852783.650 9 -17790722.04047  20941396.583    20941405.2454
  23983785.598   -11334404.259 8  -8529312.08845  23983785.252    23983802.8084
  24178108.753     1884684.383 7   1494819.36345  24178108.784    24178120.8894
 02  1 25  1 38 30.0000000  0  8 06 23 05 17 10 30 15 24
  20864108.210   -27905464.632 9 -21728891.11148  20864108.358    20864117.0664
  21499681.172   -18538834.733 9 -14418597.16047  21499681.031    21499691.3034
  22655687.911   -11611919.260 8  -8783849.63646  22655687.724    22655699.5794
  22785559.890   -18422531.661 8 -14332510.39846  22785559.745    22785571.5944
  21099555.793   -22431975.595 9 -17148561.06147  21099555.322    21099564.4214
  20952152.701   -22796256.931 9 -17746675.25547  20952153.276    20952161.9314
  23968409.101   -11415205.785 8  -8592273.66745  23968408.787    23968426.1664
  24192961.978     1962738.870 7   1555641.02945  24192962.011    24192974.1884
 02  1 25  1 39  0.0000000  0  8 06 23 05 17 10 30 15 24
  20855509.333   -27950651.810 9 -21764101.84848  20855509.481    20855518.1704
  21486492.567   -18608140.830 9 -14472601.77547  21486492.431    21486502.6224
  22674555.425   -11512770.033 8  -8706590.57546  22674555.222    22674567.0984
  22773881.782   -18483899.891 8 -14380329.67946  22773881.650    22773893.4464
  21108461.547   -22385175.359 9 -17112093.32947  21108461.077    21108470.1784
  20963003.863   -22739233.620 9 -17702241.52647  20963004.454    20963013.1004
  23953062.218   -11495851.266 8  -8655113.66445  23953061.952    23953079.1574
  24207808.545     2040759.281 7   1616436.13845  24207808.653    24207820.8454
 02  1 25  1 39 30.0000000  0  8 06 23 05 17 10 30 15 24
  20846956.619   -27995596.262 9 -21799123.44048  20846956.772    20846965.4474
  21473383.224   -18677030.380 9 -14526281.79847  21473383.067    21473393.2174
  22693459.397   -11413429.330 8  -8629182.29546  22693459.195    22693471.0184
  22762240.284   -18545075.883 8 -14427999.16046  22762240.139    22762251.8914
  21117470.172   -22337834.655 9 -17075204.44347  21117469.690    21117478.8074
  20973948.947   -22681716.964 9 -17657423.36447  20973949.527    20973958.1654
  23937744.928   -11576341.536 8  -8717832.73245  23937744.736    23937761.8814
  24222648.498     2118743.874 8   1677203.35645  24222648.659    24222660.8194
 02  1 25  1 40  0.0000000  0  8 06 23 05 17 10 30 15 24
  20838450.544   -28040295.849 9 -21833954.22948  20838450.701    20838459.3384
  21460353.598   -18745501.069 9 -14579635.44547  21460353.447    21460363.5644
  22712399.416   -11313899.136 8  -8551626.36346  22712399.243    22712411.0244
  22750635.388   -18606059.413 8 -14475518.67446  22750635.263    22750646.9604
  21126581.415   -22289954.817 9 -17037895.45547  21126580.942    21126590.0364
  20984987.612   -22623708.579 9 -17612222.04647  20984988.165    20984996.8134
  23922457.350   -11656675.570 8  -8780430.09045  23922457.098    23922474.1674
  24237481.722     2196692.806 8   1737942.81345  24237481.961    24237494.0634
 02  1 25  1 40 30.0000000  0  8 06 23 05 17 10 30 15 24
  20829991.419   -28084748.611 9 -21868592.68848  20829991.567    20830000.1974
  21447404.076   -18813550.767 9 -14632661.05547  21447403.921    21447413.9684
  22731375.045   -11214181.731 8  -8473924.56446  22731374.886    22731386.7174
  22739067.263   -18666850.119 8 -14522887.94546  22739067.062    22739078.7164
  21135794.832   -22241537.850 9 -17000167.92547  21135794.364    21135803.4834
  20996119.457   -22565210.071 9 -17566638.81647  20996120.039    20996128.7094
  23907199.696   -11736853.007 8  -8842905.43145  23907199.392    23907216.2934
  24252308.142     2274605.974 8   1798654.40045  24252308.376    24252320.3814
 02  1 25  1 41  0.0000000  0  8 06 23 05 17 10 30 15 24
  20821579.402   -28128953.755 9 -21903038.19948  20821579.570    20821588.1874
  21434534.835   -18881178.508 9 -14685357.86647  21434534.671    21434544.6714
  22750385.612   -11114280.878 8  -8396079.81146  22750385.456    22750397.3514
  22727535.507   -18727449.139 8 -14570107.84946  22727535.305    22727546.9784
  21145109.978   -22192586.567 9 -16962024.04147  21145109.485    21145118.5894
  21007344.069   -22506224.659 9 -17520676.17247  21007344.628    21007353.2784
  23891971.543   -11816874.413 8  -8905259.21945  23891971.274    23891988.1924
  24267127.423     2352481.730 8   1859336.86445  24267127.567    24267139.5944
 02  1 25  1 41 30.0000000  0  8 06 23 05 17 10 30 15 24
  20813214.941   -28172909.160 9 -21937289.10348  20813215.101    20813223.7024
  21421746.331   -18948382.035 9 -14737724.12747  21421746.174    21421756.1514
  22769430.717   -11014198.988 8  -8318093.99146  22769430.531    22769442.3934
  22716040.329   -18787855.952 8 -14617178.00046  22716040.153    22716051.8224
  21154526.402   -22143102.505 9 -16923465.00547  21154525.916    21154535.0194
  21018660.933   -22446754.054 9 -17474335.46047  21018661.513    21018670.1754
  23876773.398   -11896739.071 8  -8967490.89645  23876773.135    23876789.9054
  24281939.467     2430320.054 7   1919990.13345  24281939.633    24281951.7074
 02  1 25  1 42  0.0000000  0  8 06 23 05 17 10 30 15 24
  20804898.422   -28216612.602 9 -21971343.67348  20804898.579    20804907.1574
  21409038.955   -19015159.181 9 -14789758.14047  21409038.801    21409048.7844
  22788509.851   -10913938.100 8  -8239968.68346  22788509.663    22788521.4764
  22704581.810   -18848070.438 8 -14664098.26846  22704581.655    22704593.2974
  21164043.890   -22093087.596 9 -16884492.32447  21164043.418    21164052.5304
  21030069.787   -22386800.002 9 -17427618.03447  21030070.385    21030079.0584
  23861605.236   -11976446.388 8  -9029599.98745  23861604.955    23861621.5564
  24296744.424     2508120.820 8   1980614.12745  24296744.544    24296756.7414
 02  1 25  1 42 30.0000000  0  8 06 23 05 17 10 30 15 24
  20796630.044   -28260063.069 9 -22005201.11948  20796630.193    20796638.7554
  21396412.928   -19081508.949 9 -14841459.13647  21396412.762    21396422.7174
  22807622.349   -10813501.738 8  -8161706.64246  22807622.112    22807633.9014
  22693159.734   -18908093.337 8 -14710869.25746  22693159.603    22693171.2254
  21173661.861   -22042544.725 9 -16845108.24447  21173661.379    21173670.5084
  21041570.114   -22326365.293 9 -17380526.06947  21041570.714    21041579.4334
  23846466.843   -12055996.884 8  -9091586.91545  23846466.625    23846482.9584
  24311542.136     2585882.715 8   2041207.84645  24311542.110    24311554.2044
 02  1 25  1 43  0.0000000  0  8 06 23 05 17 10 30 15 24
  20788410.106   -28303258.781 9 -22038860.04948  20788410.263    20788418.8204
  21383868.534   -19147429.562 9 -14892825.72947  21383868.376    21383878.2954
  22826767.683   -10712892.562 8  -8083309.94046  22826767.458    22826779.2564
  22681774.125   -18967924.777 8 -14757491.05546  22681773.955    22681785.5994
  21183379.964   -21991475.585 9 -16805314.08047  21183379.492    21183388.5954
  21053161.504   -22265452.233 9 -17333061.35647  21053162.109    21053170.8434
  23831358.503   -12135390.389 8  -9153451.53845  23831358.235    23831374.2434
  24326332.143     2663605.069 8   2101770.74645  24326332.211    24326344.2904
 02  1 25  1 43 30.0000000  0 10 06 23 05 17 10 18 30 15 26 24
  20780237.956   -28346203.328 9 -22072323.27248  20780238.131    20780246.6854
  21371405.178   -19212924.521 9 -14943860.64447  21371405.014    21371414.8974
  22845944.377   -10612118.536 8  -8004784.78946  22845944.162    22845956.0374
  22670423.883   -19027569.948 8 -14803967.71746  22670423.742    22670435.4214
  21193196.753   -21939888.085 9 -16765116.00847  21193196.266    21193205.3654
  24772090.986    -4229801.359 7  -2267622.58645  24772091.000    24772112.7284
  21064842.534   -22204068.234 9 -17285229.68447  21064843.123    21064851.8454
  23816279.070   -12214631.562 8  -9215197.48945  23816278.804    23816294.6134
  24447298.593    -6145401.214 7  -4761123.12445  24447298.818    24447313.1584
  24341113.641     2741282.608 8   2162298.72645  24341113.727    24341125.8504
 02  1 25  1 44  0.0000000  0 10 06 23 05 17 10 18 30 15 26 24
  20772114.917   -28388889.959 9 -22105585.51448  20772115.084    20772123.6354
  21359024.067   -19277987.163 9 -14994558.68547  21359023.926    21359033.7504
  22865152.878   -10511177.337 8  -7926129.38046  22865152.654    22865164.6274
  22659110.030   -19087024.212 8 -14850295.61146  22659109.875    22659121.5614
  21203112.769   -21887779.091 9 -16724511.57047  21203112.291    21203121.3374
  24750830.374    -4341523.697 7  -2354678.02145  24750830.298    24750851.9304
  21076613.696   -22142210.464 9 -17237028.83247  21076614.283    21076623.0024
  23801229.668   -12293715.309 8  -9276820.77745  23801229.282    23801244.9334
  24430000.539    -6236301.851 7  -4831954.57745  24430000.704    24430015.1824
  24355887.500     2818919.879 8   2222795.32245  24355887.629    24355899.7994
 02  1 25  1 44 30.0000000  0 10 06 23 05 17 10 18 30 15 26 24
  20764042.071   -28431312.915 9 -22138642.30248  20764042.223    20764050.7554
  21346726.376   -19342611.649 9 -15044915.31247  21346726.199    21346735.9814
  22884393.489   -10410067.607 8  -7847342.64546  22884393.264    22884405.2224
  22647833.290   -19146283.473 8 -14896471.55846  22647833.152    22647844.7724
  21213128.334   -21835146.869 9 -16683499.42047  21213127.867    21213136.9014
  24729579.351    -4453196.031 8  -2441694.52445  24729579.290    24729600.5994
  21088475.346   -22079877.087 9 -17188457.37847  21088475.942    21088484.6304
  23786210.939   -12372637.308 8  -9338318.04345  23786210.570    23786226.0074
  24412699.812    -6327216.700 7  -4902797.10745  24412699.930    24412714.4614
  24370654.366     2896520.218 8   2283263.12545  24370654.537    24370666.6424
 02  1 25  1 45  0.0000000  0 10 06 23 05 17 10 18 30 15 26 24
  20756019.170   -28473473.291 9 -22171494.47648  20756019.317    20756027.8524
  21334511.797   -19406799.068 9 -15094931.36547  21334511.635    21334521.4024
  22903665.039   -10308794.900 8  -7768428.91746  22903664.783    22903676.8044
  22636593.099   -19205350.710 8 -14942497.87346  22636592.992    22636604.5734
  21223242.542   -21781996.273 9 -16642083.34547  21223242.075    21223251.0994
  24708337.698    -4564819.103 8  -2528672.63845  24708337.695    24708358.6034
  21100426.575   -22017073.168 9 -17139519.26647  21100427.158    21100435.8434
  23771222.511   -12451400.168 8  -9399691.30345  23771222.137    23771237.4514
  24395396.533    -6418145.360 7  -4973650.38545  24395396.629    24395411.1504
  24385413.652     2974080.419 8   2343699.67245  24385413.809    24385425.8654
 02  1 25  1 45 30.0000000  0 10 06 23 05 17 10 18 30 15 26 24
  20748046.709   -28515368.519 9 -22204140.04348  20748046.886    20748055.4044
  21322380.936   -19470546.948 9 -15144604.92747  21322380.773    21322390.4774
  22922967.185   -10207361.103 8  -7689389.65446  22922967.000    22922979.0524
  22625389.653   -19264225.247 8 -14988374.03046  22625389.469    22625401.0254
  21233455.136   -21728328.817 9 -16600264.52447  21233454.645    21233463.6764
  24687105.984    -4676389.861 8  -2615609.96845  24687105.834    24687126.6054
  21112467.015   -21953800.166 9 -17090215.63747  21112467.603    21112476.2894
  23756264.494   -12530002.838 8  -9460939.75945  23756264.081    23756279.3624
  24378091.371    -6509083.730 7  -5044511.26445  24378091.509    24378106.0824
  24400165.202     3051600.661 8   2404105.07345  24400165.337    24400177.4004
 02  1 25  1 46  0.0000000  0 10 06 23 05 17 10 18 30 15 26 24
  20740124.855   -28556997.872 9 -22236578.43548  20740125.020    20740133.5274
  21310333.773   -19533854.681 9 -15193935.51247  21310333.603    21310343.2994
  22942299.363   -10105769.975 8  -7610227.78346  22942299.177    22942311.2384
  22614222.551   -19322908.308 8 -15034100.98746  22614222.370    22614233.8774
  21243765.454   -21674147.671 9 -16558045.42947  21243764.978    21243773.9774
  24665884.374    -4787907.130 8  -2702505.62745  24665884.165    24665904.8124
  21124596.106   -21890061.464 9 -17040549.12447  21124596.686    21124605.3434
  23741336.915   -12608446.102 8  -9522064.00245  23741336.535    23741351.6974
  24360784.792    -6600029.842 7  -5115378.17345  24360784.950    24360799.5954
  24414908.849     3129079.538 8   2464478.25145  24414908.950    24414921.0614
 02  1 25  1 46 30.0000000  0 10 06 23 05 17 10 18 30 15 26 24
  20732253.853   -28598359.940 9 -22268808.55148  20732254.029    20732262.4984
  21298370.623   -19596720.810 9 -15242921.98247  21298370.475    21298380.1794
  22961660.957   -10004024.322 8  -7530945.50946  22961660.773    22961672.8674
  22603091.805   -19381400.288 8 -15079679.05046  22603091.645    22603103.0754
  21254173.050   -21619455.442 9 -16515428.08247  21254172.553    21254181.5454
  24644673.297    -4899368.808 8  -2789357.98245  24644673.149    24644693.6864
  21136813.295   -21825859.593 9 -16990521.70147  21136813.888    21136822.5914
  23726439.605   -12686729.920 8  -9583063.99645  23726439.248    23726454.3834
  24343477.174    -6690980.639 7  -5186248.76045  24343477.391    24343491.8824
  24429644.629     3206516.598 7   2524818.84945  24429644.650    24429656.7594
 02  1 25  1 47  0.0000000  0 10 06 23 05 17 10 18 30 15 26 24
  20724434.087   -28639452.913 9 -22300828.98148  20724434.243    20724442.6894
  21286491.907   -19659143.545 9 -15291562.95447  21286491.749    21286501.4164
  22981051.408    -9902126.797 8  -7451544.90446  22981051.230    22981063.3944
  22591997.490   -19439701.233 8 -15125108.25547  22591997.306    22592008.7084
  21264677.471   -21564254.173 9 -16472414.08047  21264676.981    21264685.9544
  24623473.217    -5010772.390 7  -2876165.08745  24623473.135    24623493.3694
  21149118.228   -21761196.828 9 -16940135.14847  21149118.820    21149127.5354
  23711572.815   -12764854.098 8  -9643939.60645  23711572.451    23711587.5054
  24326169.279    -6781932.853 7  -5257120.42545  24326169.685    24326183.8844
  24444372.261     3283911.059 7   2585126.22345  24444372.363    24444384.4824
 02  1 25  1 47 30.0000000  0 10 06 23 05 17 10 18 30 15 26 24
  20716665.854   -28680275.025 9 -22332638.35248  20716666.011    20716674.4184
  21274697.804   -19721121.512 9 -15339857.35747  21274697.634    21274707.2554
  23000470.182    -9800080.343 8  -7372028.25546  23000470.016    23000482.2894
  22580939.439   -19497811.363 8 -15170388.77147  22580939.251    22580950.6284
  21275278.259   -21508546.420 9 -16429005.42147  21275277.792    21275286.7254
  24602284.607    -5122115.672 7  -2962925.22545  24602284.525    24602304.5084
  21161510.405   -21696075.629 9 -16889391.38347  21161510.981    21161519.6764
  23696736.365   -12842818.555 8  -9704690.77646  23696736.051    23696751.0024
  24308861.916    -6872883.425 7  -5327990.83145  24308862.125    24308876.4434
  24459091.647     3361262.693 7   2645400.23945  24459091.843    24459103.8714
 02  1 25  1 48  0.0000000  0 10 06 23 05 17 10 18 30 15 26 24
  20708949.411   -28720824.959 9 -22364235.63948  20708949.573    20708957.9504
  21262988.595   -19782653.420 9 -15387804.17547  21262988.420    21262998.0204
  23019916.799    -9697887.976 8  -7292397.90546  23019916.623    23019928.9394
  22569917.566   -19555731.141 8 -15215520.94247  22569917.381    22569928.7634
  21285975.033   -21452334.604 9 -16385203.97747  21285974.537    21285983.4664
  24581107.833    -5233396.730 7  -3049636.91445  24581107.735    24581127.4724
  21173989.300   -21630498.611 9 -16838292.43547  21173989.852    21173998.5224
  23681930.328   -12920623.281 8  -9765317.47346  23681930.052    23681944.9174
  24291555.462    -6963829.241 7  -5398857.54345  24291555.596    24291569.8614
  24473802.859     3438570.649 7   2705640.23345  24473803.039    24473814.8944
 02  1 25  1 48 30.0000000  0 10 06 23 05 17 10 18 30 15 26 24
  20701285.102   -28761101.089 9 -22395619.56648  20701285.268    20701293.6224
  21251364.528   -19843737.747 9 -15435402.22747  21251364.357    21251373.9534
  23039390.677    -9595552.613 8  -7212656.10946  23039390.452    23039402.7294
  22558931.897   -19613460.956 8 -15260505.10047  22558931.707    22558943.0504
  21296767.115   -21395621.482 9 -16341011.91147  21296766.645    21296775.5754
  24559943.205    -5344613.480 7  -3136298.49545  24559943.247    24559962.6004
  21186554.448   -21564468.248 9 -16786840.23147  21186555.033    21186563.7064
  23667154.684   -12998268.430 8  -9825819.84146  23667154.370    23667169.2054
  24274250.374    -7054767.474 7  -5469718.34145  24274250.567    24274264.6594
  24488505.703     3515834.602 8   2765845.95445  24488505.979    24488517.6524
 02  1 25  1 49  0.0000000  0 10 06 23 05 17 10 18 30 15 26 24
  20693673.174   -28801101.803 9 -22426788.88748  20693673.328    20693681.6824
  21239825.869   -19904373.183 9 -15482650.50047  21239825.715    21239835.2704
  23058891.258    -9493076.961 8  -7132804.99546  23058891.032    23058903.2164
  22547982.327   -19671000.982 8 -15305341.37647  22547982.147    22547993.4264
  21307654.266   -21338409.253 9 -16296430.91947  21307653.798    21307662.7074
  24538791.381    -5455763.822 7  -3222908.40245  24538791.320    24538810.3414
  21199205.429   -21497987.065 9 -16735036.74147  21199205.995    21199214.6944
  23652409.391   -13075753.895 8  -9886197.79446  23652409.158    23652423.8534
  24256947.266    -7145694.956 7  -5540570.75445  24256947.395    24256961.6264
  24503200.106     3593054.113 8   2826017.05945  24503200.407    24503212.1844
 02  1 25  1 49 30.0000000  0 10 06 23 05 17 10 18 30 15 26 24
  20686113.981   -28840825.280 9 -22457742.17848  20686114.161    20686122.5104
  21228372.964   -19964558.197 9 -15529547.79347  21228372.814    21228382.3404
  23078417.983    -9390463.695 8  -7052846.65646  23078417.754    23078429.9754
  22537068.797   -19728351.405 8 -15350029.89947  22537068.612    22537079.8684
  21318635.893   -21280700.271 9 -16251462.85547  21318635.416    21318644.3234
  24517652.708    -5566845.388 7  -3309464.72345  24517652.524    24517671.2954
  21211941.701   -21431057.602 9 -16682883.94247  21211942.278    21211950.9774
  23637694.695   -13153079.276 8  -9946451.00046  23637694.405    23637708.9574
  24239646.843    -7236608.349 7  -5611412.17145  24239647.042    24239661.3144
  24517886.046     3670228.544 8   2886152.99345  24517886.250    24517897.9664
 02  1 25  1 50  0.0000000  0 10 06 23 05 17 10 18 30 15 26 24
  20678607.931   -28880269.593 9 -22488477.94248  20678608.108    20678616.4314
  21217006.021   -20024291.257 9 -15576092.91247  21217005.863    21217015.3984
  23097970.361    -9287715.229 8  -6972782.99646  23097970.088    23097982.4694
  22526191.328   -19785512.411 8 -15394570.82347  22526191.153    22526202.3434
  21329711.631   -21222496.766 9 -16206109.44747  21329711.158    21329720.0544
  24496527.561    -5677855.755 8  -3395965.55345  24496527.308    24496545.9784
  21224762.930   -21363681.929 9 -16630383.44747  21224763.492    21224772.1634
  23623010.418   -13230244.359 8 -10006579.29445  23623010.091    23623024.6064
  24222349.739    -7327504.315 7  -5682240.02045  24222349.996    24222364.2024
  24532563.259     3747357.644 8   2946253.61945  24532563.410    24532575.1754
 02  1 25  1 50 30.0000000  0 10 06 23 05 17 10 18 30 15 26 24
  20671155.386   -28919432.813 9 -22518994.67248  20671155.567    20671163.8724
  21205725.474   -20083570.543 9 -15622284.45147  21205725.322    21205734.7904
  23117547.955    -9184834.283 8  -6892616.10146  23117547.685    23117560.1714
  22515349.934   -19842483.720 8 -15438963.93447  22515349.778    22515360.9254
  21340881.093   -21163800.836 9 -16160372.33047  21340880.606    21340889.4694
  24475416.449    -5788792.228 8  -3482408.84345  24475416.233    24475434.6564
  21237668.633   -21295862.236 9 -16577536.97147  21237669.188    21237677.8694
  23608356.668   -13307248.720 8 -10066582.38845  23608356.336    23608370.7894
  24205056.587    -7418379.463 7  -5753051.61645  24205056.808    24205071.1484
  24547231.803     3824441.524 8   3006319.00145  24547231.965    24547243.9064
 02  1 25  1 51  0.0000000  0 10 06 23 05 17 10 18 30 15 26 24
  20663756.581   -28958313.528 9 -22549291.26448  20663756.769    20663765.0424
  21194531.500   -20142394.685 9 -15668121.32647  21194531.342    21194540.7634
  23137150.234    -9081823.901 8  -6812348.33646  23137149.984    23137162.3844
  22504544.585   -19899265.790 8 -15483209.58047  22504544.438    22504555.5784
  21352143.707   -21104615.170 9 -16114253.59447  21352143.219    21352152.1164
  24454319.797    -5899652.902 8  -3568793.08345  24454319.558    24454337.9154
  21250658.255   -21227601.378 9 -16524346.73947  21250658.815    21250667.5384
  23593733.548   -13384092.615 8 -10126460.44746  23593733.229    23593747.4874
  24187768.105    -7509230.630 7  -5823844.53845  24187768.327    24187782.5474
  24561891.578     3901479.195 8   3066348.39746  24561891.806    24561903.7404
 02  1 25  1 51 30.0000000  0 10 06 23 05 17 10 18 30 15 26 24
  20656411.924   -28996909.769 9 -22579366.19448  20656412.104    20656420.3514
  21183424.466   -20200762.150 9 -15713602.35247  21183424.301    21183433.7304
  23156776.701    -8978686.634 8  -6731981.68546  23156776.467    23156788.8174
  22493775.196   -19955858.893 8 -15527307.97747  22493775.064    22493786.1854
  21363499.104   -21044941.990 9 -16067754.98247  21363498.618    21363507.5344
  24433238.008    -6010435.264 7  -3655116.30345  24433237.892    24433255.9884
  21263731.414   -21158901.558 9 -16470814.45547  21263731.975    21263740.6454
  23579141.023   -13460775.649 8 -10186213.17346  23579140.691    23579154.8004
  24170484.739    -7600054.497 7  -5894616.17945  24170485.001    24170499.1484
  24576542.509     3978470.267 8   3126341.47146  24576542.664    24576554.6534
 02  1 25  1 52  0.0000000  0 10 06 23 05 17 10 18 30 15 26 24
  20649121.737   -29035219.827 9 -22609218.12448  20649121.901    20649130.1334
  21172404.625   -20258671.190 9 -15758726.17447  21172404.460    21172413.8484
  23176426.790    -8875424.924 8  -6651518.07146  23176426.564    23176438.8784
  22483041.848   -20012262.899 8 -15571259.02647  22483041.684    22483052.7674
  21374946.823   -20984783.424 9 -16020878.14847  21374946.353    21374955.2914
  24412171.520    -6121137.235 8  -3741376.89745  24412171.526    24412189.4614
  21276887.648   -21089765.116 9 -16416941.95047  21276888.217    21276896.8974
  23564579.161   -13537297.516 8 -10245840.31346  23564578.832    23564592.8544
  24153207.225    -7690847.588 7  -5965363.83745  24153207.483    24153221.6734
  24591184.621     4055415.010 8   3186298.44646  24591184.737    24591196.7574
 02  1 25  1 52 30.0000000  0 10 06 23 05 17 10 18 30 15 26 24
  20641886.286   -29073242.161 9 -22638845.85448  20641886.449    20641894.6714
  21161472.251   -20316120.884 9 -15803492.06047  21161472.088    21161481.4364
  23196099.997    -8772041.848 8  -6570959.88246  23196099.784    23196112.1084
  22472344.332   -20068478.416 8 -15615063.20647  22472344.160    22472355.1964
  21386486.387   -20924142.385 9 -15973625.35647  21386485.924    21386494.8744
  24391120.789    -6231756.626 7  -3827573.14645  24391120.820    24391138.5774
  21290126.416   -21020194.939 9 -16362731.47147  21290127.002    21290135.7314
  23550047.984   -13613658.424 8 -10305342.04946  23550047.681    23550061.5254
  24135936.036    -7781607.088 7  -6036085.28845  24135936.219    24135950.4764
  24605817.569     4132312.408 7   3246218.52345  24605817.727    24605829.8404
 02  1 25  1 53  0.0000000  0 10 06 23 05 17 10 18 30 15 26 24
  20634705.833   -29110975.217 9 -22668248.17448  20634706.000    20634714.2284
  21150627.456   -20373110.212 9 -15847899.21647  21150627.296    21150636.6234
  23215795.822    -8668540.162 8  -6490309.29946  23215795.559    23215807.9004
  22461682.549   -20124505.819 8 -15658720.80947  22461682.381    22461693.3984
  21398117.307   -20863021.587 9 -15925998.73147  21398116.812    21398125.7684
  24370086.309    -6342291.152 7  -3913703.29445  24370086.372    24370103.9164
  21303447.267   -20950193.740 9 -16308185.12547  21303447.830    21303456.5474
  23535547.410   -13689858.330 8 -10364718.33346  23535547.100    23535560.9044
  24118671.953    -7872329.907 8  -6106778.15945  24118672.200    24118686.3004
  24620441.440     4209161.997 7   3306101.35145  24620443.072    24620453.0154
 02  1 25  1 53 30.0000000  0 10 06 23 05 17 10 18 30 15 26 24
  20627580.912   -29148416.560 9 -22697423.18148  20627581.083    20627589.3024
  21139870.700   -20429636.941 9 -15891945.90247  21139870.533    21139879.8644
  23235513.778    -8564922.022 8  -6409567.96546  23235513.479    23235525.8604
  22451056.675   -20180344.702 8 -15702231.51147  22451056.527    22451067.4604
  21409839.227   -20801422.475 9 -15877999.38547  21409838.747    21409847.6474
  24349068.604    -6452738.061 7  -3999765.20045  24349068.492    24349085.9364
  21316849.765   -20879763.341 9 -16253304.32747  21316850.322    21316859.0154
  23521077.541   -13765896.508 8 -10423968.59546  23521077.228    23521090.9714
  24101415.664    -7963012.117 8  -6177439.42045  24101415.917    24101429.7544
  24635056.026     4285964.25616   3365947.17844  24635055.809    24635068.2364
 02  1 25  1 54  0.0000000  0 10 06 23 05 17 10 18 30 15 26 24
  20620511.865   -29185564.390 9 -22726369.48448  20620512.037    20620520.2384
  21129202.214   -20485699.494 9 -15935630.90648  21129202.068    21129211.3534
  23255253.414    -8461189.932 8  -6328737.83246  23255253.143    23255265.5654
  22440466.696   -20235994.895 8 -15745595.19047  22440466.549    22440477.4404
  21421651.730   -20739347.491 9 -15829629.23747  21421651.200    21421660.1164
  24328067.828    -6563094.929 7  -4085756.94845  24328067.760    24328085.0164
  21330333.488   -20808905.977 9 -16198090.83047  21330334.067    21330342.7784
  23506638.571   -13841772.629 8 -10483092.58446  23506638.243    23506651.9624
  24084167.752    -8053650.042 8  -6248066.16145  24084167.948    24084181.6524
  24649661.396     4362719.115 7   3425756.01644  24649661.244    24649674.3914
 02  1 25  1 54 30.0000000  0 10 06 23 05 17 10 18 30 15 26 24
  20613498.846   -29222417.834 9 -22755086.39448  20613499.022    20613507.2164
  21118622.237   -20541297.402 9 -15978953.83948  21118622.062    21118631.3514
  23275013.955    -8357347.470 8  -6247821.69046  23275013.743    23275026.1834
  22429912.396   -20291457.600 8 -15788812.76947  22429912.255    22429923.1054
  21433554.036   -20676800.067 9 -15780890.94647  21433553.540    21433562.4124
  24307084.436    -6673360.294 7  -4171677.44145  24307084.547    24307101.6384
  21343897.833   -20737625.100 9 -16142547.32547  21343898.417    21343907.1324
  23492230.353   -13917487.320 8 -10542090.82046  23492229.998    23492243.6764
  24066928.624    -8144241.315 8  -6318656.54045  24066928.862    24066942.4214
  24664258.300     4439424.922 7   3485526.86045  24664258.379    24664270.9324
 02  1 25  1 55  0.0000000  0 10 06 23 05 17 10 18 30 15 26 24
  20606542.201   -29258974.949 9 -22783572.39848  20606542.378    20606550.5444
  21108130.934   -20596429.084 9 -16021913.48248  21108130.755    21108140.0464
  23294795.036    -8253397.259 8  -6166821.58846  23294794.819    23294807.2564
  22419393.711   -20346733.062 8 -15831884.44547  22419393.597    22419404.3894
  21445545.877   -20613782.538 9 -15731786.33347  21445545.368    21445554.2144
  24286119.009    -6783531.890 7  -4257524.88845  24286118.971    24286135.9414
  21357542.261   -20665923.295 9 -16086675.81747  21357542.831    21357551.5284
  23477852.779   -13993040.619 8 -10600963.29946  23477852.481    23477866.0794
  24049698.949    -8234782.663 8  -6389208.00245  24049699.300    24049712.7744
  24678845.761     4516081.884 8   3545259.62445  24678845.830    24678858.2634
 02  1 25  1 55 30.0000000  0 10 06 23 05 17 10 18 30 15 26 24
  20599642.283   -29295233.813 9 -22811826.00548  20599642.474    20599650.6344
  21097728.601   -20651093.133 9 -16064508.74748  21097728.437    21097737.6754
  23314596.178    -8149341.800 8  -6085739.46946  23314595.921    23314608.4254
  22408910.747   -20401821.125 8 -15874810.09447  22408910.604    22408921.4154
  21457626.622   -20550297.398 9 -15682317.35747  21457626.135    21457635.0474
  24265171.822    -6893607.162 7  -4343297.26645  24265171.802    24265188.7764
  21371266.371   -20593802.726 9 -16030478.00347  21371266.940    21371275.6114
  23463506.054   -14068431.905 8 -10659709.53146  23463505.784    23463519.2834
  24032479.540    -8325270.469 8  -6459717.73745  24032479.901    24032493.3024
  24693423.893     4592689.945 8   3604954.31445  24693423.968    24693436.3374
 02  1 25  1 56  0.0000000  0 10 06 23 05 17 10 18 30 15 26 24
  20592799.378   -29331193.395 9 -22839846.39848  20592799.552    20592807.7024
  21087415.376   -20705288.970 9 -16106739.17048  21087415.226    21087424.4494
  23334416.731    -8045184.439 8  -6004577.97346  23334416.460    23334428.9954
  22398463.205   -20456722.692 8 -15917590.43247  22398463.067    22398473.8984
  21469795.855   -20486347.402 9 -15632486.14447  21469795.390    21469804.2754
  24244243.475    -7003584.393 8  -4428993.30445  24244243.390    24244260.1954
  21385069.564   -20521266.684 9 -15973956.44647  21385070.124    21385078.8474
  23449190.150   -14143661.686 8 -10718329.95146  23449189.924    23449203.2874
  24015270.736    -8415702.062 8  -6530183.66045  24015271.114    24015284.5424
  24707992.494     4669247.931 8   3664609.99545  24707992.493    24708004.7534
 02  1 25  1 56 30.0000000  0 10 06 23 05 17 10 18 30 15 26 24
  20586013.896   -29366851.124 9 -22867631.58148  20586014.069    20586022.2204
  21077191.746   -20759014.337 9 -16148602.98948  21077191.564    21077200.7774
  23354256.366    -7940926.911 8  -5923338.42346  23354256.075    23354268.6974
  22388051.337   -20511437.120 8 -15960224.94447  22388051.195    22388061.9694
  21482053.205   -20421934.373 9 -15582294.13547  21482052.724    21482061.6234
  24223334.326    -7113460.581 8  -4514610.61545  24223334.156    24223350.8754
  21398951.420   -20448316.968 9 -15917112.55147  21398951.984    21398960.7894
  23434905.090   -14218729.188 8 -10776823.91246  23434904.853    23434918.1694
  23998073.595    -8506073.322 8  -6600602.60345  23998073.920    23998087.2234
  24722551.717     4745756.410 8   3724227.09855  24722551.713    24722563.8844
 02  1 25  1 57  0.0000000  0 10 06 23 05 17 10 18 30 15 26 24
  20579286.195   -29402205.113 9 -22895180.08648  20579286.367    20579294.5154
  21067057.828   -20812268.039 9 -16190099.27748  21067057.670    21067066.7794
  23374114.578    -7836571.785 8  -5842022.82046  23374114.297    23374126.9204
  22377675.039   -20565964.677 8 -16002713.84647  22377674.858    22377685.6294
  21494398.154   -20357060.845 9 -15531743.29547  21494397.708    21494406.6134
  24202444.890    -7223233.256 8  -4600147.31445  24202444.807    24202461.2834
  21412911.497   -20374956.190 9 -15859948.35247  21412912.070    21412920.8864
  23420650.980   -14293633.966 8 -10835191.08846  23420650.781    23420664.1114
  23980888.484    -8596380.754 8  -6670971.80245  23980888.866    23980902.0534
  24737101.366     4822214.908 8   3783805.20645  24737101.391    24737113.4204
 02  1 25  1 57 30.0000000  0 10 06 23 05 17 10 18 30 15 26 24
  20572616.587   -29437253.907 9 -22922490.77148  20572616.754    20572624.8814
  21057013.901   -20865049.082 9 -16231227.24648  21057013.723    21057022.7784
  23393990.745    -7732121.911 8  -5760633.38346  23393990.458    23394003.1884
  22367334.166   -20620305.558 8 -16045057.29147  22367333.997    22367344.7594
  21506830.344   -20291729.367 9 -15480835.60447  21506829.891    21506838.7344
  24181575.621    -7332900.429 8  -4685601.81745  24181575.584    24181591.8694
  21426949.385   -20301186.958 9 -15802465.86447  21426949.961    21426958.7094
  23406427.767   -14368376.481 8 -10893431.83246  23406427.568    23406440.8614
  23963716.069    -8686621.258 8  -6741288.84945  23963716.445    23963729.6524
  24751641.394     4898623.187 8   3843344.17745  24751641.515    24751653.4544
 02  1 25  1 58  0.0000000  0 10 06 23 05 17 10 18 30 15 26 24
  20566005.248   -29471996.505 9 -22949562.86748  20566005.421    20566013.5274
  21047059.961   -20917356.900 9 -16271986.47048  21047059.784    21047068.8264
  23413884.270    -7627580.865 8  -5679172.91046  23413884.015    23413896.7684
  22357028.636   -20674460.971 8 -16087256.21447  22357028.462    22357039.2334
  21519348.992   -20225943.280 9 -15429573.67447  21519348.525    21519357.3514
  24160726.804    -7442460.318 8  -4770972.77145  24160726.738    24160742.7884
  21441064.278   -20227012.777 9 -15744667.83647  21441064.860    21441073.6254
  23392235.401   -14442957.191 8 -10951546.50246  23392235.173    23392248.4714
  23946556.938    -8776792.245 8  -6811551.71945  23946557.283    23946570.4844
  24766171.703     4974980.493 8   3902843.41945  24766171.846    24766183.7694
 02  1 25  1 58 30.0000000  0 10 06 23 05 17 10 18 30 15 26 24
  20559452.680   -29506430.420 9 -22976394.43148  20559452.827    20559460.9044
  21037196.471   -20969189.523 9 -16312375.41548  21037196.292    21037205.2914
  23433794.747    -7522950.588 8  -5597642.90246  23433794.512    23433807.3114
  22346758.571   -20728430.206 8 -16129310.07647  22346758.411    22346769.1454
  21531953.731   -20159704.634 9 -15377959.10447  21531953.269    21531962.1184
  24139898.855    -7551910.163 8  -4856257.99045  24139898.816    24139914.6854
  21455255.919   -20152435.348 9 -15686555.60047  21455256.505    21455265.3014
  23378073.946   -14517375.181 8 -11009534.39546  23378073.757    23378087.0304
  23929411.901    -8866889.584 8  -6881757.19845  23929412.253    23929425.3124
  24780692.328     5051286.925 7   3962303.00245  24780692.444    24780704.4554
 02  1 25  1 59  0.0000000  0 10 06 23 05 17 10 18 30 15 26 24
  20552959.285   -29540553.359 9 -23002983.67648  20552959.432    20552967.4944
  21027423.697   -21020545.209 9 -16352392.72648  21027423.528    21027432.5114
  23453721.872    -7418233.265 8  -5516045.07846  23453721.666    23453734.3814
  22336523.983   -20782213.027 8 -16171218.68247  22336523.806    22336534.5364
  21544644.241   -20093015.271 9 -15325993.32347  21544643.764    21544652.6594
  24119092.390    -7661247.056 8  -4941455.20845  24119092.361    24119108.0824
  21469523.905   -20077456.848 9 -15628130.83747  21469524.477    21469533.2554
  23363943.735   -14591629.719 8 -11067394.92746  23363943.469    23363956.7194
  23912281.504    -8956909.306 8  -6951902.22545  23912281.892    23912294.8904
  24795203.374     5127542.967 7   4021723.31145  24795203.369    24795215.3884
 02  1 25  1 59 30.0000000  0 10 06 23 05 17 10 18 30 15 26 24
  20546525.256   -29574364.117 9 -23029329.65948  20546525.407    20546533.4574
  21017741.875   -21071423.078 9 -16392037.71548  21017741.710    21017750.6824
  23473664.983    -7313432.123 8  -5434381.92146  23473664.750    23473677.4354
  22326324.705   -20835810.166 8 -16212982.60047  22326324.537    22326335.2504
  21557419.950   -20025878.074 9 -15273678.58547  21557419.509    21557428.3774
  24098307.710    -7770469.112 8  -5026562.95245  24098307.700    24098323.2554
  21483867.566   -20002080.424 9 -15569395.99147  21483868.128    21483876.9284
  23349844.497   -14665721.153 8 -11125128.35246  23349844.220    23349857.4194
  23895166.487    -9046848.491 8  -7021984.49745  23895166.930    23895179.8914
  24809704.650     5203748.167 7   4081104.00445  24809704.689    24809716.6964
 02  1 25  2  0  0.0000000  0 10 06 23 05 17 10 18 30 15 26 24
  20540150.848   -29607861.486 9 -23055431.44248  20540151.009    20540159.0464
  21008151.018   -21121822.894 9 -16431310.20548  21008150.860    21008159.7844
  23493623.388    -7208550.479 8  -5352656.03546  23493623.193    23493635.7724
  22316160.581   -20889222.626 8 -16254602.61347  22316160.404    22316171.1014
  21570280.245   -19958296.598 9 -15221017.65547  21570279.776    21570288.6524
  24077545.203    -7879574.940 7  -5111580.12645  24077545.173    24077560.7234
  21498286.305   -19926309.609 9 -15510353.83247  21498286.886    21498295.7284
  23335776.137   -14739650.282 8 -11182735.32346  23335775.859    23335789.0214
  23878067.310    -9136704.656 8  -7092002.09945  23878067.678    23878080.5494
  24824195.844     5279901.177 7   4140443.99345  24824195.917    24824208.2224
 02  1 25  2  0 30.0000000  0 10 06 23 05 17 10 18 30 15 26 24
  20533836.535   -29641043.295 9 -23081287.33248  20533836.691    20533844.7164
  20998651.476   -21171742.970 9 -16470208.86848  20998651.306    20998660.2234
  23513596.553    -7103590.463 8  -5270869.08046  23513596.396    23513609.0204
  22306031.662   -20942449.968 8 -16296078.37547  22306031.506    22306042.1864
  21583224.718   -19890272.628 9 -15168011.93147  21583224.255    21583233.0944
  24056805.259    -7988561.584 7  -5196504.43745  24056805.311    24056820.8804
  21512779.711   -19850146.365 9 -15451005.88647  21512780.302    21512789.1394
  23321738.763   -14813416.508 8 -11240215.35246  23321738.487    23321751.6044
  23860984.610    -9226473.771 8  -7161951.84945  23860984.944    23860997.7844
  24838677.316     5356002.409 7   4199743.63345  24838677.692    24838689.6024
 02  1 25  2  1  0.0000000  0 10 06 23 05 17 10 18 30 15 26 24
  20527582.382   -29673908.853 9 -23106896.79448  20527582.540    20527590.5354
  20989243.224   -21221183.131 9 -16508733.56748  20989243.060    20989251.9914
  23533583.951    -6998555.709 8  -5189023.89145  23533583.809    23533596.4174
  22295937.740   -20995493.443 8 -16337410.86847  22295937.594    22295948.2334
  21596252.737   -19821809.784 9 -15114664.21647  21596252.266    21596261.0564
  24036088.452    -8097427.959 8  -5281335.05445  24036088.473    24036103.9474
  21527347.124   -19773594.303 9 -15391354.96247  21527347.707    21527356.5214
  23307732.229   -14887020.620 8 -11297569.08146  23307731.953    23307745.0664
  23843918.943    -9316153.473 8  -7231831.92945  23843919.309    23843932.0704
  24853148.751     5432051.113 7   4259002.38745  24853148.763    24853161.0084
 02  1 25  2  1 30.0000000  0 10 06 23 05 17 10 18 30 15 26 24
  20521389.043   -29706454.791 9 -23132257.19948  20521389.208    20521397.1954
  20979926.842   -21270140.834 9 -16546882.33048  20979926.679    20979935.5444
  23553585.353    -6893447.164 8  -5107121.21745  23553585.213    23553597.8724
  22285879.024   -21048351.741 8 -16378599.06247  22285878.897    22285889.5094
  21609364.059   -19752909.312 9 -15060975.50847  21609363.579    21609372.3894
  24015395.314    -8206169.893 8  -5366068.70945  24015395.298    24015410.7524
  21541988.239   -19696654.705 9 -15331402.06447  21541988.831    21541997.6774
  23293756.945   -14960460.898 8 -11354795.14846  23293756.718    23293769.6904
  23826871.258    -9405738.679 7  -7301638.38045  23826871.491    23826884.3684
  24867610.363     5508048.003 7   4318220.77745  24867610.651    24867622.7694
 02  1 25  2  2  0.0000000  0  9 06 23 05 17 10 18 30 15 26
  20515256.561   -29738680.863 9 -23157368.35948  20515256.713    20515264.6924
  20970702.177   -21318616.365 9 -16584655.37548  20970702.005    20970710.8474
  23573600.070    -6788269.124 8  -5025164.36845  23573599.946    23573612.6724
  22275855.237   -21101026.626 8 -16419644.34147  22275855.097    22275865.7184
  21622557.892   -19683574.955 9 -15006948.71247  21622557.415    21622566.2194
  23994725.932    -8314786.776 8  -5450704.94645  23994726.028    23994741.2644
  21556702.332   -19619331.709 9 -15271150.41747  21556702.935    21556711.7994
  23279812.570   -15033738.860 8 -11411894.73846  23279812.282    23279825.2084
  23809841.874    -9495227.553 7  -7371369.74045  23809842.170    23809855.0394
 02  1 25  2  2 30.0000000  0  9 06 23 05 17 10 18 30 15 26
  20509185.386   -29770584.848 9 -23182228.54548  20509185.536    20509193.4994
  20961569.513   -21366608.240 9 -16622051.54248  20961569.358    20961578.2164
  23593627.761    -6683023.736 8  -4943155.05445  23593627.591    23593640.3024
  22265866.373   -21153517.964 8 -16460546.59647  22265866.261    22265876.8604
  21635833.854   -19613809.168 9 -14952585.72947  21635833.374    21635842.1874
  23974080.943    -8423275.781 8  -5535241.51745  23974080.939    23974096.1124
  21571488.959   -19541627.506 9 -15210601.72647  21571489.578    21571498.4344
  23265899.011   -15106854.012 8 -11468867.45146  23265898.774    23265911.6524
  23792831.462    -9584616.291 7  -7441023.09945  23792831.756    23792844.7164
 02  1 25  2  3  0.0000000  0  9 06 23 05 17 10 18 30 15 26
  20503175.956   -29802164.305 9 -23206835.84948  20503176.117    20503184.0524
  20952529.302   -21414114.607 9 -16659069.39648  20952529.136    20952537.9284
  23613667.923    -6577713.082 8  -4861094.88246  23613667.728    23613680.4144
  22255912.657   -21205825.069 8 -16501305.29347  22255912.492    22255923.0594
  21649191.549   -19543613.799 9 -14897888.01647  21649191.087    21649199.9494
  23953460.834    -8531634.106 8  -5619676.27545  23953460.785    23953475.8804
  21586347.745   -19463544.142 9 -15149757.58247  21586348.342    21586357.2204
  23252016.735   -15179805.511 8 -11525712.65646  23252016.524    23252029.2864
  23775841.040    -9673900.627 7  -7510595.10545  23775841.408    23775854.2444
 02  1 25  2  3 30.0000000  0  9 06 23 05 17 10 18 30 15 26
  20497228.703   -29833417.093 9 -23231188.60448  20497228.854    20497236.7834
  20943581.702   -21461134.048 9 -16695707.82548  20943581.530    20943590.3184
  23633719.973    -6472339.459 8  -4778985.62846  23633719.766    23633732.4124
  22245993.963   -21257947.714 8 -16541920.24847  22245993.819    22246004.3844
  21662630.608   -19472990.907 9 -14842857.16647  21662630.143    21662638.9864
  23932866.049    -8639858.797 8  -5704006.86845  23932865.983    23932880.9734
  21601278.243   -19385083.762 9 -15088619.66747  21601278.866    21601287.7754
  23238165.671   -15252592.850 8 -11582429.95146  23238165.443    23238178.1134
  23758871.137    -9763076.759 7  -7580082.78145  23758871.536    23758884.3924
 02  1 25  2  4  0.0000000  0  9 06 23 05 17 10 18 30 15 26
  20491343.960   -29864341.361 9 -23255285.37048  20491344.118    20491352.0374
  20934726.996   -21507665.554 9 -16731966.05048  20934726.820    20934735.6064
  23653783.493    -6366905.218 8  -4696829.16046  23653783.316    23653795.9484
  22236110.325   -21309886.203 8 -16582391.70547  22236110.182    22236120.7104
  21676150.591   -19401942.973 9 -14787495.11647  21676150.123    21676158.8894
  23912297.073    -8747947.737 8  -5788231.67945  23912297.151    23912311.9374
  21616280.021   -19306249.076 9 -15027190.08447  21616280.640    21616289.5814
  23224345.828   -15325215.782 8 -11639019.12346  23224345.591    23224358.2034
  23741922.613    -9852141.099 8  -7649483.35545  23741923.019    23741935.7114
 02  1 25  2  4 30.0000000  0  9 06 23 05 17 10 18 30 15 26
  20485521.788   -29894936.705 9 -23279125.83548  20485521.948    20485529.8574
  20925965.051   -21553709.451 9 -16767844.32148  20925964.876    20925973.6194
  23673857.774    -6261414.352 8  -4614628.56646  23673857.650    23673870.2694
  22226261.451   -21361642.086 8 -16622720.86747  22226261.320    22226271.7804
  21689750.614   -19330474.223 9 -14731805.15947  21689750.138    21689758.9064
  23891754.350    -8855899.837 8  -5872349.85245  23891754.413    23891768.9114
  21631352.244   -19227044.187 9 -14965472.03547  21631352.846    21631361.8034
  23210557.061   -15397675.488 8 -11695481.12346  23210556.776    23210569.3654
  23724995.785    -9941091.602 8  -7718795.23545  23724996.118    23725008.8514
 02  1 25  2  5  0.0000000  0  9 06 23 05 17 10 18 30 15 26
  20479762.570   -29925201.253 9 -23302708.53548  20479762.725    20479770.6274
  20917296.180   -21599264.354 9 -16803341.55848  20917296.017    20917304.7204
  23693942.386    -6155869.382 8  -4532385.80446  23693942.255    23693954.9844
  22216447.309   -21413215.494 8 -16662907.83747  22216447.174    22216457.5694
  21703430.253   -19258587.097 9 -14675789.19947  21703429.788    21703438.5844
  23871238.003    -8963712.555 8  -5956359.39545  23871238.067    23871252.5334
  21646494.439   -19147471.626 9 -14903467.48047  21646495.033    21646504.0164
  23196799.401   -15469971.633 8 -11751815.64646  23196799.170    23196811.7704
  23708091.348   -10029924.578 7  -7788015.53545  23708091.670    23708104.3504
 02  1 25  2  5 30.0000000  0  9 06 23 05 17 10 18 30 15 26
  20474066.890   -29955132.122 9 -23326031.22948  20474067.038    20474074.9254
  20908720.677   -21644328.497 9 -16838456.38948  20908720.514    20908729.2124
  23714037.024    -6050271.902 8  -4450102.13946  23714036.884    23714049.6764
  22206668.022   -21464605.495 8 -16702951.89447  22206667.884    22206678.2754
  21717189.255   -19186282.861 9 -14619448.22547  21717188.783    21717197.5574
  23850748.822    -9071382.727 8  -6040257.84545  23850748.871    23850763.3324
  21661706.278   -19067533.087 9 -14841177.74847  21661706.882    21661715.8854
  23183073.084   -15542103.325 8 -11808022.04646  23183072.863    23183085.5194
  23691209.908   -10118635.589 8  -7857140.79745  23691210.326    23691222.9214
 02  1 25  2  6  0.0000000  0  9 06 23 05 17 10 18 30 15 26
  20468434.703   -29984729.052 9 -23349093.71048  20468434.847    20468442.7254
  20900238.439   -21688902.545 9 -16873189.32948  20900238.286    20900246.9414
  23734140.824    -5944625.910 8  -4367780.67146  23734140.656    23734153.4904
  22196923.316   -21515813.966 8 -16742854.49547  22196923.170    22196933.5584
  21731026.857   -19113565.785 9 -14562785.54547  21731026.393    21731035.1084
  23830286.916    -9178909.463 8  -6124044.50445  23830286.876    23830301.3484
  21676986.933   -18987232.950 9 -14778606.25547  21676987.534    21676996.5234
  23169377.826   -15614071.978 8 -11864101.41346  23169377.624    23169390.2244
  23674352.122   -10207222.799 8  -7926169.58245  23674352.507    23674365.1624
 02  1 25  2  6 30.0000000  0  9 06 23 05 17 10 18 30 15 26
  20462866.476   -30013990.083 9 -23371894.44948  20462866.632    20462874.5024
  20891849.745   -21732985.221 9 -16907539.37648  20891849.564    20891858.1894
  23754253.401    -5838933.890 8  -4285423.33445  23754253.173    23754266.1054
  22187213.184   -21566840.869 8 -16782615.60947  22187213.012    22187223.3634
  21744942.575   -19040438.302 9 -14505803.07347  21744942.090    21744950.8334
  23809852.690    -9286290.282 8  -6207717.46845  23809852.703    23809867.1134
  21692335.969   -18906573.628 9 -14715754.86747  21692336.528    21692345.5204
  23155713.782   -15685877.069 8 -11920053.33946  23155713.553    23155726.0984
  23657518.796   -10295682.410 8  -7995098.96345  23657519.220    23657531.6324
 02  1 25  2  7  0.0000000  0  9 06 23 05 17 10 18 30 15 26
  20457362.625   -30042912.774 9 -23394431.55548  20457362.783    20457370.6224
  20883554.859   -21776574.777 9 -16941505.17948  20883554.686    20883563.2974
  23774374.408    -5733197.354 8  -4203031.32645  23774374.134    23774387.0634
  22177537.713   -21617685.508 8 -16822234.70147  22177537.530    22177547.8794
  21758935.950   -18966902.587 9 -14448502.49847  21758935.482    21758944.1884
  23789446.761    -9393522.046 8  -6291274.26045  23789446.819    23789461.2334
  21707752.911   -18825557.098 9 -14652625.14747  21707753.465    21707762.4504
  23142081.020   -15757517.716 8 -11975877.12746  23142080.771    23142093.2004
  23640710.570   -10384010.051 8  -8063925.50245  23640711.017    23640723.2654
 02  1 25  2  7 30.0000000  0  9 06 23 05 17 10 18 30 15 26
  20451923.321   -30071496.156 9 -23416704.26048  20451923.488    20451931.3224
  20875353.834   -21819671.071 9 -16975086.62848  20875353.663    20875362.2294
  23794503.164    -5627419.799 8  -4120607.33745  23794502.898    23794515.7774
  22167896.680   -21668349.050 8 -16861712.67047  22167896.475    22167906.8334
  21773006.466   -18892961.506 9 -14390886.05047  21773005.972    21773014.6894
  23769069.574    -9500603.481 8  -6374713.94045  23769069.566    23769083.8744
  21723237.162   -18744187.012 9 -14589219.92747  21723237.735    21723246.7304
  23128479.427   -15828994.687 8 -12031573.39346  23128479.147    23128491.5114
  23623927.870   -10472203.032 8  -8132647.11745  23623928.256    23623940.4974
 02  1 25  2  8  0.0000000  0  9 06 23 05 17 10 18 30 15 26
  20446548.822   -30099739.073 9 -23438711.66548  20446548.989    20446556.8154
  20867246.765   -21862273.653 9 -17008283.36148  20867246.616    20867255.1674
  23814639.164    -5521604.319 8  -4038153.79445  23814639.008    23814651.9124
  22158290.030   -21718831.959 8 -16901049.88647  22158289.845    22158300.1694
  21787153.358   -18818618.484 9 -14332956.41047  21787152.918    21787161.6514
  23748721.328    -9607532.676 8  -6458034.97345  23748721.353    23748735.4684
  21738788.120   -18662466.372 9 -14525541.54747  21738788.690    21738797.6544
  23114908.823   -15900308.372 8 -12087142.40646  23114908.552    23114920.9314
  23607171.289   -10560258.344 8  -8201261.43545  23607171.696    23607183.9454
 02  1 25  2  8 30.0000000  0  9 06 23 05 17 10 18 30 15 26
  20441239.629   -30127638.841 9 -23460451.68748  20441239.804    20441247.5964
  20859233.948   -21904380.861 9 -17041094.08948  20859233.793    20859242.3474
  23834782.152    -5415752.586 8  -3955671.99445  23834782.014    23834794.9454
  22148717.831   -21769133.681 8 -16940245.91647  22148717.652    22148727.9454
  21801376.523   -18743875.370 9 -14274715.00347  21801376.061    21801384.7564
  23728402.733    -9714306.328 8  -6541234.78045  23728402.739    23728416.6734
  21754405.472   -18580397.242 9 -14461591.61547  21754406.018    21754414.9364
  23101369.452   -15971457.953 8 -12142583.56146  23101369.176    23101381.5364
  23590441.805   -10648171.579 8  -8269765.04745  23590442.237    23590454.3874
 02  1 25  2  9  0.0000000  0  9 06 23 05 17 10 18 30 15 26
  20435995.967   -30155194.348 9 -23481923.45248  20435996.134    20436003.9174
  20851315.440   -21945992.616 9 -17073518.75448  20851315.275    20851323.7814
  23854931.369    -5309867.999 8  -3873164.60445  23854931.225    23854944.1394
  22139179.893   -21819255.299 8 -16979301.60247  22139179.735    22139190.0474
  21815675.181   -18668735.344 8 -14216164.31247  21815674.693    21815683.4204
  23708114.014    -9820922.872 8  -6624312.17245  23708114.045    23708127.7794
  21770088.335   -18497983.071 9 -14397372.83147  21770088.881    21770097.8484
  23087861.176   -16042443.988 8 -12197897.27646  23087860.906    23087873.2634
  23573739.786   -10735940.126 8  -8338155.93045  23573740.190    23573752.2964
 02  1 25  2  9 30.0000000  0  9 06 23 05 17 10 18 30 15 26
  20430818.221   -30182403.291 9 -23503125.17248  20430818.399    20430826.1504
  20843491.507   -21987107.216 9 -17105556.02848  20843491.351    20843499.8234
  23875086.577    -5203952.395 8  -3790633.04945  23875086.341    23875099.2344
  22129676.322   -21869196.258 8 -17018216.51947  22129676.164    22129686.4424
  21830048.947   -18593200.503 9 -14157305.97547  21830048.502    21830057.1674
  23687855.670    -9927379.536 8  -6707264.97945  23687855.650    23687869.2734
  21785836.479   -18415226.046 9 -14332886.89547  21785837.059    21785846.0504
  23074384.177   -16113265.895 8 -12253083.11446  23074383.887    23074396.2614
  23557066.132   -10823559.706 8  -8406430.73645  23557066.612    23557078.5414
 02  1 25  2 10  0.0000000  0  9 06 23 05 17 10 18 30 15 26
  20425706.636   -30209264.681 9 -23524056.06648  20425706.807    20425714.5084
  20835762.189   -22027724.896 9 -17137206.08948  20835762.022    20835770.4904
  23895247.103    -5098009.128 8  -3708079.91545  23895246.815    23895259.6374
  22120206.990   -21918957.615 8 -17056991.48347  22120206.830    22120217.0624
  21844497.248   -18517274.298 9 -14098142.67247  21844496.769    21844505.4524
  23667627.974   -10033674.806 8  -6790092.02645  23667627.943    23667641.5384
  21801649.250   -18332129.630 9 -14268136.49147  21801649.832    21801658.8264
  23060938.243   -16183924.130 8 -12308141.40546  23060937.985    23060950.3604
  23540421.424   -10911027.624 8  -8474587.35145  23540421.836    23540433.8154
 02  1 25  2 10 30.0000000  0  9 06 23 05 17 10 18 30 15 26
  20420661.666   -30235776.014 9 -23544714.18748  20420661.820    20420669.5034
  20828127.665   -22067844.264 9 -17168467.85748  20828127.488    20828135.9214
  23915412.478    -4992040.048 8  -3625506.67245  23915412.264    23915425.0184
  22110771.872   -21968538.942 8 -17095626.16647  22110771.691    22110781.9134
  21859019.637   -18440958.653 8 -14038675.91047  21859019.146    21859027.8444
  23647431.624   -10139805.606 8  -6872790.92345  23647431.564    23647445.1614
  21817526.194   -18248695.988 9 -14203123.31547  21817526.750    21817535.7664
  23047523.687   -16254417.910 8 -12363071.53846  23047523.401    23047535.8244
  23523806.354   -10998339.508 8  -8542622.38545  23523806.868    23523818.6454
 02  1 25  2 11  0.0000000  0  9 06 23 05 17 10 18 30 15 26
  20415683.437   -30261936.671 9 -23565099.05648  20415683.587    20415691.2474
  20820587.922   -22107465.584 9 -17199341.53648  20820587.757    20820596.1644
  23935582.027    -4886048.900 8  -3542916.24545  23935581.752    23935594.4924
  22101370.727   -22017941.558 8 -17134121.58947  22101370.560    22101380.7674
  21873615.372   -18364257.350 8 -13978908.63447  21873614.901    21873623.5754
  23627266.813   -10245770.670 8  -6955360.69145  23627266.705    23627280.2084
  21833466.515   -18164928.968 9 -14137850.36447  21833467.075    21833476.1164
  23034140.128   -16324748.352 8 -12417874.40546  23034139.867    23034152.3144
  23507221.461   -11085493.034 8  -8610534.02445  23507221.950    23507233.7254
 02  1 25  2 11 30.0000000  0  9 06 23 05 17 10 18 30 15 26
  20410772.512   -30287743.402 9 -23585208.14148  20410772.666    20410780.3454
  20813143.352   -22146586.670 9 -17229825.42248  20813143.181    20813151.5884
  23955755.487    -4780036.788 8  -3460309.47145  23955755.216    23955767.9994
  22092003.907   -22067164.087 9 -17172476.69247  22092003.784    22092013.9074
  21888284.243   -18287171.835 8 -13918841.97447  21888283.776    21888292.4524
  23607134.214   -10351566.409 8  -7037798.50345  23607134.172    23607147.5564
  21849470.003   -18080830.128 9 -14072318.85147  21849470.596    21849479.6714
  23020787.919   -16394914.064 8 -12472548.89346  23020787.681    23020800.1754
  23490667.553   -11172483.343 8  -8678318.48245  23490668.049    23490679.8364
 02  1 25  2 12  0.0000000  0  9 06 23 05 17 10 18 30 15 26
  20405928.937   -30313196.369 9 -23605041.56348  20405929.089    20405936.7524
  20805793.800   -22185208.481 9 -17259920.26848  20805793.639    20805801.9874
  23975932.077    -4674008.138 8  -3377689.81945  23975931.807    23975944.6494
  22082670.968   -22116208.754 8 -17210693.20147  22082670.825    22082680.8714
  21903025.383   -18209706.391 8 -13858479.26947  21903024.931    21903033.6074
  23587033.835   -10457192.559 8  -7120104.16945  23587033.787    23587047.1934
  21865535.827   -17996403.950 9 -14006532.27947  21865536.424    21865545.5314
  23007466.818   -16464916.591 8 -12527096.22646  23007466.543    23007479.0494
  23474145.064   -11259308.592 8  -8745974.32245  23474145.577    23474157.3944
 02  1 25  2 12 30.0000000  0  9 06 23 05 17 10 18 30 15 26
  20401153.332   -30338292.036 9 -23624596.56948  20401153.485    20401161.1284
  20798539.768   -22223328.464 9 -17289624.07448  20798539.591    20798547.9174
  23996111.765    -4567963.439 8  -3295057.66945  23996111.438    23996124.3914
  22073372.107   -22165073.938 8 -17248769.84747  22073371.973    22073382.0264
  21917838.664   -18131862.087 9 -13797821.33547  21917838.196    21917846.8564
  23566966.528   -10562644.947 8  -7202274.43546  23566966.519    23566979.9264
  21881663.730   -17911651.383 9 -13940491.37347  21881664.329    21881673.4814
  22994177.098   -16534754.041 8 -12581514.92246  22994176.783    22994189.2984
  23457655.045   -11345963.444 8  -8813497.40345  23457655.514    23457667.3014
 02  1 25  2 13  0.0000000  0  9 06 23 05 17 10 18 30 15 26
  20396445.759   -30363030.256 9 -23643873.04148  20396445.914    20396453.5464
  20791381.002   -22260947.510 9 -17318937.54048  20791380.837    20791389.1534
  24016293.696    -4461906.850 8  -3212416.26145  24016293.426    24016306.3984
  22064107.153   -22213761.275 8 -17286707.91647  22064107.007    22064117.0474
  21932723.215   -18053642.883 8 -13736871.27947  21932722.772    21932731.4684
  23546932.487   -10667922.755 8  -7284308.69445  23546932.499    23546945.8414
  21897852.919   -17826576.793 9 -13874199.53847  21897853.511    21897862.7044
  22980918.481   -16604427.899 8 -12635806.13846  22980918.161    22980930.6764
  23441197.892   -11432445.913 8  -8880886.15145  23441198.296    23441209.9994
 02  1 25  2 13 30.0000000  0  9 06 23 05 17 10 18 30 15 26
  20391806.538   -30387409.265 9 -23662869.60948  20391806.706    20391814.2974
  20784317.772   -22298064.836 9 -17347860.05448  20784317.596    20784325.8784
  24036477.445    -4355840.832 8  -3129767.51145  24036477.193    24036490.2114
  22054875.977   -22262270.870 8 -17324507.48047  22054875.837    22054885.8654
  21947678.684   -17975051.234 9 -13675631.01047  21947678.248    21947686.9164
  23526932.181   -10773023.595 8  -7366205.07145  23526932.234    23526945.3614
  21914102.839   -17741182.979 9 -13807658.95947  21914103.432    21914112.6134
  22967691.041   -16673938.235 8 -12689969.92646  22967690.729    22967703.1164
  23424774.285   -11518752.289 8  -8948137.68546  23424774.666    23424786.3334
 02  1 25  2 14  0.0000000  0  9 06 23 05 17 10 18 30 15 26
  20387236.186   -30411426.619 9 -23681584.36748  20387236.330    20387243.8954
  20777350.260   -22334679.115 9 -17376390.58248  20777350.080    20777358.3424
  24056662.638    -4249767.155 7  -3047112.77845  24056662.339    24056675.5034
  22045678.691   -22310602.387 8 -17362168.28847  22045678.564    22045688.5634
  21962704.704   -17896089.365 8 -13614102.23847  21962704.207    21962712.8614
  23506966.182   -10877944.477 8  -7447961.24845  23506966.117    23506979.1134
  21930413.105   -17655471.946 8 -13740871.19447  21930413.721    21930422.9254
  22954494.942   -16743283.897 8 -12744005.38546  22954494.624    22954506.8724
  23408384.917   -11604878.356 8  -9015248.71246  23408385.272    23408396.9724
 02  1 25  2 14 30.0000000  0  9 06 23 05 17 10 18 30 15 26
  20382734.658   -30435081.955 9 -23700017.04148  20382734.816    20382742.3724
  20770478.347   -22370791.034 9 -17404529.66148  20770478.157    20770486.4374
  24076848.551    -4143689.607 8  -2964455.04245  24076848.275    24076861.5194
  22036515.064   -22358757.326 8 -17399691.50347  22036514.918    22036524.8454
  21977800.245   -17816761.274 8 -13552288.12847  21977799.756    21977808.5064
  23487034.376   -10982684.747 8  -7529576.68445  23487034.406    23487047.2494
  21946782.957   -17569448.023 9 -13673839.61847  21946783.568    21946792.7704
  22941329.938   -16812466.361 8 -12797913.68246  22941329.658    22941341.7294
  23392030.231   -11690821.969 8  -9082217.56746  23392030.564    23392042.2554
 02  1 25  2 15  0.0000000  0  9 06 23 05 17 10 18 30 15 26
  20378302.600   -30458372.177 9 -23718165.19948  20378302.765    20378310.3154
  20763702.331   -22406398.709 9 -17432275.82248  20763702.148    20763710.4024
  24097035.021    -4037609.490 8  -2881795.29745  24097034.750    24097047.9924
  22027385.192   -22406734.764 8 -17437076.40047  22027385.049    22027394.9254
  21992965.265   -17737068.467 8 -13490189.79547  21992964.797    21992973.5104
  23467137.684   -11087240.772 8  -7611048.54445  23467137.699    23467150.5184
  21963212.092   -17483112.850 8 -13606565.50847  21963212.694    21963221.8854
  22928196.197   -16881484.231 8 -12851693.68546  22928195.841    22928207.9154
  23375711.150   -11776578.317 8  -9149040.49945  23375711.532    23375723.1434
 02  1 25  2 15 30.0000000  0  9 06 23 05 17 10 18 30 15 26
  20373940.197   -30481296.440 9 -23736028.20148  20373940.375    20373947.9044
  20757022.273   -22441502.254 9 -17459629.15148  20757022.093    20757030.3504
  24117221.351    -3931529.945 8  -2799135.99045  24117221.085    24117234.2734
  22018288.939   -22454535.402 8 -17474323.53947  22018288.786    22018298.6314
  22008199.073   -17657014.126 8 -13427809.76447  22008198.562    22008207.2784
  23447276.446   -11191611.125 8  -7692375.73146  23447276.439    23447289.1214
  21979699.740   -17396469.810 8 -13539051.51047  21979700.330    21979709.5554
  22915093.597   -16950338.157 8 -12905345.94746  22915093.251    22915105.3364
  23359428.240   -11862144.431 8  -9215715.21445  23359428.605    23359440.1944
 02  1 25  2 16  0.0000000  0  9 06 23 05 17 10 18 30 15 26
  20369647.668   -30503853.505 9 -23753605.07148  20369647.836    20369655.3774
  20750438.185   -22476101.523 9 -17486589.53848  20750438.011    20750446.2704
  24137406.919    -3825454.013 7  -2716479.48445  24137406.731    24137419.8724
  22009226.112   -22502160.047 9 -17511433.52847  22009225.980    22009235.8504
  22023501.090   -17576601.545 8 -13365150.57947  22023500.588    22023509.2764
  23427450.985   -11295793.730 8  -7773556.63746  23427450.924    23427463.5114
  21996245.348   -17309522.345 8 -13471300.28947  21996245.936    21996255.1894
  22902022.159   -17019028.440 8 -12958870.67146  22902021.841    22902033.8854
  23343182.131   -11947517.343 8  -9282239.38245  23343182.512    23343194.1174
 02  1 25  2 16 30.0000000  0  9 06 23 05 17 10 18 30 15 26
  20365425.549   -30526040.617 9 -23770893.67248  20365425.719    20365433.2664
  20743950.389   -22510194.817 9 -17513155.66148  20743950.212    20743958.4284
  24157591.656    -3719383.100 8  -2633826.90545  24157591.437    24157604.6124
  22000197.057   -22549607.865 9 -17548405.74047  22000196.921    22000206.7364
  22038870.890   -17495832.517 8 -13302213.65547  22038870.388    22038879.0634
  23407661.882   -11399785.261 8  -7854588.67846  23407661.813    23407674.2544
  22012848.596   -17222272.040 8 -13403313.09547  22012849.172    22012858.4004
  22888982.095   -17087554.055 8 -13012267.09646  22888981.748    22888993.7074
  23326973.714   -12032692.423 8  -9348609.39145  23326974.132    23326985.6404
 02  1 25  2 17  0.0000000  0  9 06 23 05 17 10 18 30 15 26
  20361274.072   -30547856.441 9 -23787892.95548  20361274.243    20361281.7804
  20737558.859   -22543782.247 9 -17539327.59948  20737558.687    20737566.8844
  24177774.938    -3613320.146 8  -2551180.50745  24177774.694    24177787.6894
  21991201.491   -22596879.567 9 -17585240.72247  21991201.338    21991211.0874
  22054308.001   -17414709.813 8 -13239001.12647  22054307.521    22054316.2204
  23387909.400   -11503583.838 8  -7935470.37346  23387909.348    23387921.6754
  22029508.736   -17134722.348 8 -13335092.60747  22029509.318    22029518.5764
  22875973.249   -17155915.539 8 -13065535.62046  22875972.914    22875984.7714
  23310803.619   -12117666.554 8  -9414822.80545  23310804.046    23310815.4794
 02  1 25  2 17 30.0000000  0  9 06 23 05 17 10 18 30 15 26
  20357193.313   -30569300.811 9 -23804602.79448  20357193.468    20357200.9984
  20731263.442   -22576864.596 9 -17565105.96848  20731263.275    20731271.4314
  24197955.870    -3507269.172 8  -2468543.44745  24197955.634    24197968.5524
  21982239.139   -22643976.718 9 -17621939.68547  21982238.963    21982248.6864
  22069811.595   -17333237.726 8 -13175516.35947  22069811.088    22069819.7934
  23368193.781   -11607188.446 8  -8016200.92746  23368193.757    23368206.0694
  22046225.027   -17046877.487 8 -13266642.12447  22046225.605    22046234.9564
  22862995.471   -17224113.880 8 -13118677.01146  22862995.098    22863006.8844
  23294672.170   -12202437.448 8  -9480877.86545  23294672.544    23294683.8334
 02  1 25  2 18  0.0000000  0  9 06 23 05 17 10 18 30 15 26
  20353183.641   -30590371.470 9 -23821021.42748  20353183.804    20353191.3154
  20725064.320   -22609440.874 9 -17590489.99248  20725064.137    20725072.2834
  24218134.138    -3401231.882 8  -2385917.05045  24218133.945    24218146.8394
  21973310.033   -22690899.030 9 -17658502.41347  21973309.874    21973319.5314
  22085381.312   -17251418.244 8 -13111760.89047  22085380.819    22085389.4914
  23348515.615   -11710596.763 8  -8096778.52746  23348515.540    23348527.7714
  22062997.087   -16958739.806 8 -13197963.46747  22062997.714    22063007.0934
  22850048.775   -17292148.536 8 -13171690.84246  22850048.391    22850060.1834
  23278580.126   -12287001.015 8  -9546771.36045  23278580.484    23278591.7564
 02  1 25  2 18 30.0000000  0  9 06 23 05 17 10 18 30 15 26
  20349245.820   -30611064.711 9 -23837145.97448  20349245.970    20349253.4564
  20718961.943   -22641508.580 9 -17615477.73248  20718961.781    20718969.9324
  24238309.638    -3295208.791 8  -2303301.73645  24238309.448    24238322.4754
  21964414.579   -22737644.635 9 -17694927.45647  21964414.402    21964424.0554
  22101016.930   -17169252.387 8 -13047735.52547  22101016.435    22101025.1004
  23328875.581   -11813804.543 8  -8177199.89546  23328875.546    23328887.7214
  22079824.714   -16870310.242 8 -13129057.36647  22079825.325    22079834.6964
  22837133.530   -17360017.756 8 -13224575.76446  22837133.212    22837145.0214
  23262528.557   -12371351.768 8  -9612499.04245  23262528.917    23262540.2044
 02  1 25  2 19  0.0000000  0  9 06 23 05 17 10 18 30 15 26
  20345379.676   -30631381.240 9 -23852976.98248  20345379.837    20345387.2734
  20712956.034   -22673069.572 9 -17640070.62848  20712955.859    20712963.9964
  24258481.519    -3189204.689 7  -2220701.18945  24258481.313    24258494.3914
  21955552.171   -22784216.071 9 -17731216.78447  21955552.008    21955561.6774
  22116717.509   -17086745.032 8 -12983444.06147  22116717.015    22116725.7174
  23309273.694   -11916811.686 8  -8257464.91046  23309273.666    23309285.8094
  22096706.950   -16781593.887 8 -13059927.79047  22096707.548    22096716.9044
  22824249.354   -17427723.743 8 -13277333.48546  22824249.052    22824260.8864
  23246517.571   -12455488.521 8  -9678059.94745  23246518.001    23246529.3274
 02  1 25  2 19 30.0000000  0  9 06 23 05 17 10 18 30 15 26
  20341585.746   -30651318.396 9 -23868512.37248  20341585.893    20341593.3034
  20707046.775   -22704122.584 9 -17664267.69648  20707046.590    20707054.6804
  24278649.567    -3083221.038 7  -2138116.57645  24278649.490    24278662.5154
  21946723.088   -22830612.802 9 -17767369.97447  21946722.920    21946732.5854
  22132482.811   -17003897.774 8 -12918887.73547  22132482.312    22132490.9584
  23289710.568   -12019615.230 8  -8337571.28146  23289710.480    23289722.6224
  22113643.375   -16692592.627 8 -12990576.21747  22113643.943    22113653.3044
  22811396.423   -17495265.455 8 -13329963.19746  22811396.119    22811407.9614
  23230548.310   -12539406.688 8  -9743450.53445  23230548.727    23230560.1004
 02  1 25  2 20  0.0000000  0  9 06 23 05 17 10 18 30 15 26
  20337864.126   -30670875.464 9 -23883751.58948  20337864.270    20337871.6614
  20701234.122   -22734667.968 9 -17688069.21248  20701233.924    20701242.0174
  24298813.130    -2977261.234 7  -2055550.58645  24298813.032    24298826.1244
  21937927.116   -22876835.699 9 -17803387.71647  21937926.939    21937936.5714
  22148312.037   -16920714.390 8 -12854069.49047  22148311.533    22148320.1394
  23270186.495   -12122213.659 8  -8417517.83846  23270186.456    23270198.5164
  22130633.255   -16603310.357 8 -12921005.66447  22130633.841    22130643.2074
  22798574.572   -17562643.762 8 -13382465.58446  22798574.306    22798586.1694
  23214621.210   -12623103.533 8  -9808668.66245  23214621.593    23214632.9084
 02  1 25  2 20 30.0000000  0  9 06 23 05 17 10 18 30 15 26
  20334215.192   -30690050.626 9 -23898693.21448  20334215.316    20334222.6884
  20695518.143   -22764705.146 9 -17711474.71648  20695517.961    20695526.0414
  24318971.675    -2871327.618 7  -1973004.96845  24318971.436    24318984.6824
  21929164.162   -22922884.816 9 -17839270.03247  21929163.986    21929173.6264
  22164204.754   -16837197.538 8 -12788991.39747  22164204.301    22164212.8374
  23250701.972   -12224604.783 8  -8497302.88046  23250701.915    23250713.8224
  22147676.136   -16513749.659 8 -12851218.15147  22147676.742    22147686.1114
  22785783.885   -17629858.549 8 -13434840.55246  22785783.611    22785795.4644
  23198736.834   -12706575.390 8  -9873711.47945  23198737.288    23198748.4744
 02  1 25  2 21  0.0000000  0  9 06 23 05 17 10 18 30 15 26
  20330639.380   -30708841.317 9 -23913335.26048  20330639.501    20330646.8594
  20689899.142   -22794233.029 9 -17734483.37848  20689898.941    20689906.9814
  24339124.905    -2765421.793 7  -1890481.00345  24339124.615    24339138.0464
  21920434.350   -22968759.653 9 -17875016.55847  21920434.199    21920443.8144
  22180160.616   -16753348.952 8 -12723654.80747  22180160.155    22180168.6854
  23231257.591   -12326785.274 8  -8576923.79846  23231257.446    23231269.1384
  22164771.574   -16423912.739 8 -12781215.41147  22164772.167    22164781.5674
  22773024.512   -17696908.812 8 -13487087.31946  22773024.254    22773036.0154
  23182896.197   -12789817.856 8  -9938575.54946  23182896.665    23182907.7064
 02  1 25  2 21 30.0000000  0  9 06 23 05 17 10 18 30 15 26
  20327136.712   -30727247.801 9 -23927677.92648  20327136.836    20327144.1754
  20684376.731   -22823253.077 9 -17757096.32348  20684376.544    20684384.5694
  24359272.069    -2659547.894 7  -1807981.93745  24359271.777    24359285.2774
  21911737.396   -23014462.219 9 -17910628.84847  21911737.220    21911746.7994
  22196178.738   -16669173.048 8 -12658063.17147  22196178.266    22196186.8184
  23211853.154   -12428755.103 8  -8656380.56246  23211853.009    23211864.5884
  22181918.683   -16333804.232 8 -12711001.03647  22181919.247    22181928.6594
  22760296.156   -17763796.224 8 -13539207.20846  22760295.905    22760307.5314
  23167099.639   -12872829.115 8 -10003259.48146  23167100.080    23167111.0094
 02  1 25  2 22  0.0000000  0  9 06 23 05 17 10 18 30 15 26
  20323707.694   -30745267.207 9 -23941718.96848  20323707.830    20323715.1394
  20678951.323   -22851763.558 9 -17779312.20648  20678951.130    20678959.1234
  24379413.009    -2553707.123 7  -1725508.71045  24379412.723    24379426.2484
  21903073.372   -23059991.435 9 -17946106.05247  21903073.188    21903082.7544
  22212258.867   -16584671.288 8 -12592217.61646  22212258.404    22212266.9374
  23192489.445   -12530510.423 8  -8735670.17046  23192489.345    23192500.8784
  22199117.174   -16243425.724 8 -12640576.27047  22199117.760    22199127.1804
  22747598.985   -17830519.613 8 -13591199.28846  22747598.695    22747610.2674
  23151347.890   -12955604.309 8 -10067759.46146  23151348.365    23151359.1974
 02  1 25  2 22 30.0000000  0  9 06 23 05 17 10 18 30 15 26
  20320352.339   -30762899.409 9 -23955458.29148  20320352.483    20320359.7964
  20673622.615   -22879765.670 9 -17801131.95348  20673622.419    20673630.3974
  24399546.868    -2447903.239 7  -1643064.19545  24399546.535    24399560.1324
  21894442.029   -23105348.854 9 -17981449.38547  21894441.854    21894451.4074
  22228400.255   -16499847.980 8 -12526121.50847  22228399.749    22228408.2534
  23173166.744   -12632050.612 8  -8814792.13946  23173166.671    23173178.1694
  22216366.249   -16152781.489 8 -12569944.44447  22216366.809    22216376.2354
  22734932.748   -17897080.185 8 -13643064.51046  22734932.494    22734944.0544
  23135641.501   -13038141.340 8 -10132073.86446  23135642.018    23135652.6764
 02  1 25  2 23  0.0000000  0  9 06 23 05 17 10 18 30 15 26
  20317071.287   -30780141.132 9 -23968893.35048  20317071.424    20317078.7204
  20668391.003   -22907257.646 9 -17822554.19648  20668390.811    20668398.8064
  24419673.494    -2342137.393 7  -1560649.32245  24419673.262    24419686.7884
  21885843.620   -23150533.376 9 -18016657.99647  21885843.436    21885852.9554
  22244602.612   -16414704.147 8 -12459775.64746  22244602.053    22244610.5504
  23153885.702   -12733371.924 8  -8893743.57146  23153885.659    23153897.0954
  22233665.628   -16061873.068 8 -12499106.77347  22233666.163    22233675.5984
  22722297.846   -17963476.549 8 -13694801.78346  22722297.571    22722309.1004
  23119981.348   -13120435.114 8 -10196198.72346  23119981.840    23119992.5274
 02  1 25  2 23 30.0000000  0  9 06 23 05 17 10 18 30 15 26
  20313864.650   -30796991.814 9 -23982023.70148  20313864.784    20313872.0914
  20663256.335   -22934240.162 9 -17843579.46248  20663256.156    20663264.1134
  24439792.185    -2236412.956 8  -1478266.71945  24439792.054    24439805.5084
  21877277.935   -23195546.213 9 -18051732.82847  21877277.716    21877287.2044
  22260865.209   -16329243.413 8 -12393182.84446  22260864.704    22260873.0904
  23134646.603   -12834473.162 8  -8972523.52246  23134646.548    23134657.8904
  22251014.477   -15970704.320 8 -12428066.24547  22251015.013    22251024.5024
  22709694.017   -18029709.520 8 -13746411.74146  22709693.726    22709705.1584
  23104368.018   -13202483.144 8 -10260132.08446  23104368.509    23104379.1324
 02  1 25  2 24  0.0000000  0  9 06 23 05 17 10 18 30 15 26
  20310732.992   -30813448.489 9 -23994847.03448  20310733.132    20310740.4344
  20658218.940   -22960711.776 9 -17864206.62448  20658218.743    20658226.6654
  24459902.969    -2130730.874 8  -1395917.09345  24459902.801    24459916.2454
  21868745.107   -23240386.120 9 -18086672.91147  21868744.893    21868754.3364
  22277187.945   -16243467.328 8 -12326344.31046  22277187.414    22277195.7204
  23115450.033   -12935350.875 8  -9051129.29446  23115450.007    23115461.2684
  22268412.585   -15879276.904 8 -12356824.15847  22268413.118    22268422.6184
  22697121.540   -18095777.682 8 -13797893.27746  22697121.220    22697132.6494
  23088802.418   -13284280.536 8 -10323870.13446  23088802.875    23088813.4644
 02  1 25  2 24 30.0000000  0  9 06 23 05 17 10 18 30 15 26
  20307676.151   -30829512.251 9 -24007364.20348  20307676.288    20307683.5734
  20653278.270   -22986674.786 9 -17884437.47048  20653278.083    20653285.9674
  24480004.695    -2025096.114 8  -1313604.33345  24480004.496    24480017.8814
  21860244.622   -23285055.799 9 -18121480.34947  21860244.428    21860253.8634
  22293569.503   -16157381.207 8 -12259264.20246  22293568.994    22293577.3174
  23096295.995   -13036005.310 8  -9129561.06546  23096295.927    23096307.1914
  22285858.948   -15787596.102 8 -12285384.61847  22285859.450    22285868.9384
  22684579.928   -18161683.589 8 -13849248.39846  22684579.612    22684591.0224
  23073284.669   -13365826.181 8 -10387412.03546  23073285.108    23073295.6694
 02  1 25  2 25  0.0000000  0  9 06 23 05 17 10 18 30 15 26
  20304694.623   -30845180.051 9 -24019572.82848  20304694.752    20304702.0244
  20648434.778   -23012127.288 9 -17904270.51948  20648434.596    20648442.4234
  24500097.119    -1919509.627 8  -1231329.18445  24500096.956    24500110.3544
  21851776.803   -23329554.113 9 -18156154.24547  21851776.630    21851786.0334
  22310009.895   -16070986.161 8 -12191943.35946  22310009.402    22310017.7034
  23077185.033   -13136432.852 8  -9207816.04146  23077184.988    23077196.2304
  22303353.202   -15695663.377 8 -12213748.78147  22303353.690    22303363.1724
  22672069.575   -18227425.738 8 -13900475.91346  22672069.243    22672080.5774
  23057815.703   -13447115.043 8 -10450753.83046  23057816.176    23057826.6674
 02  1 25  2 25 30.0000000  0  9 06 23 05 17 10 18 30 15 26
  20301788.664   -30860450.893 9 -24031472.13548  20301788.794    20301796.0544
  20643688.294   -23037069.824 9 -17923706.19248  20643688.112    20643695.9264
  24520179.815    -1813974.350 8  -1149093.91445  24520179.763    24520192.9914
  21843341.448   -23373881.875 9 -18190695.24947  21843341.250    21843350.6304
  22326508.455   -15984285.365 8 -12124384.28246  22326507.960    22326516.3114
  23058117.641   -13236631.886 8  -9285892.95546  23058117.558    23058128.7744
  22320894.685   -15603482.254 8 -12141919.38347  22320895.196    22320904.7214
  22659590.195   -18293004.563 8 -13951576.16846  22659589.863    22659601.1744
  23042396.267   -13528144.208 8 -10513893.26246  23042396.681    23042407.2414
 02  1 25  2 26  0.0000000  0  9 06 23 05 17 10 18 30 15 26
  20298958.590   -30875322.655 9 -24043060.47548  20298958.723    20298965.9634
  20639038.993   -23061501.698 9 -17942743.94848  20639038.811    20639046.6324
  24540252.497    -1708491.996 7  -1066899.90345  24540252.367    24540265.6054
  21834938.627   -23418038.729 9 -18225103.08247  21834938.437    21834947.7644
  22343064.832   -15897281.143 8 -12056588.76146  22343064.339    22343072.6894
  23039094.178   -13336599.845 8  -9363789.80546  23039094.078    23039105.1854
  22338482.992   -15511055.194 8 -12069898.34647  22338483.539    22338493.0654
  22647141.961   -18358419.932 8 -14002549.06246  22647141.660    22647152.9394
  23027027.004   -13608909.535 8 -10576827.11346  23027027.391    23027037.9464
 02  1 25  2 26 30.0000000  0 10 06 23 05 17 10 18 22 30 15 26
  20296203.708   -30889799.519 9 -24054341.10048  20296203.840    20296211.0644
  20634485.811   -23085428.574 9 -17961388.20048  20634485.623    20634493.4204
  24560313.403    -1603070.786 7   -984753.53745  24560313.138    24560326.4204
  21826567.075   -23462030.927 9 -18259382.60947  21826566.892    21826576.1534
  22359677.277   -15809982.138 8 -11988563.53846  22359676.758    22359685.1184
  23020113.949   -13436340.436 8  -9441509.49546  23020113.808    23020124.8754
  24285061.476    -4284293.317 7  -3323334.27745  24285061.072    24285075.1534
  22356116.491   -15418390.924 8 -11997692.47347  22356117.022    22356126.5104
  22634723.734   -18423677.519 8 -14053399.01846  22634723.417    22634734.6404
  23011707.481   -13689413.393 8 -10639557.21646  23011707.857    23011718.4394
 02  1 25  2 27  0.0000000  0 10 06 23 05 17 10 18 22 30 15 26
  20293525.583   -30903873.022 9 -24065307.41948  20293525.715    20293532.9024
  20630030.059   -23108843.422 9 -17979633.47048  20630029.878    20630037.6494
  24580363.613    -1497706.344 7   -902651.39745  24580363.250    24580376.6324
  21818228.195   -23505851.579 9 -18293528.45947  21818228.025    21818237.2644
  22376346.572   -15722383.944 8 -11920305.19046  22376346.098    22376354.4784
  23001178.738   -13535844.489 8  -9519044.84146  23001178.586    23001189.5964
  24272595.639    -4349801.843 7  -3374379.71345  24272595.202    24272609.2554
  22373795.822   -15325485.497 8 -11925298.68546  22373796.353    22373805.8474
  22622336.934   -18488770.084 8 -14104120.38446  22622336.623    22622347.7924
  22996439.684   -13769645.317 8 -10702075.43246  22996440.086    22996450.5204
 02  1 25  2 27 30.0000000  0 10 06 23 05 17 10 18 22 30 15 26
  20290924.564   -30917541.264 9 -24075957.94848  20290924.695    20290931.8644
  20625671.907   -23131745.602 9 -17997479.25548  20625671.715    20625679.4474
  24600402.656    -1392400.433 7   -820594.83145  24600402.256    24600415.7084
  21809922.009   -23549500.293 9 -18327540.33047  21809921.826    21809931.0674
  22393072.389   -15634488.917 8 -11851815.54146  22393071.919    22393080.3584
  22982289.082   -13635109.479 8  -9596393.91646  22982288.933    22982299.8314
  24260212.012    -4414877.770 7  -3425088.07645  24260211.535    24260225.5774
  22391520.576   -15232341.207 8 -11852718.77346  22391521.133    22391530.6694
  22609981.675   -18553696.955 8 -14154712.63846  22609981.366    22609992.5164
  22981224.473   -13849601.159 8 -10764378.52346  22981224.869    22981235.1964
 02  1 25  2 28  0.0000000  0 10 06 23 05 17 10 18 22 30 15 26
  20288400.773   -30930803.663 9 -24086292.23848  20288400.922    20288408.0744
  20621411.073   -23154136.025 9 -18014926.27548  20621410.894    20621418.5914
  24620429.912    -1287156.408 7   -738586.56245  24620429.552    24620443.1294
  21801648.373   -23592978.266 9 -18361419.16147  21801648.163    21801657.3764
  22409854.013   -15546300.371 8 -11783097.17646  22409853.551    22409862.0624
  22963445.124   -13734133.963 8  -9673555.57246  22963444.968    22963455.8004
  24247910.956    -4479519.961 7  -3475458.46245  24247910.471    24247924.3234
  22409290.110   -15138961.865 8 -11779955.70646  22409290.701    22409300.2414
  22597657.748   -18618459.269 8 -14205176.67146  22597657.417    22597668.5324
  22966062.297   -13929278.232 8 -10826464.37946  22966062.686    22966072.9664
 02  1 25  2 28 30.0000000  0 10 06 23 05 17 10 18 22 30 15 26
  20285954.111   -30943660.793 9 -24096310.73348  20285954.246    20285961.3984
  20617247.262   -23176016.700 9 -18031976.08748  20617247.077    20617254.7624
  24640444.611    -1181978.538 7   -656629.79245  24640444.355    24640457.8414
  21793406.800   -23636287.799 9 -18395166.74347  21793406.579    21793415.7414
  22426690.591   -15457823.322 8 -11714154.00246  22426690.145    22426698.6744
  22944646.944   -13832918.046 8  -9750529.90746  22944646.812    22944657.5824
  24235692.437    -4543728.573 7  -3525490.97545  24235691.860    24235705.5954
  22427103.363   -15045352.610 8 -11707013.48646  22427103.969    22427113.5414
  22585364.687   -18683059.192 8 -14255514.16446  22585364.338    22585375.4274
  22950953.470   -14008675.175 8 -10888331.95846  22950953.856    22950964.0874
 02  1 25  2 29  0.0000000  0 10 06 23 05 17 10 18 22 30 15 26
  20283585.050   -30956109.995 9 -24106011.35648  20283585.206    20283592.3594
  20613180.653   -23197386.611 9 -18048627.89848  20613180.472    20613188.1514
  24660446.457    -1076868.372 7   -574725.81945  24660446.198    24660459.6024
  21785197.372   -23679428.102 9 -18428782.45547  21785197.152    21785206.2924
  22443581.822   -15369059.338 8 -11644987.24146  22443581.362    22443589.8794
  22925895.187   -13931458.359 8  -9827314.29846  22925895.063    22925905.6944
  24223556.851    -4607500.651 7  -3575183.31645  24223556.261    24223570.1054
  22444960.036   -14951515.277 8 -11633893.53946  22444960.617    22444970.2094
  22573102.670   -18747495.727 8 -14305724.33146  22573102.367    22573113.4654
  22935898.793   -14087787.453 8 -10949977.71146  22935899.148    22935909.4024
 02  1 25  2 29 30.0000000  0 10 06 23 05 17 10 18 22 30 15 26
  20281293.818   -30968150.228 9 -24115393.31248  20281293.972    20281301.1184
  20609211.167   -23218246.126 9 -18064882.00448  20609210.990    20609218.6484
  24680434.976     -971828.613 7   -492876.64545  24680434.680    24680448.0054
  21777020.028   -23722399.826 9 -18462266.80847  21777019.823    21777028.9244
  22460526.948   -15280011.830 8 -11575599.56146  22460526.481    22460535.0174
  22907190.049   -14029753.610 8  -9903907.73646  22907189.893    22907200.4304
  24211504.683    -4670834.646 8  -3624534.28945  24211504.115    24211517.9584
  22462859.516   -14857453.341 8 -11560598.58646  22462860.065    22462869.6694
  22560871.736   -18811769.264 8 -14355807.48346  22560871.454    22560882.5204
  22920898.830   -14166611.966 8 -11011399.22846  22920899.192    22920909.3954
 02  1 25  2 30  0.0000000  0  9 06 23 17 10 18 22 30 15 26
  20279080.747   -30979779.847 9 -24124455.30448  20279080.905    20279088.0214
  20605338.872   -23238595.097 9 -18080738.27948  20605338.691    20605346.3124
  21768874.777   -23765203.053 9 -18495619.86147  21768874.572    21768883.6434
  22477525.573   -15190683.363 8 -11505992.94046  22477525.133    22477533.6254
  22888531.980   -14127801.394 8  -9980308.32146  22888531.820    22888542.3534
  24199536.345    -4733728.456 8  -3673542.27945  24199535.770    24199549.4984
  22480801.186   -14763169.512 8 -11487130.72746  22480801.705    22480811.2904
  22548671.902   -18875879.580 8 -14405763.44646  22548671.600    22548682.6494
  22905954.342   -14245145.043 8 -11072593.65946  22905954.698    22905964.9144
 02  1 25  2 30 30.0000000  0  9 06 23 17 10 18 22 30 15 26
  20276946.287   -30990996.376 9 -24133195.41148  20276946.432    20276953.5554
  20601563.871   -23258432.567 9 -18096195.98648  20601563.684    20601571.2844
  21760761.731   -23807837.149 9 -18528841.12547  21760761.508    21760770.5354
  22494577.424   -15101075.394 8 -11436168.52146  22494576.959    22494585.4794
  22869921.472   -14225598.692 8 -10056513.72446  22869921.353    22869931.8504
  24187652.241    -4796179.195 8  -3722205.01845  24187651.757    24187665.2564
  22498784.687   -14668665.735 8 -11413491.48046  22498785.215    22498794.8564
  22536503.260   -18939825.565 8 -14455591.35646  22536502.994    22536514.0174
  22891066.171   -14323382.283 8 -11133557.57546  22891066.545    22891076.7564
 02  1 25  2 31  0.0000000  0  9 06 23 17 10 18 22 30 15 26
  20274890.522   -31001799.369 9 -24141613.28048  20274890.655    20274897.7544
  20597885.980   -23277759.751 9 -18111256.06048  20597885.801    20597893.3914
  21752680.594   -23850303.190 9 -18561931.44047  21752680.383    21752689.3644
  22511681.667   -15011191.690 8 -11366129.26146  22511681.227    22511689.7204
  22851358.932   -14323144.389 8 -10132523.10246  22851358.854    22851369.2174
  24175852.564    -4858186.134 8  -3770521.92845  24175852.147    24175865.5784
  22516809.211   -14573946.232 8 -11339684.14046  22516809.776    22516819.4544
  22524365.781   -19003608.400 8 -14505292.12246  22524365.466    22524376.4784
  22876234.789   -14401321.159 8 -11194289.01346  22876235.152    22876245.3144
 02  1 25  2 31 30.0000000  0  9 06 23 17 10 18 22 30 15 26
  20272913.421   -31012188.933 9 -24149709.00348  20272913.564    20272920.6354
  20594304.873   -23296578.249 9 -18125919.76048  20594304.690    20594312.2744
  21744631.098   -23892603.073 9 -18594892.28447  21744630.886    21744639.8494
  22528837.648   -14921036.527 8 -11295878.46546  22528837.161    22528845.6394
  22832844.431   -14420437.933 8 -10208336.00246  22832844.361    22832854.5214
  24164137.394    -4919748.577 7  -3818492.47045  24164136.996    24164150.4934
  22534874.025   -14479015.205 8 -11265711.96646  22534874.621    22534884.2734
  22512258.933   -19067229.528 8 -14554866.89046  22512258.638    22512269.6044
  22861460.588   -14478959.531 8 -11254786.28146  22861460.950    22861471.0614
 02  1 25  2 32  0.0000000  0  9 06 23 17 10 18 22 30 15 26
  20271015.526   -31022162.134 9 -24157480.28348  20271015.678    20271022.7424
  20590820.880   -23314886.549 9 -18140185.90548  20590820.692    20590828.2494
  21736613.514   -23934735.381 9 -18627722.55247  21736613.296    21736622.2344
  22546045.084   -14830611.071 8 -11225417.04646  22546044.578    22546053.0324
  22814378.524   -14517475.761 8 -10283949.63446  22814378.465    22814388.5904
  24152507.446    -4980863.296 7  -3866114.14645  24152507.067    24152520.5564
  22552978.772   -14383874.224 8 -11191576.20246  22552979.387    22552989.0044
  22500183.221   -19130687.442 8 -14604314.47046  22500182.898    22500193.8184
  22846744.445   -14556292.553 8 -11315045.62046  22846744.828    22846754.9454
 02  1 25  2 32 30.0000000  0  9 06 23 17 10 18 22 30 15 26
  20269196.820   -31031719.538 9 -24164927.56748  20269196.947    20269203.9944
  20587433.559   -23332686.773 9 -18154056.14648  20587433.367    20587440.9024
  21728627.378   -23976702.387 9 -18660424.01047  21728627.155    21728636.0734
  22563303.055   -14739919.887 8 -11154748.55746  22563302.540    22563310.9454
  22795961.318   -14614257.845 8 -10359363.97146  22795961.215    22795971.3914
  24140962.703    -5041530.453 7  -3913387.04445  24140962.340    24140975.6634
  22571122.648   -14288528.121 8 -11117280.59046  22571123.226    22571132.8174
  22488138.108   -19193984.207 8 -14653636.46546  22488137.787    22488148.6974
  22832086.771   -14633318.648 8 -11375065.79846  22832087.115    22832097.1924
 02  1 25  2 33  0.0000000  0  9 06 23 17 10 18 22 30 15 26
  20267457.721   -31040858.370 9 -24172048.69048  20267457.851    20267464.8894
  20584143.193   -23349977.517 9 -18167529.38748  20584143.005    20584150.5094
  21720672.896   -24018502.909 9 -18692995.74447  21720672.682    21720681.6124
  22580611.203   -14648964.654 8 -11083874.32146  22580610.689    22580619.1264
  22777593.481   -14710780.741 8 -10434576.35946  22777593.371    22777603.5084
  24129503.852    -5101746.782 7  -3960308.64145  24129503.313    24129516.5294
  22589305.227   -14192978.536 8 -11042826.43246  22589305.759    22589315.3754
  22476123.896   -19257118.473 8 -14702831.83046  22476123.584    22476134.4744
  22817488.274   -14710032.959 8 -11434843.01146  22817488.711    22817498.7154
 02  1 25  2 33 30.0000000  0  9 06 23 17 10 18 22 30 15 26
  20265798.755   -31049576.063 9 -24178841.66148  20265798.889    20265805.9124
  20580949.905   -23366757.938 9 -18180604.98148  20580949.715    20580957.2084
  21712750.299   -24060135.927 9 -18725436.95947  21712750.076    21712759.0094
  22597969.366   -14557746.814 8 -11012795.46446  22597968.882    22597977.2564
  22759275.603   -14807040.997 8 -10509584.11546  22759275.442    22759285.5244
  24118131.171    -5161509.193 7  -4006876.54945  24118130.596    24118143.7934
  22607526.158   -14097227.227 8 -10968215.09946  22607526.695    22607536.3194
  22464140.972   -19320088.891 8 -14751899.52246  22464140.619    22464151.4384
  22802950.142   -14786430.783 8 -11494373.62046  22802950.576    22802960.4754
 02  1 25  2 34  0.0000000  0  9 06 23 17 10 18 22 30 15 26
  20264219.934   -31057872.683 9 -24185306.51748  20264220.072    20264227.0834
  20577853.414   -23383029.834 9 -18193284.31548  20577853.229    20577860.7204
  21704859.262   -24101603.173 9 -18757749.00347  21704859.039    21704867.9644
  22615376.827   -14466270.283 8 -10941515.01546  22615376.261    22615384.6384
  22741007.626   -14903038.309 8 -10584386.96946  22741007.479    22741017.5554
  24106844.916    -5220817.388 7  -4053090.51045  24106844.559    24106857.6694
  22625784.646   -14001278.659 8 -10893450.03446  22625785.215    22625794.8034
  22452188.911   -19382897.001 8 -14800840.73346  22452188.554    22452199.3284
  22788472.651   -14862510.148 8 -11553656.07846  22788473.088    22788482.9094
 02  1 25  2 34 30.0000000  0  9 06 23 17 10 18 22 30 15 26
  20262721.567   -31065746.438 9 -24191441.87248  20262721.700    20262728.6974
  20574853.762   -23398792.994 9 -18205567.23648  20574853.565    20574861.0504
  21696999.745   -24142904.738 9 -18789931.94847  21696999.520    21697008.4664
  22632832.891   -14374537.691 8 -10870035.05646  22632832.316    22632840.7534
  22722790.169   -14998770.147 8 -10658982.96546  22722790.070    22722800.1274
  24095645.592    -5279669.419 7  -4098949.03245  24095645.202    24095658.3474
  22644080.114   -13905135.535 8 -10818533.38246  22644080.699    22644090.2954
  22440267.603   -19445542.635 8 -14849655.33746  22440267.297    22440278.1094
  22774056.482   -14938267.325 8 -11612687.48346  22774056.869    22774066.6164
 02  1 25  2 35  0.0000000  0  9 06 23 17 10 18 22 30 15 26
  20261303.727   -31073196.967 9 -24197247.43348  20261303.861    20261310.8584
  20571950.660   -23414048.653 9 -18217454.70348  20571950.465    20571957.9344
  21689171.512   -24184041.611 9 -18821986.55647  21689171.309    21689180.2964
  22650337.012   -14282552.632 8 -10798358.36146  22650336.458    22650344.9304
  22704623.503   -15094235.944 8 -10733371.66446  22704623.426    22704633.3954
  24084533.153    -5338064.252 7  -4144451.29345  24084532.706    24084546.1924
  22662411.860   -13808801.778 8 -10743468.18146  22662412.448    22662422.1064
  22428377.081   -19508026.715 8 -14898344.04946  22428376.788    22428387.6244
  22759702.037   -15013699.908 8 -11671465.95946  22759702.416    22759712.1004
 02  1 25  2 35 30.0000000  0  9 06 23 17 10 18 22 30 15 26
  20259966.882   -31080221.913 9 -24202721.37848  20259967.017    20259974.0254
  20569144.326   -23428795.848 9 -18228945.96448  20569144.138    20569151.5724
  21681374.810   -24225012.955 9 -18853912.18347  21681374.627    21681383.6344
  22667888.988   -14190316.413 8 -10726485.95846  22667888.427    22667896.8674
  22686508.150   -15189432.253 8 -10807550.39346  22686508.028    22686517.8614
  24073508.338    -5395999.165 7  -4189595.16245  24073508.037    24073521.4094
  22680779.562   -13712279.225 8 -10668255.88046  22680780.123    22680789.8484
  22416517.605   -19570347.935 8 -14946905.86146  22416517.328    22416528.1194
  22745410.201   -15088803.201 8 -11729987.84546  22745410.600    22745420.2184
 02  1 25  2 36  0.0000000  0  9 06 23 17 10 18 22 30 15 26
  20258711.096   -31086820.780 9 -24207863.30848  20258711.256    20258718.2654
  20566434.506   -23443035.865 9 -18240042.02148  20566434.314    20566441.7284
  21673609.448   -24265819.865 9 -18885709.68347  21673609.273    21673618.2584
  22685487.999   -14097832.771 8 -10654420.75246  22685487.454    22685495.8334
  22668444.183   -15284357.751 8 -10881518.09546  22668444.063    22668453.8614
  24062571.363    -5453473.264 8  -4234379.95745  24062570.949    24062584.2404
  22699182.466   -13615571.697 8 -10592899.44446  22699183.022    22699192.7444
  22404689.070   -19632507.041 8 -14995341.34046  22404688.777    22404699.4764
  22731181.536   -15163574.657 8 -11788251.14746  22731181.931    22731191.5364
 02  1 25  2 36 30.0000000  0  9 06 23 17 10 18 22 30 15 26
  20257536.791   -31092991.516 9 -24212671.62848  20257536.959    20257543.9534
  20563821.271   -23456768.253 9 -18250742.52348  20563821.073    20563828.4744
  21665875.457   -24306461.910 9 -18917378.71647  21665875.277    21665884.2334
  22703133.669   -14005103.790 8 -10582164.37446  22703133.128    22703141.5384
  22650432.260   -15379009.914 8 -10955272.81346  22650432.152    22650441.8664
  24051722.448    -5510484.046 8  -4278803.72345  24051722.010    24051735.2044
  22717620.147   -13518681.402 8 -10517400.59646  22717620.679    22717630.4164
  22392891.418   -19694503.675 8 -15043650.23146  22392891.065    22392901.7164
  22717016.807   -15238010.163 8 -11846252.66546  22717017.216    22717026.8074
 02  1 25  2 37  0.0000000  0  9 06 23 17 10 18 22 30 15 26
  20256444.249   -31098732.762 9 -24217145.28048  20256444.395    20256451.3944
  20561304.543   -23469993.382 9 -18261047.76248  20561304.345    20561311.7304
  21658172.820   -24346939.247 9 -18948919.40047  21658172.629    21658181.5334
  22720825.601   -13912131.931 8 -10509718.74846  22720825.060    22720833.4924
  22632472.756   -15473386.736 8 -11028812.98246  22632472.646    22632482.3594
  24040962.057    -5567029.731 8  -4322865.07145  24040961.629    24040974.7494
  22736091.963   -13421611.366 8 -10441761.68446  22736092.501    22736102.2644
  22381124.661   -19756337.738 8 -15091832.44146  22381124.320    22381134.9334
  22702916.642   -15312106.127 8 -11903989.61446  22702917.107    22702926.6584
 02  1 25  2 37 30.0000000  0  9 06 23 17 10 18 22 30 15 26
  20255433.343   -31104044.938 9 -24221284.59748  20255433.495    20255440.4634
  20558884.006   -23482713.089 9 -18270959.16848  20558883.801    20558891.1794
  21650501.205   -24387253.652 9 -18980333.13547  21650501.020    21650509.8794
  22738562.906   -13818921.559 8 -10437087.27146  22738562.401    22738570.8084
  22614565.746   -15567487.905 8 -11102138.35546  22614565.603    22614575.2964
  24030290.251    -5623110.340 8  -4366564.03845  24030289.707    24030302.7724
  22754597.115   -13324366.092 8 -10365986.22746  22754597.710    22754607.4624
  22369388.529   -19818010.872 8 -15139889.25946  22369388.165    22369398.7424
  22688881.516   -15385860.893 8 -11961460.71146  22688881.944    22688891.4744
 02  1 25  2 38  0.0000000  0  9 06 23 17 10 18 22 30 15 26
  20254504.763   -31108924.612 9 -24225086.90248  20254504.898    20254511.8374
  20556559.972   -23494925.641 9 -18280475.38948  20556559.780    20556567.1554
  21642860.949   -24427403.295 9 -19011618.48247  21642860.759    21642869.5454
  22756345.464   -13725473.302 8 -10364270.42746  22756344.980    22756353.3924
  22596711.922   -15661309.423 8 -11175245.83246  22596711.812    22596721.3784
  24019707.550    -5678722.147 8  -4409897.72445  24019707.093    24019719.9174
  22773135.573   -13226946.438 8 -10290074.89446  22773136.136    22773145.8444
  22357683.394   -19879521.085 8 -15187819.13146  22357683.028    22357693.5634
  22674912.285   -15459269.002 8 -12018661.67046  22674912.686    22674922.1884
 02  1 25  2 38 30.0000000  0  9 06 23 17 10 18 22 30 15 26
  20253658.221   -31113373.052 9 -24228553.17248  20253658.364    20253665.2964
  20554331.943   -23506633.949 9 -18289598.68948  20554331.742    20554339.1074
  21635251.520   -24467391.023 9 -19042777.65447  21635251.317    21635260.0184
  22774172.333   -13631792.414 8 -10291272.30546  22774171.889    22774180.2124
  22578911.264   -15754851.747 8 -11248135.75746  22578911.185    22578920.6564
  24009213.929    -5733865.893 8  -4452866.67245  24009213.398    24009226.2224
  22791706.176   -13129358.016 8 -10214032.05746  22791706.690    22791716.3454
  22346008.838   -19940870.850 8 -15235623.97846  22346008.480    22346018.9694
  22661009.154   -15532329.418 8 -12075591.71646  22661009.600    22661019.0534
 02  1 25  2 39  0.0000000  0  9 06 23 17 10 18 22 30 15 26
  20252894.408   -31117386.679 9 -24231680.62648  20252894.553    20252901.4764
  20552200.226   -23517836.063 9 -18298327.55548  20552200.008    20552207.3554
  21627673.316   -24507214.488 9 -19073808.83447  21627673.114    21627681.7164
  22792043.384   -13537879.448 8 -10218093.34546  22792042.927    22792051.2934
  22561164.468   -15848110.751 8 -11320804.90346  22561164.392    22561173.8544
  23998810.098    -5788537.694 8  -4495467.86745  23998809.639    23998822.3624
  22810308.708   -13031601.445 8 -10137858.17946  22810309.211    22810318.8304
  22334365.259   -20002057.861 8 -15283302.00947  22334364.881    22334375.2964
  22647173.324   -15605036.493 8 -12132246.42446  22647173.778    22647183.2364
 02  1 25  2 39 30.0000000  0  9 06 23 17 10 18 22 30 15 26
  20252213.296   -31120965.808 9 -24234469.51648  20252213.444    20252220.3574
  20550164.400   -23528534.084 9 -18306663.62448  20550164.188    20550171.5024
  21620126.008   -24546875.611 9 -19104713.51247  21620125.789    21620134.3514
  22809957.785   -13443738.337 8 -10144736.62246  22809957.325    22809965.7714
  22543471.634   -15941085.918 8 -11393252.87346  22543471.610    22543481.0504
  23988496.111    -5842737.401 8  -4537701.19445  23988495.641    23988508.2384
  22828942.308   -12933681.330 8 -10061556.87346  22828942.851    22828952.4344
  22322752.243   -20063083.834 8 -15330854.55846  22322751.871    22322762.2614
  22633405.139   -15677388.530 8 -12188624.46446  22633405.580    22633414.9574
 02  1 25  2 40  0.0000000  0  9 06 23 17 10 18 22 30 15 26
  20251615.351   -31124107.782 9 -24236917.76548  20251615.498    20251622.3894
  20548224.717   -23538726.876 9 -18314606.01048  20548224.520    20548231.8304
  21612609.777   -24586373.197 9 -19135490.76247  21612609.582    21612618.1204
  22827915.341   -13349370.370 8 -10071203.11546  22827914.903    22827923.3704
  22525833.564   -16033773.792 8 -11465476.99846  22525833.560    22525842.9344
  23978272.476    -5896462.036 8  -4579564.34645  23978271.988    23978284.5684
  22847606.788   -12835598.995 8  -9985129.15846  22847607.301    22847616.9014
  22311170.155   -20123947.204 8 -15378280.41046  22311169.789    22311180.1744
  22619705.407   -15749380.451 8 -12244721.91746  22619705.884    22619715.1944
 02  1 25  2 40 30.0000000  0  9 06 23 17 10 18 22 30 15 26
  20251100.578   -31126812.879 9 -24239025.58748  20251100.715    20251107.5824
  20546380.828   -23548416.646 9 -18322156.42748  20546380.617    20546387.8884
  21605124.320   -24625709.047 9 -19166141.96947  21605124.114    21605132.6244
  22845915.341   -13254779.906 8  -9997496.24146  22845914.882    22845923.3314
  22508250.275   -16126174.283 8 -11537477.18246  22508250.233    22508259.4674
  23968139.209    -5949711.719 8  -4621057.38145  23968138.664    23968151.2474
  22866301.252   -12737359.093 8  -9908578.65946  22866301.788    22866311.4934
  22299618.728   -20184649.556 8 -15425580.79646  22299618.366    22299628.7124
  22606074.484   -15821010.702 8 -12300537.53046  22606074.960    22606084.2964
 02  1 25  2 41  0.0000000  0  9 06 23 17 10 18 22 30 15 26
  20250669.355   -31129078.826 9 -24240791.22248  20250669.493    20250676.3394
  20544632.716   -23557602.762 9 -18329314.39448  20544632.507    20544639.7724
  21597669.798   -24664882.337 9 -19196666.52147  21597669.585    21597678.0834
  22863957.377   -13159968.489 8  -9923617.19446  22863956.902    22863965.3044
  22490722.187   -16218284.205 8 -11609250.95846  22490722.158    22490731.2994
  23958096.854    -6002483.676 7  -4662178.17145  23958096.345    23958108.9354
  22885025.295   -12638963.526 8  -9831906.87546  22885025.877    22885035.6824
  22288098.206   -20245189.913 8 -15472754.95946  22288097.841    22288108.1244
  22592513.210   -15892274.758 8 -12356067.80846  22592513.698    22592523.0734
 02  1 25  2 41 30.0000000  0  9 06 23 17 10 18 22 30 15 26
  20250321.975   -31130904.200 9 -24242213.55348  20250322.114    20250328.9414
  20542980.392   -23566285.427 9 -18336080.05648  20542980.201    20542987.4614
  21590246.195   -24703893.064 9 -19227064.39147  21590245.984    21590254.5204
  22882040.936   -13064938.532 8  -9849567.86146  22882040.493    22882048.9134
  22473249.719   -16310101.761 8 -11680796.90946  22473249.684    22473258.8244
  23948145.752    -6054776.174 7  -4702925.34445  23948145.245    23948157.7944
  22903778.460   -12540415.068 8  -9755115.95846  22903779.064    22903788.9594
  22276608.499   -20305568.233 8 -15519802.86747  22276608.145    22276618.3314
  22579022.413   -15963168.980 8 -12411309.90646  22579022.838    22579032.2194
 02  1 25  2 42  0.0000000  0  9 06 23 17 10 18 22 30 15 26
  20250058.344   -31132289.517 9 -24243292.97748  20250058.476    20250065.2844
  20541423.465   -23574466.919 9 -18342455.19348  20541423.289    20541430.5214
  21582853.184   -24742743.101 9 -19257337.04747  21582852.982    21582861.5234
  22900165.266   -12969694.478 8  -9775351.68546  22900164.836    22900173.2394
  22455833.053   -16401626.618 8 -11752114.78946  22455833.010    22455842.0974
  23938285.808    -6106589.450 7  -4743299.11145  23938285.250    23938297.8294
  22922559.857   -12441718.466 8  -9678209.61246  22922560.451    22922570.4464
  22265149.243   -20365786.212 8 -15566725.82247  22265148.928    22265159.0944
  22565602.224   -16033691.852 8 -12466262.63846  22565602.669    22565611.9474
 02  1 25  2 42 30.0000000  0  9 06 23 17 10 18 22 30 15 26
  20249878.945   -31133232.042 9 -24244027.37448  20249879.081    20249885.8654
  20539962.118   -23582146.172 9 -18348438.97948  20539961.930    20539969.1494
  21575491.056   -24781431.065 9 -19287483.42147  21575490.859    21575499.3594
  22918330.150   -12874237.281 8  -9700969.43146  22918329.711    22918338.1384
  22438472.704   -16492855.101 8 -11823201.72646  22438472.659    22438481.7094
  23928517.652    -6157920.459 7  -4783297.06445  23928517.124    23928529.5944
  22941369.183   -12342875.053 8  -9601188.86046  22941369.770    22941379.8354
  22253720.905   -20425842.038 8 -15613522.43747  22253720.580    22253730.7024
  22552253.646   -16103838.491 8 -12520922.20846  22552254.089    22552263.2724
 02  1 25  2 43  0.0000000  0  9 06 23 17 10 18 22 30 15 26
  20249783.989   -31133731.069 9 -24244416.18548  20249784.116    20249790.8704
  20538596.163   -23589324.227 9 -18354032.21648  20538595.966    20538603.1684
  21568159.683   -24819957.657 9 -19317504.04947  21568159.474    21568167.9344
  22936534.905   -12778570.107 8  -9626423.56846  22936534.508    22936542.9394
  22421168.899   -16583785.967 8 -11894056.75746  22421168.858    22421177.9264
  23918841.456    -6208767.992 7  -4822918.30345  23918840.943    23918853.4144
  22960205.768   -12243888.125 8  -9524056.28646  22960206.350    22960216.5124
  22242323.334   -20485736.318 8 -15660193.17047  22242323.000    22242333.1034
  22538977.309   -16173605.909 8 -12575286.27146  22538977.731    22538986.8174
 02  1 25  2 43 30.0000000  0  9 06 23 17 10 18 22 30 15 26
  20249773.460   -31133786.098 9 -24244459.02948  20249773.603    20249780.3404
  20537325.346   -23596002.152 9 -18359235.74548  20537325.156    20537332.3464
  21560858.829   -24858323.515 9 -19347399.43347  21560858.628    21560867.0594
  22954779.103   -12682696.229 8  -9551716.62946  22954778.688    22954787.0614
  22403922.153   -16674417.750 8 -11964678.74846  22403922.117    22403931.0704
  23909257.386    -6259131.157 7  -4862162.12145  23909256.876    23909269.3914
  22979069.071   -12144761.228 8  -9446814.65646  22979069.621    22979079.8214
  22230956.369   -20545469.509 8 -15706738.38147  22230956.030    22230966.0984
  22525773.606   -16242991.248 8 -12629352.60946  22525774.041    22525783.0684
 02  1 25  2 44  0.0000000  0  9 06 23 17 10 18 22 30 15 26
  20249847.604   -31133396.380 9 -24244155.31148  20249847.742    20249854.4504
  20536149.489   -23602181.156 9 -18364050.50348  20536149.290    20536156.4894
  21553588.412   -24896529.446 9 -19377170.19447  21553588.212    21553596.6174
  22973062.135   -12586618.440 8  -9476850.79546  22973061.680    22973070.0794
  22386732.557   -16764749.550 8 -12035066.98446  22386732.478    22386741.3444
  23899765.809    -6309009.088 7  -4901027.81845  23899765.207    23899777.7274
  22997958.310   -12045497.928 8  -9369466.71646  22997958.864    22997969.1274
  22219619.923   -20605042.207 8 -15753158.53247  22219619.618    22219629.6684
  22512643.062   -16311991.936 8 -12683119.21746  22512643.522    22512652.5554
 02  1 25  2 44 30.0000000  0  9 06 23 17 10 18 22 30 15 26
  20250006.808   -31132559.535 9 -24243503.18548  20250006.962    20250013.6594
  20535068.651   -23607860.622 9 -18368476.01248  20535068.468    20535075.6534
  21546348.614   -24934574.598 9 -19406815.67847  21546348.413    21546356.7764
  22991383.630   -12490338.277 8  -9401827.28046  22991383.177    22991391.5904
  22369600.486   -16854778.126 8 -12105218.93346  22369600.388    22369609.2454
  23890367.039    -6358399.145 7  -4939513.39945  23890366.593    23890378.9204
  23016873.182   -11946100.041 8  -9292013.91746  23016873.750    23016884.0034
  22208314.204   -20664453.394 8 -15799452.82347  22208313.895    22208323.9334
  22499586.600   -16380603.423 8 -12736582.56546  22499587.050    22499596.1114
 02  1 25  2 45  0.0000000  0  9 06 23 17 10 18 22 30 15 26
  20250251.244   -31131274.913 9 -24242502.14148  20250251.373    20250258.0534
  20534082.697   -23613041.617 9 -18372513.10048  20534082.521    20534089.6884
  21539139.381   -24972459.113 9 -19436335.99247  21539139.164    21539147.4984
  23009743.089   -12393858.693 8  -9326648.35646  23009742.646    23009751.0354
  22352526.458   -16944501.852 8 -12175133.35146  22352526.378    22352535.1024
  23881061.236    -6407300.166 8  -4977617.89645  23881060.916    23881073.1704
  23035813.099   -11846570.692 8  -9214458.67546  23035813.688    23035823.9664
  22197039.234   -20723703.278 8 -15845621.42347  22197038.890    22197048.9224
  22486604.852   -16448822.738 8 -12789740.32346  22486605.247    22486614.1834
 02  1 25  2 45 30.0000000  0  9 06 23 17 10 18 22 30 15 26
  20250581.016   -31129541.748 9 -24241151.58748  20250581.154    20250587.8444
  20533191.450   -23617725.154 9 -18376162.55848  20533191.277    20533198.4204
  21531960.442   -25010183.983 9 -19465731.90647  21531960.244    21531968.5484
  23028139.959   -12297182.839 8  -9251316.50746  23028139.470    23028147.7444
  22335510.814   -17033919.410 8 -12244809.20946  22335510.718    22335519.2604
  23871848.864    -6455711.129 7  -5015340.55345  23871848.493    23871860.6004
  23054777.366   -11746913.293 8  -9136803.64946  23054777.919    23054788.1594
  22185794.811   -20782792.460 8 -15891664.80447  22185794.474    22185804.4954
  22473698.236   -16516647.055 8 -12842590.29146  22473698.603    22473707.4894
 02  1 25  2 46  0.0000000  0  9 06 23 17 10 18 22 30 15 26
  20250996.324   -31127359.008 9 -24239450.71648  20250996.457    20251003.1464
  20532394.702   -23621911.842 9 -18379424.85948  20532394.499    20532401.6484
  21524811.935   -25047749.344 9 -19495003.52747  21524811.723    21524819.9964
  23046573.591   -12200313.458 8  -9175833.85346  23046573.089    23046581.2814
  22318553.747   -17123028.889 8 -12314244.97346  22318553.607    22318562.1904
  23862729.902    -6503630.946 8  -5052680.48545  23862729.477    23862741.6124
  23073765.459   -11647130.841 8  -9059051.17546  23073766.024    23073776.2374
  22174580.970   -20841720.801 8 -15937582.85147  22174580.638    22174590.6324
  22460867.271   -16584073.126 8 -12895129.92246  22460867.645    22460876.5624
 02  1 25  2 46 30.0000000  0  9 06 23 17 10 18 22 30 15 26
  20251497.657   -31124724.442 9 -24237397.76948  20251497.790    20251504.4644
  20531692.557   -23625601.419 9 -18382299.80648  20531692.365    20531699.5134
  21517693.972   -25085154.218 9 -19524150.10447  21517693.751    21517701.9864
  23065043.745   -12103252.045 8  -9100201.57446  23065043.243    23065051.4594
  22301655.702   -17211827.528 8 -12383438.52046  22301655.566    22301664.2474
  23853704.900    -6551056.964 7  -5089635.63945  23853704.455    23853716.5054
  23092776.902   -11547225.342 8  -8981202.81946  23092777.443    23092787.7014
  22163397.980   -20900487.313 8 -15983374.80047  22163397.619    22163407.5934
  22448112.988   -16651096.649 8 -12947355.88446  22448113.384    22448122.2684
 02  1 25  2 47  0.0000000  0  9 06 23 17 10 18 22 30 15 26
  20252084.760   -31121639.022 9 -24234993.50748  20252084.883    20252091.5634
  20531084.524   -23628796.400 9 -18384789.35048  20531084.336    20531091.4654
  21510606.121   -25122400.647 9 -19553173.20747  21510605.897    21510614.0904
  23083549.622   -12006002.862 8  -9024422.97646  23083549.122    23083557.3604
  22284816.948   -17300315.284 8 -12452389.83747  22284816.802    22284825.4264
  23844773.882    -6597989.670 8  -5126206.42945  23844773.407    23844785.2134
  23111810.803   -11447201.418 8  -8903262.18146  23111811.396    23111821.6984
  22152245.376   -20959093.864 8 -16029042.09647  22152245.050    22152254.9424
  22435435.617   -16717716.115 8 -12999266.99046  22435436.011    22435444.8494
 02  1 25  2 47 30.0000000  0  9 06 23 17 10 18 22 30 15 26
  20252758.108   -31118100.387 9 -24232236.09348  20252758.247    20252764.9264
  20530570.732   -23631496.179 9 -18386893.02348  20530570.542    20530577.6634
  21503548.682   -25159487.507 9 -19582071.97747  21503548.463    21503556.6104
  23102090.931   -11908567.263 8  -8948499.13446  23102090.456    23102098.6524
  22268037.837   -17388489.163 8 -12521096.57346  22268037.719    22268046.2664
  23835937.102    -6644426.562 8  -5162390.86745  23835936.625    23835948.3344
  23130867.019   -11347060.747 8  -8825230.58146  23130867.603    23130877.8514
  22141123.554   -21017539.168 8 -16074583.74347  22141123.209    22141132.9984
  22422835.986   -16783926.940 8 -13050859.69146  22422836.414    22422845.1514
 02  1 25  2 48  0.0000000  0  9 06 23 17 10 18 22 30 15 26
  20253517.703   -31114108.461 9 -24229125.46248  20253517.841    20253524.5164
  20530150.814   -23633702.517 9 -18388612.19448  20530150.623    20530157.7564
  21496521.404   -25196415.997 9 -19610847.33847  21496521.188    21496529.3374
  23120667.094   -11810948.758 8  -8872432.74146  23120666.625    23120674.7694
  22251318.551   -17476348.354 8 -12589558.07746  22251318.453    22251327.0394
  23827194.886    -6690367.172 8  -5198188.62345  23827194.387    23827205.9164
  23149944.691   -11246807.319 8  -8747111.11046  23149945.246    23149955.4634
  22130032.195   -21075824.326 8 -16120000.60647  22130031.818    22130041.5354
  22410314.522   -16849727.156 8 -13102132.43246  22410314.922    22410323.5974
 02  1 25  2 48 30.0000000  0  9 06 23 17 10 18 22 30 15 26
  20254364.102   -31109660.456 9 -24225659.44848  20254364.235    20254370.9004
  20529824.979   -23635414.470 9 -18389946.13048  20529824.798    20529831.9394
  21489524.532   -25233184.502 9 -19639498.04047  21489524.332    21489532.4754
  23139277.888   -11713148.383 8  -8796224.63246  23139277.382    23139285.5034
  22234659.890   -17563889.374 8 -12657771.65847  22234659.836    22234668.3894
  23818547.598    -6735808.447 8  -5233597.26845  23818547.123    23818558.5464
  23169043.609   -11146442.258 8  -8668904.63946  23169044.174    23169054.3674
  22118971.542   -21133947.749 8 -16165291.43847  22118971.175    22118980.8564
  22397872.058   -16915111.679 8 -13153081.26646  22397872.525    22397881.1994
 02  1 25  2 49  0.0000000  0  9 06 23 17 10 18 22 30 15 26
  20255297.063   -31104757.600 9 -24221839.00548  20255297.210    20255303.8564
  20529592.713   -23636635.016 9 -18390897.15248  20529592.519    20529599.6454
  21482557.624   -25269795.387 9 -19668025.92347  21482557.425    21482565.5834
  23157922.422   -11615170.825 8  -8719878.48146  23157921.854    23157930.0234
  22218061.789   -17651112.600 8 -12725737.61547  22218061.717    22218070.2214
  23809995.092    -6780751.526 8  -5268617.70645  23809994.634    23810006.0514
  23188162.728   -11045970.609 8  -8590615.12346  23188163.368    23188173.5554
  22107941.317   -21191911.403 8 -16210457.78347  22107940.961    22107950.6164
  22385509.015   -16980079.451 8 -13203705.36146  22385509.484    22385518.1074
 02  1 25  2 49 30.0000000  0  9 06 23 17 10 18 22 30 15 26
  20256316.978   -31099397.655 9 -24217662.38748  20256317.123    20256323.7704
  20529453.981   -23637363.677 9 -18391464.88548  20529453.795    20529460.9064
  21475620.855   -25306247.659 9 -19696430.21347  21475620.667    21475628.8594
  23176600.412   -11517017.243 8  -8643395.16746  23176599.894    23176608.0504
  22201524.633   -17738015.052 8 -12793453.60547  22201524.545    22201533.0084
  23801537.874    -6825193.730 8  -5303247.86345  23801537.389    23801548.9054
  23207301.840   -10945394.220 8  -8512243.99646  23207302.479    23207312.7444
  22096941.724   -21249714.159 8 -16255498.75047  22096941.386    22096950.9724
  22373226.152   -17044626.091 8 -13254001.30246  22373226.608    22373235.1564
 02  1 25  2 50  0.0000000  0  9 06 23 17 10 18 22 30 15 26
  20257424.039   -31093579.924 9 -24213129.05248  20257424.187    20257430.8284
  20529408.689   -23637601.490 9 -18391650.14148  20529408.506    20529415.5904
  21468714.284   -25342541.729 9 -19724711.23347  21468714.069    21468722.2954
  23195311.357   -11418690.536 8  -8566776.93346  23195310.841    23195319.0034
  22185048.860   -17824595.073 8 -12860918.35547  22185048.791    22185057.1984
  23793176.161    -6869134.124 8  -5337486.99745  23793175.668    23793187.1134
  23226460.320   -10844716.226 8  -8433793.69846  23226460.956    23226471.2544
  22085972.742   -21307356.146 8 -16300414.44347  22085972.400    22085981.9184
  22361023.899   -17108748.508 8 -13303966.68246  22361024.355    22361032.9224
 02  1 25  2 50 30.0000000  0  9 06 23 17 10 18 22 30 15 26
  20258618.298   -31087303.905 9 -24208238.60948  20258618.440    20258625.0744
  20529456.566   -23637349.856 9 -18391454.00948  20529456.363    20529463.4344
  21461837.674   -25378677.993 9 -19752869.28647  21461837.469    21461845.6784
  23214054.686   -11320193.537 8  -8490026.00846  23214054.145    23214062.3024
  22168634.694   -17910851.703 8 -12928131.11647  22168634.594    22168642.9684
  23784910.145    -6912571.865 8  -5371334.46145  23784909.640    23784921.1544
  23245637.534   -10743939.737 8  -8355266.65146  23245638.159    23245648.5474
  22075034.182   -21364837.900 8 -16345205.27647  22075033.852    22075043.3444
  22348902.884   -17172444.260 8 -13353599.60646  22348903.307    22348911.8954
 02  1 25  2 51  0.0000000  0  9 06 23 17 10 18 22 30 15 26
  20259899.899   -31080568.819 9 -24202990.45748  20259900.043    20259906.6584
  20529597.313   -23636609.725 9 -18390877.23348  20529597.126    20529604.2064
  21454991.066   -25414657.165 9 -19780904.93347  21454990.839    21454998.9734
  23232829.922   -11221529.206 8  -8413144.69346  23232829.377    23232837.5504
  22152282.199   -17996783.493 8 -12995090.75147  22152282.105    22152290.4664
  23776739.812    -6955506.169 8  -5404789.63345  23776739.297    23776750.9304
  23264832.837   -10643068.337 8  -8276665.65746  23264833.451    23264843.8484
  22064126.072   -21422159.782 8 -16389871.54147  22064125.764    22064135.1824
  22336863.630   -17235710.400 8 -13402897.76346  22336864.061    22336872.5794
 02  1 25  2 51 30.0000000  0  9 06 23 17 10 18 22 30 15 26
  20261269.342   -31073372.247 9 -24197382.70848  20261269.495    20261276.0884
  20529831.165   -23635380.491 9 -18389919.33248  20529830.984    20529838.0764
  21448174.577   -25450477.865 9 -19808817.09947  21448174.338    21448182.3864
  23251636.768   -11122698.600 8  -8336133.82646  23251636.227    23251644.4424
  22135992.205   -18082386.886 9 -13061794.50447  22135992.152    22136000.4144
  23768665.953    -6997934.376 8  -5437850.45245  23768665.415    23768676.8854
  23284045.947   -10542103.307 8  -8197991.70446  23284046.550    23284056.9774
  22053248.749   -21479320.109 8 -16434411.91347  22053248.434    22053257.7594
  22324907.053   -17298542.176 8 -13451857.47146  22324907.498    22324915.9064
 02  1 25  2 52  0.0000000  0  9 06 23 17 10 18 22 30 15 26
  20262726.329   -31065715.657 9 -24191416.49448  20262726.476    20262733.0554
  20530157.528   -23633665.341 9 -18388582.79548  20530157.328    20530164.4234
  21441387.811   -25486142.223 9 -19836607.43447  21441387.596    21441395.6324
  23270474.378   -11023706.307 8  -8258996.95646  23270473.816    23270482.0264
  22119764.713   -18167662.591 9 -13128242.92347  22119764.616    22119772.7884
  23760688.089    -7039857.479 8  -5470517.67945  23760687.569    23760699.0594
  23303275.934   -10441049.665 8  -8119248.68546  23303276.497    23303286.9004
  22042401.695   -21536321.232 8 -16478828.24147  22042401.363    22042410.6664
  22313033.325   -17360938.791 8 -13500478.08746  22313033.748    22313042.0964
 02  1 25  2 52 30.0000000  0  9 06 23 17 10 18 22 30 15 26
  20264271.324   -31057596.220 9 -24185089.62848  20264271.487    20264278.0654
  20530576.496   -23631463.619 9 -18386867.11548  20530576.288    20530583.3534
  21434631.043   -25521648.887 9 -19864274.89647  21434630.834    21434638.8364
  23289342.607   -10924553.273 8  -8181734.82546  23289342.023    23289350.2314
  22103600.116   -18252607.218 8 -13194433.35047  22103599.997    22103608.1994
  23752806.866    -7081272.774 8  -5502789.19445  23752806.335    23752817.8374
  23322522.506   -10339908.716 8  -8040437.65046  23322523.053    23322533.4494
  22031585.252   -21593161.466 8 -16523119.20547  22031584.931    22031594.2144
  22301243.283   -17422895.310 8 -13548755.75946  22301243.701    22301252.0654
 02  1 25  2 53  0.0000000  0  9 06 23 17 10 18 22 30 15 26
  20265904.432   -31049014.019 9 -24178402.16648  20265904.596    20265911.1724
  20531087.618   -23628777.251 9 -18384773.78848  20531087.424    20531094.4644
  21427904.079   -25556998.891 9 -19891820.28247  21427903.901    21427911.8964
  23308240.727   -10825243.062 8  -8104350.22846  23308240.122    23308248.3064
  22087498.627   -18337220.144 9 -13260365.31747  22087498.533    22087506.6984
  23745022.387    -7122179.907 8  -5534664.78045  23745021.934    23745033.3094
  23341784.910   -10238684.200 8  -7961561.47846  23341785.498    23341795.8864
  22020799.306   -21649841.732 8 -16567285.51947  22020798.958    22020808.2124
  22289537.349   -17484409.705 8 -13596688.93246  22289537.764    22289546.0794
 02  1 25  2 53 30.0000000  0  9 06 23 17 10 18 22 30 15 26
  20267625.980   -31039966.997 9 -24171352.51048  20267626.144    20267632.7314
  20531691.099   -23625605.802 9 -18382302.47948  20531690.906    20531697.9314
  21421207.163   -25592191.052 9 -19919242.67747  21421206.977    21421215.0004
  23327168.503   -10725776.825 8  -8026844.06146  23327167.888    23327176.1204
  22071460.951   -18421498.286 9 -13326036.43247  22071460.826    22071468.8564
  23737334.999    -7162576.683 8  -5566142.66145  23737334.545    23737346.0214
  23361062.883   -10137377.782 8  -7882621.49346  23361063.483    23361073.9074
  22010044.015   -21706360.642 8 -16611326.10647  22010043.674    22010052.8934
  22277916.429   -17545477.472 8 -13644274.09546  22277916.859    22277925.1594
 02  1 25  2 54  0.0000000  0  9 06 23 17 10 18 22 30 15 26
  20269435.754   -31030456.512 9 -24163941.71048  20269435.902    20269442.4964
  20532386.292   -23621952.514 9 -18379455.71248  20532386.085    20532393.0744
  21414539.823   -25627227.787 9 -19946543.95247  21414539.633    21414547.6794
  23346125.053   -10626159.385 8  -7949220.04846  23346124.484    23346132.7084
  22055486.802   -18505442.309 8 -13391447.18047  22055486.675    22055494.6694
  23729744.566    -7202464.212 8  -5597223.74145  23729744.081    23729755.5804
  23380355.507   -10035994.711 8  -7803621.76646  23380356.106    23380366.4964
  21999319.006   -21762720.528 8 -16655242.77347  21999318.679    21999327.8594
  22266380.673   -17606097.922 8 -13691510.68846  22266381.066    22266389.2774
 02  1 25  2 54 30.0000000  0  9 06 23 17 10 18 22 30 15 26
  20271334.226   -31020480.033 9 -24156167.80248  20271334.367    20271340.9484
  20533173.297   -23617816.593 9 -18376232.86848  20533173.110    20533180.0644
  21407902.343   -25662107.536 9 -19973722.90747  21407902.168    21407910.1964
  23365110.288   -10526391.436 8  -7871478.76946  23365109.770    23365117.9194
  22039576.844   -18589048.725 9 -13456594.86447  22039576.749    22039584.7484
  23722251.613    -7241839.651 8  -5627905.78345  23722251.068    23722262.6454
  23399662.454    -9934536.081 8  -7724563.15446  23399663.030    23399673.4474
  21988624.555   -21818919.725 8 -16699034.23947  21988624.202    21988633.3484
  22254930.850   -17666266.139 8 -13738394.89146  22254931.312    22254939.5564
 02  1 25  2 55  0.0000000  0  9 06 23 17 10 18 22 30 15 26
  20273321.217   -31010038.234 9 -24148031.30448  20273321.342    20273327.9164
  20534051.696   -23613200.367 9 -18372635.76648  20534051.492    20534058.4494
  21401294.525   -25696831.756 9 -20000780.66347  21401294.352    21401302.3604
  23384123.308   -10426476.799 8  -7793623.17446  23384122.760    23384131.0044
  22023731.199   -18672317.720 9 -13521479.63547  22023731.098    22023738.9974
  23714855.942    -7280703.385 8  -5658189.09145  23714855.488    23714867.0874
  23418982.934    -9833006.300 8  -7645449.11046  23418983.545    23418993.9364
  21977960.429   -21874959.524 8 -16742701.49047  21977960.055    21977969.1924
  22243567.445   -17725980.681 8 -13784925.56746  22243567.879    22243576.2424
 02  1 25  2 55 30.0000000  0  9 06 23 17 10 18 22 30 15 26
  20275397.143   -30999128.953 9 -24139530.54148  20275397.285    20275403.8534
  20535021.530   -23608103.663 9 -18368664.26248  20535021.331    20535028.2734
  21394716.467   -25731399.516 9 -20027716.50347  21394716.256    21394724.2134
  23403163.988   -10326416.944 8  -7715654.43946  23403163.468    23403171.7824
  22007950.312   -18755246.143 9 -13586099.03547  22007950.233    22007958.0334
  23707558.214    -7319053.259 8  -5688071.99745  23707557.700    23707569.2844
  23438316.715    -9731406.921 8  -7566280.84246  23438317.291    23438327.7404
  21967326.835   -21930838.773 8 -16786243.63647  21967326.456    21967335.6234
  22232291.218   -17785237.240 8 -13831099.37446  22232291.605    22232299.9884
 02  1 25  2 56  0.0000000  0  9 06 23 17 10 18 22 30 15 26
  20277562.052   -30987752.305 9 -24130665.58748  20277562.176    20277568.7194
  20536082.470   -23602528.216 9 -18364319.71448  20536082.266    20536089.1984
  21388168.005   -25765811.627 9 -20054531.05147  21388167.810    21388175.7054
  23422231.734   -10226215.002 8  -7637574.97446  23422231.227    23422239.5604
  21992234.384   -18837833.139 9 -13650452.37747  21992234.303    21992242.0574
  23700358.155    -7356889.033 8  -5717554.29445  23700357.694    23700369.2504
  23457663.046    -9629741.501 8  -7487061.10345  23457663.607    23457674.0544
  21956723.668   -21986558.247 8 -16829661.29047  21956723.307    21956732.4634
  22221102.661   -17844033.538 8 -13876914.55346  22221103.071    22221111.3394
 02  1 25  2 56 30.0000000  0  9 06 23 17 10 18 22 30 15 26
  20279816.175   -30975906.815 9 -24121435.30948  20279816.285    20279822.8194
  20537234.432   -23596474.418 9 -18359602.42948  20537234.229    20537241.1314
  21381649.266   -25800067.533 9 -20081223.88647  21381649.063    21381656.9694
  23441326.253   -10125872.630 8  -7559386.09346  23441325.728    23441334.0894
  21976583.922   -18920076.326 9 -13714537.82947  21976583.828    21976591.5634
  23693256.361    -7394209.056 8  -5746634.72445  23693255.850    23693267.3654
  23477021.490    -9528012.412 8  -7407791.77545  23477021.976    23477032.5864
  21946151.108   -22042117.269 8 -16872953.91347  21946150.766    21946159.8424
  22210002.305   -17902365.824 8 -13922368.16946  22210002.695    22210010.8734
 02  1 25  2 57  0.0000000  0  9 06 23 17 10 18 22 30 15 26
  20282159.459   -30963592.652 9 -24111839.83548  20282159.563    20282166.0984
  20538477.020   -23589944.369 9 -18354514.04048  20538476.818    20538483.6914
  21375159.980   -25834168.428 9 -20107795.93147  21375159.775    21375167.6804
  23460446.764   -10025393.227 8  -7481090.45746  23460446.281    23460454.6374
  21960998.883   -19001975.397 9 -13778355.13247  21960998.777    21961006.5574
  23686252.578    -7431013.451 8  -5775313.36545  23686252.129    23686263.4684
  23496391.380    -9426223.452 8  -7328475.78146  23496391.836    23496402.4844
  21935608.849   -22097516.878 8 -16916122.31447  21935608.495    21935617.5064
  22198990.550   -17960232.321 8 -13967458.82946  22198990.969    22198999.0914
 02  1 25  2 57 30.0000000  0  9 06 23 17 10 18 22 30 15 26
  20284592.231   -30950808.126 9 -24101877.84348  20284592.339    20284598.8774
  20539810.238   -23582938.293 9 -18349054.72548  20539810.035    20539816.8794
  21368700.417   -25868113.412 9 -20134246.48847  21368700.217    21368708.0944
  23479593.046    -9924778.663 8  -7402689.48745  23479592.506    23479600.8824
  21945479.846   -19083527.678 9 -13841902.22647  21945479.760    21945487.4554
  23679347.301    -7467300.384 8  -5803588.79245  23679346.810    23679358.2294
  23515772.293    -9324376.505 8  -7249114.58846  23515772.759    23515783.3924
  21925097.069   -22152756.103 8 -16959165.74247  21925096.732    21925105.6954
  22188068.195   -18017629.095 8 -14012183.46446  22188068.610    22188076.7144
 02  1 25  2 58  0.0000000  0  9 06 23 17 10 18 22 30 15 26
  20287114.490   -30937553.597 9 -24091549.61548  20287114.593    20287121.1164
  20541233.576   -23575458.299 9 -18343226.11948  20541233.360    20541240.2224
  21362270.292   -25901903.641 9 -20160576.45047  21362270.098    21362277.9454
  23498764.515    -9824032.167 8  -7324185.70845  23498763.944    23498772.2514
  21930026.983   -19164732.613 9 -13905178.66047  21930026.869    21930034.5254
  23672540.430    -7503069.848 8  -5831460.98045  23672539.952    23672551.4074
  23535163.490    -9222475.591 8  -7169711.35546  23535163.965    23535174.6514
  21914615.635   -22207835.971 8 -17002084.99747  21914615.288    21914624.2004
  22177235.696   -18074554.099 8 -14056540.48146  22177236.109    22177244.1544
 02  1 25  2 58 30.0000000  0  9 06 23 17 10 18 22 30 15 26
  20289726.389   -30923827.845 9 -24080854.20348  20289726.495    20289733.0084
  20542747.029   -23567504.895 9 -18337028.62448  20542746.822    20542753.6714
  21355869.749   -25935538.655 9 -20186785.46247  21355869.539    21355877.3684
  23517960.679    -9723155.645 8  -7245580.61345  23517960.055    23517968.4264
  21914640.563   -19245588.302 9 -13968182.94547  21914640.450    21914648.0854
  23665832.165    -7538320.536 7  -5858928.91445  23665831.765    23665843.3314
  23554564.592    -9120522.977 8  -7090267.84246  23554565.123    23554575.7694
  21904164.634   -22262755.942 8 -17044879.65947  21904164.283    21904173.1574
  22166493.605   -18131003.877 8 -14100527.19846  22166494.006    22166502.0174
 02  1 25  2 59  0.0000000  0  9 06 23 17 10 18 22 30 15 26
  20292428.058   -30909630.244 9 -24069791.11748  20292428.174    20292434.7004
  20544350.337   -23559079.330 9 -18330463.21448  20544350.132    20544356.9814
  21349498.634   -25969018.760 9 -20212873.76847  21349498.410    21349506.2324
  23537181.048    -9622151.525 8  -7166876.10145  23537180.489    23537188.9274
  21899320.933   -19326093.091 9 -14030913.81247  21899320.806    21899328.3694
  23659222.953    -7573051.605 8  -5885991.96245  23659222.640    23659234.0904
  23573974.904    -9018521.695 8  -7010786.39046  23573975.416    23573986.0824
  21893744.061   -22317516.138 8 -17087549.82747  21893743.707    21893752.5454
  22155842.414   -18186975.731 8 -14144141.50646  22155842.809    22155850.7854
 02  1 25  2 59 30.0000000  0  9 06 23 17 10 18 22 30 15 26
  20295219.637   -30894960.225 9 -24058359.91348  20295219.762    20295226.2914
  20546043.258   -23550182.751 9 -18323530.77548  20546043.060    20546049.8934
  21343157.004   -26002343.841 9 -20238841.27347  21343156.790    21343164.6084
  23556425.194    -9521022.473 8  -7088074.23745  23556424.707    23556433.1134
  21884068.300   -19406245.658 9 -14093370.22947  21884068.175    21884075.6814
  23652712.867    -7607262.393 8  -5912649.61245  23652712.468    23652723.8684
  23593393.775    -8916474.527 8  -6931269.19546  23593394.343    23593405.1504
  21883353.838   -22372116.569 8 -17130095.50647  21883353.490    21883362.2994
  22145282.715   -18242466.861 8 -14187381.22946  22145283.130    22145291.0664
 02  1 25  3  0  0.0000000  0  9 06 23 17 10 18 22 30 15 26
  20298101.497   -30879816.002 9 -24046559.19948  20298101.617    20298108.1254
  20547825.839   -23540815.281 9 -18316231.41348  20547825.616    20547832.4464
  21336844.950   -26035513.323 9 -20264687.54347  21336844.750    21336852.5324
  23575693.051    -9419769.536 8  -7009175.83945  23575692.537    23575700.8614
  21868883.116   -19486043.405 9 -14155550.16047  21868883.018    21868890.5384
  23646302.075    -7640950.971 8  -5938900.32245  23646301.607    23646313.0384
  23612821.121    -8814383.330 8  -6851717.69246  23612821.674    23612832.5644
  21872994.284   -22426555.981 8 -17172515.71747  21872993.912    21873002.7024
  22134815.259   -18297473.174 8 -14230243.17946  22134815.666    22134823.5864
 02  1 25  3  0 30.0000000  0  9 06 23 17 10 18 22 30 15 26
  20301073.189   -30864199.515 9 -24034390.48548  20301073.309    20301079.8074
  20549697.250   -23530980.815 9 -18308568.15248  20549697.041    20549703.8524
  21330562.071   -26068529.762 9 -20290414.54847  21330561.859    21330569.6414
  23594983.440    -9318398.022 8  -6930185.03345  23594982.873    23594991.1124
  21853765.321   -19565487.510 9 -14217454.53147  21853765.213    21853772.6994
  23639990.373    -7674119.326 8  -5964745.64045  23639989.815    23640001.2964
  23632255.837    -8712253.597 8  -6772136.14946  23632256.399    23632267.2274
  21862664.680   -22480837.301 8 -17214812.72747  21862664.313    21862673.2044
  22124440.099   -18351994.571 8 -14272727.25546  22124440.489    22124448.4174
 02  1 25  3  1  0.0000000  0 10 06 23 17 10 18 22 30 15 26 21
  20304134.178   -30848113.735 9 -24021856.08948  20304134.330    20304140.8264
  20551656.624   -23520683.991 9 -18300544.61448  20551656.404    20551663.2134
  21324307.634   -26101396.815 9 -20316025.15147  21324307.419    21324315.1694
  23614295.165    -9216914.053 8  -6851106.61745  23614294.674    23614302.8574
  21838714.420   -19644579.905 9 -14279084.84747  21838714.323    21838721.7704
  23633777.056    -7706770.143 8  -5990187.73445  23633776.497    23633787.9514
  23651696.634    -8610091.712 8  -6692529.55746  23651697.191    23651708.0084
  21852364.541   -22534963.923 8 -17256989.20147  21852364.203    21852373.1914
  22114156.976   -18406031.852 8 -14314834.10946  22114157.388    22114165.2894
  24856012.850    -3208050.652 7  -2477459.72944  24856012.682    24856032.3294
 02  1 25  3  1 30.0000000  0 10 06 23 17 10 18 22 30 15 26 21
  20307285.853   -30831551.387 9 -24008950.33748  20307286.008    20307292.5094
  20553705.024   -23509919.519 9 -18292156.66648  20553704.806    20553711.6004
  21318082.874   -26134107.911 9 -20341514.22647  21318082.668    21318090.3734
  23633629.170    -9115313.238 8  -6771937.14445  23633628.659    23633636.9004
  21823732.002   -19723312.444 9 -14340434.75047  21823731.905    21823739.3004
  23627663.479    -7738896.076 8  -6015220.79445  23627663.049    23627674.4544
  23671144.230    -8507893.848 8  -6612894.92346  23671144.807    23671155.6784
  21842095.181   -22588929.275 8 -17299040.01047  21842094.853    21842103.8304
  22103967.874   -18459575.332 8 -14356556.17546  22103968.311    22103976.1694
  24838310.119    -3301076.825 7  -2549946.89245  24838309.797    24838329.4004
 02  1 25  3  2  0.0000000  0 10 06 23 17 10 18 22 30 15 26 21
  20310528.357   -30814511.777 9 -23995672.69448  20310528.504    20310534.9924
  20555842.226   -23498688.282 9 -18283405.00548  20555842.017    20555848.7804
  21311887.794   -26166663.038 9 -20366881.76647  21311887.587    21311895.2374
  23652985.034    -9013597.809 8  -6692678.35545  23652984.510    23652992.6314
  21808818.375   -19801683.744 9 -14401503.17247  21808818.289    21808825.6274
  23621650.164    -7770496.198 8  -6039844.13345  23621649.752    23621660.9724
  23690598.166    -8405662.739 8  -6533234.39046  23690598.760    23690609.6884
  21831856.547   -22642733.122 8 -17340964.96947  21831856.241    21831865.1894
  22093873.365   -18512622.212 8 -14397891.28246  22093873.770    22093881.5524
  24820634.630    -3393959.695 7  -2622322.37945  24820634.434    24820653.7514
 02  1 25  3  2 30.0000000  0 10 06 23 17 10 18 22 30 15 26 21
  20313861.725   -30796994.701 9 -23982023.00148  20313861.866    20313868.3504
  20558067.884   -23486992.141 9 -18274291.08048  20558067.676    20558074.4124
  21305722.254   -26199062.714 9 -20392128.17447  21305722.046    21305729.6884
  23672362.105    -8911770.471 8  -6613332.36645  23672361.605    23672369.6884
  21793973.661   -19879692.735 9 -14462289.26947  21793973.576    21793980.9144
  23615736.972    -7801570.203 8  -6064057.50345  23615736.496    23615747.6034
  23710057.858    -8303401.583 8  -6453550.42945  23710058.448    23710069.3754
  21821648.554   -22696375.753 8 -17382764.31247  21821648.257    21821657.2164
  22083873.727   -18565170.069 8 -14438837.54446  22083874.162    22083881.9244
  24802986.647    -3486698.272 8  -2694585.44345  24802986.371    24803005.5184
 02  1 25  3  3  0.0000000  0 10 06 23 17 10 18 22 30 15 26 21
  20317285.916   -30779000.337 9 -23968001.39448  20317286.065    20317292.5664
  20560381.659   -23474832.972 9 -18264816.35248  20560381.444    20560388.1834
  21299586.173   -26231307.562 9 -20417253.94747  21299585.994    21299593.6084
  23691759.804    -8809834.253 8  -6533901.53645  23691759.306    23691767.4334
  21779198.069   -19957338.659 9 -14522792.46447  21779197.955    21779205.2364
  23609923.795    -7832118.217 8  -6087861.00145  23609923.430    23609934.4764
  23729522.631    -8201113.935 8  -6373845.83145  23729523.242    23729534.0764
  21811471.116   -22749858.120 8 -17424438.77147  21811470.823    21811479.7574
  22073969.452   -18617216.885 8 -14479393.37546  22073969.879    22073977.6354
  24785366.322    -3579291.859 8  -2766735.54745  24785366.049    24785384.8994
 02  1 25  3  3 30.0000000  0 10 06 23 17 10 18 22 30 15 26 21
  20320801.071   -30760528.041 9 -23953607.37048  20320801.212    20320807.7074
  20562783.317   -23462211.896 9 -18254981.69448  20562783.112    20562789.8594
  21293479.588   -26263397.710 9 -20442259.17447  21293479.391    21293486.9554
  23711177.755    -8707791.812 8  -6454387.95245  23711177.303    23711185.4354
  21764491.837   -20034619.979 9 -14583011.54947  21764491.706    21764498.9544
  23604210.925    -7862139.537 8  -6111254.11145  23604210.435    23604221.5204
  23748991.951    -8098802.510 8  -6294122.69945  23748992.515    23749003.3674
  21801324.264   -22803180.098 8 -17465988.25747  21801323.968    21801332.7964
  22064161.031   -18668759.747 8 -14519556.52246  22064161.469    22064169.2334
  24767773.740    -3671738.841 8  -2838771.40745  24767773.448    24767792.1334
 02  1 25  3  4  0.0000000  0 10 06 23 17 10 18 22 30 15 26 21
  20324407.149   -30741577.959 9 -23938841.05148  20324407.296    20324413.7474
  20565272.511   -23449130.888 9 -18244788.65048  20565272.318    20565279.0354
  21287402.258   -26295333.807 9 -20467144.35847  21287402.068    21287409.6334
  23730615.529    -8605645.939 8  -6374793.76245  23730615.037    23730623.1714
  21749855.052   -20111535.996 9 -14642945.97947  21749854.959    21749862.2424
  23598598.284    -7891633.965 8  -6134236.64845  23598597.731    23598608.7184
  23768465.108    -7996470.770 8  -6214383.74645  23768465.663    23768476.4594
  21791207.814   -22856342.062 8 -17507413.05847  21791207.531    21791216.2894
  22054449.013   -18719796.584 8 -14559325.37046  22054449.412    22054457.1344
  24750209.238    -3764038.099 8  -2910692.18045  24750208.988    24750227.4094
 02  1 25  3  4 30.0000000  0 10 06 23 17 10 18 22 30 15 26 21
  20328104.160   -30722149.970 9 -23923702.33648  20328104.286    20328110.7584
  20567848.893   -23435591.729 9 -18234238.60648  20567848.695    20567855.4204
  21281354.182   -26327116.387 9 -20491909.92547  21281353.995    21281361.5444
  23750072.454    -8503399.241 8  -6295121.01545  23750071.967    23750080.1314
  21735288.059   -20188085.567 9 -14702594.87147  21735287.964    21735295.2114
  23593085.899    -7920601.538 8  -6156808.64445  23593085.337    23593096.1754
  23787941.559    -7894121.800 8  -6134631.36545  23787942.110    23787952.7854
  21781121.684   -22909344.494 8 -17548713.54147  21781121.384    21781130.0904
  22044833.671   -18770325.111 8 -14598698.12746  22044834.049    22044841.7624
  24732672.943    -3856189.101 8  -2982497.44545  24732672.708    24732690.9134
 02  1 25  3  5  0.0000000  0 10 06 23 17 10 18 22 30 15 26 21
  20331892.230   -30702243.437 9 -23908190.72348  20331892.364    20331898.8304
  20570512.262   -23421595.501 9 -18223332.40048  20570512.071    20570518.7994
  21275335.361   -26358745.209 9 -20516555.67747  21275335.182    21275342.6764
  23769548.153    -8401053.753 8  -6215371.28245  23769547.644    23769555.8114
  21720791.083   -20264267.003 9 -14761956.90047  21720790.989    21720798.2084
  23587673.890    -7949041.327 8  -6178969.37245  23587673.324    23587684.1374
  23807420.715    -7791758.332 8  -6054867.68745  23807421.305    23807431.9064
  21771066.017   -22962187.119 8 -17589889.49747  21771065.715    21771074.3834
  22035315.569   -18820342.383 8 -14637672.50746  22035315.959    22035323.6614
  24715165.233    -3948190.036 7  -3054185.80245  24715164.979    24715183.0404
 02  1 25  3  5 30.0000000  0 10 06 23 17 10 18 22 30 15 26 21
  20335771.396   -30681858.187 9 -23892306.08948  20335771.518    20335777.9834
  20573262.274   -23407143.858 9 -18212071.32948  20573262.087    20573268.8034
  21269345.766   -26390220.588 9 -20541081.86147  21269345.559    21269353.0044
  23789042.142    -8298612.164 8  -6135546.66945  23789041.619    23789049.7444
  21706364.409   -20340079.290 9 -14821031.27847  21706364.327    21706371.5124
  23582362.413    -7976953.058 8  -6200718.63445  23582361.791    23582372.5634
  23826902.062    -7689383.399 8  -5975095.07245  23826902.718    23826913.3044
  21761040.698   -23014870.084 8 -17630941.03847  21761040.365    21761049.0024
  22025895.307   -18869846.078 8 -14676246.69146  22025895.660    22025903.3244
  24697686.163    -4040039.890 7  -3125756.45245  24697685.989    24697703.8754
 02  1 25  3  6  0.0000000  0 10 06 23 17 10 18 22 30 15 26 21
  20339741.848   -30660993.179 9 -23876047.61748  20339741.980    20339748.4044
  20576098.842   -23392237.385 9 -18200455.84348  20576098.643    20576105.3374
  21263385.459   -26421541.949 9 -20565488.03347  21263385.255    21263392.6644
  23808554.071    -8196076.182 8  -6055648.50545  23808553.601    23808561.6534
  21692008.373   -20415520.431 9 -14879816.45947  21692008.285    21692015.4504
  23577151.474    -8004335.524 8  -6222055.48745  23577150.828    23577161.7314
  23846385.333    -7586999.064 8  -5895315.12645  23846385.940    23846396.4624
  21751045.807   -23067392.845 8 -17671867.73747  21751045.475    21751054.1024
  22016573.370   -18918832.776 8 -14714418.02746  22016573.743    22016581.3694
  24680236.357    -4131736.600 7  -3197207.79145  24680235.919    24680253.8064
 02  1 25  3  6 30.0000000  0 10 06 23 17 10 18 22 30 15 26 21
  20343803.658   -30639648.205 9 -23859415.14248  20343803.778    20343810.2044
  20579021.599   -23376877.860 9 -18188487.33048  20579021.410    20579028.1034
  21257454.376   -26452709.760 9 -20589774.55147  21257454.161    21257461.5464
  23828083.552    -8093448.379 8  -5975678.77345  23828083.081    23828091.0784
  21677723.075   -20490589.426 9 -14938311.65747  21677722.995    21677730.1134
  23572041.292    -8031188.745 8  -6242979.94845  23572040.666    23572051.6274
  23865869.673    -7484608.584 8  -5815530.39145  23865870.223    23865880.7764
  21741081.337   -23119755.673 8 -17712669.79747  21741081.003    21741089.6864
  22007350.172   -18967300.379 8 -14752184.88646  22007350.558    22007358.1474
  24662815.642    -4223279.281 7  -3268539.09744  24662815.070    24662832.9384
 02  1 25  3  7  0.0000000  0 10 06 23 17 10 18 22 30 15 26 21
  20347956.939   -30617822.618 9 -23842408.16848  20347957.063    20347963.4774
  20582030.371   -23361066.486 9 -18176166.72948  20582030.177    20582036.8584
  21251552.469   -26483723.915 9 -20613941.33847  21251552.257    21251559.6404
  23847630.140    -7990730.901 8  -5895639.17945  23847629.639    23847637.6154
  21663508.927   -20565284.797 9 -14996515.72547  21663508.855    21663515.8804
  23567032.027    -8057511.860 8  -6263491.35245  23567031.464    23567042.2794
  23885354.630    -7382214.550 8  -5735742.90045  23885355.133    23885365.8274
  21731147.426   -23171958.331 9 -17753347.05447  21731147.100    21731155.7724
  21998226.314   -19015246.108 8 -14789545.09446  21998226.695    21998234.2294
  24645424.641    -4314666.509 7  -3339749.36844  24645424.397    24645441.5294
 02  1 25  3  7 30.0000000  0 10 06 23 17 10 18 22 30 15 26 21
  20352201.519   -30595517.113 9 -23825027.23048  20352201.644    20352208.0264
  20585124.682   -23344805.625 9 -18163495.88048  20585124.485    20585131.1654
  21245679.701   -26514585.350 9 -20637989.12247  21245679.482    21245686.8504
  23867193.074    -7887927.065 8  -5815532.31845  23867192.547    23867200.5564
  21649365.882   -20639606.439 9 -15054428.56747  21649365.796    21649372.8324
  23562123.538    -8083305.470 8  -6283590.15045  23562122.892    23562133.7734
  23904839.479    -7279820.793 8  -5655955.61745  23904840.023    23904850.7464
  21721243.833   -23224001.841 8 -17793900.29947  21721243.497    21721252.1384
  21989202.088   -19062668.300 8 -14826497.35146  21989202.482    21989209.9504
  24628063.422    -4405897.755 7  -3410838.13844  24628063.247    24628079.9064
 02  1 25  3  8  0.0000000  0 10 06 23 17 10 18 22 30 15 26 21
  20356537.756   -30572729.883 9 -23807270.92648  20356537.892    20356544.2824
  20588304.482   -23328095.254 9 -18150474.76748  20588304.304    20588310.9884
  21239836.205   -26545292.738 9 -20661916.87247  21239835.998    21239843.3304
  23886772.285    -7785037.598 8  -5735358.73645  23886771.822    23886779.8634
  21635294.508   -20713551.558 9 -15112048.01147  21635294.428    21635301.4894
  23557316.091    -8108567.748 8  -6303274.93945  23557315.440    23557326.3254
  23924324.204    -7177428.408 8  -5576169.40145  23924324.735    23924335.4604
  21711370.822   -23275884.526 9 -17834328.22047  21711370.481    21711379.0944
  21980278.245   -19109562.874 8 -14863038.48246  21980278.640    21980286.1434
  24610732.482    -4496969.753 7  -3481802.83745  24610732.485    24610749.0634
 02  1 25  3  8 30.0000000  0 10 06 23 17 10 18 22 30 15 26 21
  20360965.541   -30549461.702 9 -23789139.85148  20360965.667    20360972.0734
  20591569.377   -23310938.052 9 -18137105.47548  20591569.173    20591575.8654
  21234021.799   -26575847.264 9 -20685725.50747  21234021.593    21234028.8994
  23906367.090    -7682066.135 8  -5655121.27145  23906366.576    23906374.6894
  21621294.850   -20787120.037 9 -15169373.98447  21621294.759    21621301.7304
  23552609.683    -8133299.473 8  -6322546.30445  23552609.148    23552619.8764
  23943807.648    -7075041.763 8  -5496387.66645  23943808.236    23943819.0364
  21701528.141   -23327607.723 9 -17874631.87047  21701527.805    21701536.3604
  21971455.018   -19155928.723 8 -14899167.62046  21971455.418    21971462.8594
  24593431.970    -4587882.681 8  -3552643.59045  24593431.843    24593448.3974
 02  1 25  3  9  0.0000000  0 10 06 23 17 10 18 22 30 15 26 21
  20365484.866   -30525712.356 9 -23770633.83948  20365484.988    20365491.3684
  20594918.990   -23293335.571 9 -18123389.20748  20594918.784    20594925.4674
  21228236.426   -26606249.248 9 -20709415.27147  21228236.238    21228243.5314
  23925977.129    -7579015.246 8  -5574821.88545  23925976.601    23925984.6674
  21607367.081   -20860310.551 9 -15226405.42247  21607366.981    21607373.9224
  23548004.303    -8157500.453 8  -6341404.10945  23548003.786    23548014.4254
  23963289.605    -6972663.553 8  -5416612.48745  23963290.180    23963301.0404
  21691715.767   -23379171.600 9 -17914811.35947  21691715.448    21691723.9024
  21962732.880   -19201763.302 8 -14934882.78147  21962733.316    21962740.7224
  24576161.983    -4678635.374 8  -3623359.50445  24576161.788    24576178.2434
 02  1 25  3  9 30.0000000  0 10 06 23 17 10 18 22 30 15 26 21
  20370095.969   -30501480.847 9 -23751752.12448  20370096.096    20370102.4484
  20598353.189   -23275288.480 9 -18109326.49748  20598352.987    20598359.6524
  21222480.267   -26636497.714 9 -20732985.41847  21222480.063    21222487.3324
  23945602.002    -7475886.285 8  -5494461.64445  23945601.425    23945609.5004
  21593511.565   -20933121.260 9 -15283140.92047  21593511.453    21593518.4194
  23543499.997    -8181169.520 8  -6359847.41745  23543499.555    23543510.2054
  23982769.608    -6870295.662 8  -5336845.35545  23982770.203    23982781.1644
  21681933.858   -23430575.291 9 -17954866.03047  21681933.540    21681941.9404
  21954112.523   -19247063.341 8 -14970181.42747  21954112.924    21954120.3114
  24558922.805    -4769226.035 8  -3693949.15545  24558922.672    24558938.8544
 02  1 25  3 10  0.0000000  0 10 06 23 17 10 18 22 30 15 26 21
  20374798.838   -30476766.793 9 -23732494.39448  20374798.970    20374805.3364
  20601871.754   -23256798.142 9 -18094918.39848  20601871.561    20601878.2054
  21216753.334   -26666592.736 9 -20756435.99847  21216753.128    21216760.3554
  23965241.277    -7372681.190 8  -5414042.09245  23965240.679    23965248.7074
  21579728.657   -21005550.478 9 -15339579.14747  21579728.545    21579735.4704
  23539097.308    -8204306.179 8  -6377875.88945  23539096.673    23539107.3424
  24002247.105    -6767940.783 8  -5257088.35445  24002247.700    24002258.7594
  21672182.438   -23481818.692 8 -17994795.79647  21672182.091    21672190.4704
  21945594.326   -19291826.309 8 -15005061.56647  21945594.731    21945602.1044
  24541714.823    -4859652.698 8  -3764411.03045  24541714.745    24541730.7844
 02  1 25  3 10 30.0000000  0 10 06 23 17 10 18 22 30 15 26 21
  20379593.464   -30451570.662 9 -23712861.02248  20379593.631    20379600.0244
  20605474.227   -23237866.881 9 -18080166.72048  20605474.027    20605480.6544
  21211055.410   -26696535.066 9 -20779767.59847  21211055.192    21211062.4244
  23984894.351    -7269403.152 7  -5333565.70445  23984893.744    23984901.8574
  21566018.357   -21077598.084 9 -15395720.01647  21566018.247    21566025.1024
  23534795.665    -8226910.882 8  -6395489.82545  23534795.021    23534805.8034
  24021721.460    -6665602.523 8  -5177344.31845  24021722.038    24021733.2054
  21662461.384   -23532902.446 9 -18034601.16047  21662461.021    21662469.3554
  21937178.640   -19336050.497 8 -15039521.87247  21937179.057    21937186.4414
  24524538.133    -4949914.927 8  -3834744.77745  24524538.136    24524553.9894
 02  1 25  3 11  0.0000000  0 10 06 23 17 10 18 22 30 15 26 21
  20384480.057   -30425891.352 9 -23692851.14548  20384480.198    20384486.5754
  20609160.504   -23218495.183 9 -18065071.83948  20609160.305    20609166.9164
  21205386.636   -26726323.976 9 -20802979.64747  21205386.447    21205393.6874
  24004561.007    -7166053.386 7  -5253033.45445  24004560.449    24004568.6424
  21552381.043   -21149261.896 9 -15451561.81447  21552380.957    21552387.8164
  23530595.337    -8248982.468 8  -6412688.34745  23530594.808    23530605.6714
  24041192.283    -6563282.753 8  -5097614.69745  24041192.799    24041204.0914
  21652770.962   -23583825.580 9 -18074281.36847  21652770.599    21652778.8424
  21928866.143   -19379732.611 8 -15073559.78147  21928866.582    21928873.9514
  24507393.165    -5040010.625 8  -3904948.78045  24507393.136    24507408.9084
 02  1 25  3 11 30.0000000  0 10 06 23 17 10 18 22 30 15 26 21
  20389458.289   -30399730.506 9 -23672466.04548  20389458.422    20389464.8034
  20612929.995   -23198686.265 9 -18049636.26948  20612929.786    20612936.3814
  21199746.875   -26755961.022 9 -20826073.36747  21199746.671    21199753.8884
  24024240.551    -7062636.005 7  -5172448.53745  24024240.135    24024248.3064
  21538816.702   -21220542.499 9 -15507105.01247  21538816.608    21538823.4464
  23526496.470    -8270522.351 8  -6429472.55345  23526495.916    23526506.6824
  24060658.724    -6460985.802 8  -5017902.84245  24060659.352    24060670.6544
  21643110.755   -23634589.846 9 -18113837.77847  21643110.377    21643118.5724
  21920656.908   -19422871.999 8 -15107174.79347  21920657.315    21920664.6784
  24490279.695    -5129940.583 8  -3975023.62145  24490279.624    24490295.3654
 02  1 25  3 12  0.0000000  0 10 06 23 17 10 18 22 30 15 26 21
  20394528.467   -30373086.488 9 -23651704.45348  20394528.602    20394534.9674
  20616782.606   -23178440.416 9 -18033860.23648  20616782.419    20616789.0234
  21194136.225   -26785445.062 9 -20849047.86547  21194136.015    21194143.2224
  24043932.840    -6959152.163 7  -5091811.80645  24043932.362    24043940.5824
  21525325.744   -21291437.494 9 -15562347.74247  21525325.637    21525332.4124
  23522498.934    -8291529.179 8  -6445841.40145  23522498.323    23522509.0914
  24080120.577    -6358713.309 8  -4938210.05345  24080121.169    24080132.5414
  21633481.012   -23685194.087 9 -18153269.49747  21633480.633    21633488.8074
  21912551.635   -19465465.032 8 -15140364.07347  21912552.076    21912559.3394
  24473198.296    -5219701.841 8  -4044967.02345  24473198.158    24473213.9414
 02  1 25  3 12 30.0000000  0 10 06 23 17 10 18 22 30 15 26 21
  20399690.826   -30345957.999 9 -23630565.34948  20399690.958    20399697.3154
  20620718.291   -23157758.144 9 -18017744.13348  20620718.094    20620724.6694
  21188554.819   -26814775.139 9 -20871902.39447  21188554.609    21188561.8034
  24063637.677    -6855602.888 8  -5011124.06345  24063637.250    24063645.4904
  21511908.663   -21361944.454 9 -15617288.10647  21511908.546    21511915.2804
  23518603.003    -8312001.656 8  -6461793.85745  23518602.480    23518613.2334
  24099577.425    -6256467.100 8  -4858537.75545  24099578.059    24099589.4064
  21623881.935   -23735636.979 9 -18192575.49447  21623881.559    21623889.7214
  21904551.014   -19507508.422 8 -15173125.05347  21904551.415    21904558.6614
  24456149.582    -5309292.048 8  -4114777.14145  24456149.430    24456165.1264
 02  1 25  3 13  0.0000000  0 10 06 23 17 10 18 22 30 15 26 21
  20404945.144   -30318346.378 9 -23609049.77548  20404945.270    20404951.6234
  20624736.396   -23136642.657 9 -18001290.45948  20624736.192    20624742.7494
  21183002.368   -26843952.769 9 -20894638.13547  21183002.183    21183009.3654
  24083354.252    -6751991.810 8  -4930388.16345  24083353.801    24083362.0164
  21498565.234   -21432064.076 9 -15671926.64347  21498565.133    21498571.8684
  23514808.717    -8331941.020 8  -6477330.90445  23514808.186    23514818.8324
  24119028.560    -6154251.114 8  -4778888.99845  24119029.064    24119040.4644
  21614313.303   -23785920.076 9 -18231756.97747  21614312.923    21614321.0434
  21896655.089   -19549001.170 8 -15205456.97047  21896655.501    21896662.7414
  24439133.377    -5398711.445 8  -4184454.18345  24439133.261    24439148.6684
 02  1 25  3 13 30.0000000  0 10 06 23 17 10 18 22 30 15 26 21
  20410291.573   -30290250.519 9 -23587156.87848  20410291.709    20410298.0544
  20628836.850   -23115094.465 9 -17984499.61148  20628836.644    20628843.1914
  21177479.248   -26872976.839 9 -20917254.22247  21177479.056    21177486.1544
  24103082.361    -6648320.044 8  -4849604.96945  24103081.923    24103090.1394
  21485295.992   -21501794.016 9 -15726261.53347  21485295.879    21485302.5724
  23511115.896    -8351346.243 8  -6492451.74145  23511115.484    23511125.9964
  24138473.565    -6052067.186 8  -4699265.22545  24138474.192    24138485.4254
  21604775.212   -23836042.451 9 -18270813.21447  21604774.836    21604782.9424
  21888864.637   -19589940.033 8 -15237357.28047  21888865.034    21888872.2324
  24422149.994    -5487957.662 7  -4253996.25145  24422149.938    24422165.2314
 02  1 25  3 14  0.0000000  0 10 06 23 17 10 18 22 30 15 26 21
  20415730.129   -30261670.560 9 -23564886.75648  20415730.294    20415736.6174
  20633019.261   -23093115.470 9 -17967373.07848  20633019.068    20633025.5924
  21171985.305   -26901847.681 9 -20939750.91647  21171985.100    21171992.1494
  24122821.478    -6544590.364 8  -4768776.66345  24122821.038    24122829.2954
  21472101.041   -21571133.437 9 -15780292.12847  21472100.934    21472107.5874
  23507524.684    -8370217.359 8  -6507156.39645  23507524.200    23507534.8484
  24157911.918    -5949918.403 8  -4619668.82645  24157912.515    24157923.6954
  21595267.618   -23886004.233 9 -18309744.32147  21595267.258    21595275.3894
  21881179.890   -19630323.040 8 -15268824.45847  21881180.304    21881187.4984
  24405199.896    -5577029.622 7  -4323402.56245  24405199.743    24405215.0184
 02  1 25  3 14 30.0000000  0 10 06 23 17 10 18 22 30 15 26 21
  20421260.805   -30232606.716 9 -23542239.57948  20421260.955    20421267.2614
  20637283.333   -23070707.551 9 -17949912.31148  20637283.136    20637289.6234
  21166520.330   -26930565.839 9 -20962128.62547  21166520.123    21166527.2294
  24142571.143    -6440805.373 8  -4687905.25845  24142570.616    24142578.8924
  21458980.493   -21640081.837 9 -15834018.02547  21458980.357    21458987.0104
  23504035.117    -8388554.770 8  -6521445.18445  23504034.715    23504045.2774
  24177343.003    -5847807.795 8  -4540102.16445  24177343.663    24177354.6934
  21585790.592   -23935805.592 9 -18348550.42747  21585790.239    21585798.3124
  21873601.291   -19670148.409 8 -15299857.10947  21873601.701    21873608.8684
  24388283.004    -5665926.879 7  -4392672.73945  24388282.754    24388297.9574
 02  1 25  3 15  0.0000000  0 10 06 23 17 10 18 22 30 15 26 21
  20426883.566   -30203058.858 9 -23519215.24948  20426883.693    20426890.0164
  20641628.674   -23047872.355 9 -17932118.60648  20641628.478    20641634.9534
  21161084.460   -26959131.053 9 -20984387.16047  21161084.276    21161091.3844
  24162330.981    -6336966.952 8  -4606992.21545  24162330.407    24162338.6774
  21445934.633   -21708637.802 9 -15887438.13647  21445934.499    21445941.0954
  23500647.203    -8406358.203 8  -6535317.88045  23500646.801    23500657.3134
  24196766.342    -5745737.973 8  -4460567.27745  24196766.946    24196777.8844
  21576344.167   -23985446.505 9 -18387231.52147  21576343.798    21576351.7704
  21866129.224   -19709413.828 8 -15330453.44947  21866129.673    21866136.8144
  24371399.672    -5754647.753 7  -4461805.46845  24371399.382    24371414.4954
 02  1 25  3 15 30.0000000  0 10 06 23 17 10 18 22 30 15 26 21
  20432598.409   -30173027.006 9 -23495813.78048  20432598.546    20432604.8654
  20646055.011   -23024611.652 9 -17913993.33548  20646054.804    20646061.2624
  21155677.710   -26987543.619 9 -21006526.75647  21155677.509    21155684.5404
  24182100.559    -6233077.622 8  -4526039.49645  24182099.881    24182108.2284
  21432963.549   -21776800.593 9 -15940551.87647  21432963.428    21432969.9894
  23497360.746    -8423627.863 8  -6548774.63545  23497360.376    23497370.8464
  24216181.406    -5643711.894 8  -4381066.46145  24216181.906    24216192.8154
  21566928.200   -24034927.236 9 -18425787.79647  21566927.827    21566935.7154
  21858764.239   -19748117.144 8 -15360611.77747  21858764.632    21858771.7394
  24354549.976    -5843191.325 7  -4530800.04545  24354549.687    24354564.6994
 02  1 25  3 16  0.0000000  0 10 06 23 17 10 18 22 30 15 26 21
  20438405.412   -30142510.852 9 -23472034.93348  20438405.566    20438411.8644
  20650562.063   -23000926.740 9 -17895537.51248  20650561.854    20650568.3154
  21150300.064   -27015803.128 9 -21028547.08547  21150299.852    21150306.8184
  24201879.399    -6129139.093 8  -4445048.44745  24201878.718    24201887.0824
  21420067.648   -21844568.659 9 -15993358.03747  21420067.536    21420074.0634
  23494176.057    -8440363.217 8  -6561815.04845  23494175.641    23494186.1404
  24235587.656    -5541731.933 8  -4301601.58645  24235588.112    24235599.0034
  21557542.814   -24084247.274 9 -18464218.86547  21557542.454    21557550.2874
  21851506.538   -19786256.025 8 -15390330.28447  21851506.927    21851513.9914
  24337734.436    -5931556.383 8  -4599655.57745  24337734.198    24337748.9934
 02  1 25  3 16 30.0000000  0 10 06 23 17 10 18 22 30 15 26 21
  20444304.632   -30111510.142 9 -23447878.51048  20444304.772    20444311.0554
  20655149.631   -22976818.790 9 -17876752.04548  20655149.408    20655155.8604
  21144951.566   -27043909.291 9 -21050447.92047  21144951.355    21144958.3614
  24221667.257    -6025153.310 8  -4364020.55545  24221666.640    24221674.7514
  21407247.088   -21911940.725 9 -16045855.63547  21407246.962    21407253.4374
  23491093.176    -8456563.883 8  -6574438.85446  23491092.695    23491103.1384
  24254984.534    -5439800.491 8  -4222174.54545  24254985.013    24254996.0034
  21548188.106   -24133406.109 9 -18502524.32847  21548187.760    21548195.5684
  21844356.775   -19823827.763 8 -15419606.86647  21844357.176    21844364.2304
  24320953.153    -6019741.444 8  -4668370.87045  24320952.905    24320967.4434
 02  1 25  3 17  0.0000000  0 10 06 23 17 10 18 22 30 15 26 21
  20450296.105   -30080024.883 9 -23423344.51948  20450296.225    20450302.4764
  20659817.302   -22952289.753 9 -17857638.46848  20659817.096    20659823.5314
  21139632.266   -27071861.977 9 -21072229.16647  21139632.067    21139639.0814
  24241463.717    -5921122.356 8  -4282957.46445  24241463.113    24241471.1524
  21394501.994   -21978915.950 9 -16098044.01147  21394501.895    21394508.3204
  23488111.930    -8472230.203 8  -6586646.27546  23488111.419    23488121.8134
  24274371.780    -5337920.187 7  -4142787.34145  24274372.202    24274383.2764
  21538864.049   -24182403.869 9 -18540704.28047  21538863.685    21538871.4964
  21837315.314   -19860830.511 8 -15448440.08647  21837315.731    21837322.7364
  24304206.264    -6107745.215 8  -4736944.90245  24304206.089    24304220.3974
 02  1 25  3 17 30.0000000  0 10 06 23 17 10 18 22 30 15 26 21
  20456379.619   -30048055.560 9 -23398433.32948  20456379.743    20456385.9954
  20664564.715   -22927341.778 9 -17838198.43648  20664564.500    20664570.9304
  21134342.121   -27099661.869 9 -21093891.35147  21134341.910    21134348.8654
  24261268.199    -5817049.126 8  -4201861.41245  24261267.795    24261275.6554
  21381832.557   -22045493.992 9 -16149922.89647  21381832.426    21381838.8274
  23485232.273    -8487362.703 8  -6598437.72045  23485231.763    23485242.0614
  24293748.550    -5236094.321 7  -4063442.59845  24293748.958    24293760.2194
  21529570.492   -24231240.907 9 -18578758.99247  21529570.129    21529578.0104
  21830382.500   -19897262.611 8 -15476828.63247  21830382.880    21830389.8574
  24287494.103    -6195566.764 8  -4805376.99645  24287493.928    24287508.1064
 02  1 25  3 18  0.0000000  0 10 06 23 17 10 18 22 30 15 26 21
  20462555.340   -30015601.688 9 -23373144.57148  20462555.488    20462561.7424
  20669391.643   -22901975.935 9 -17818432.79248  20669391.428    20669397.8494
  21129081.096   -27127308.288 9 -21115433.94447  21129080.882    21129087.8094
  24281080.445    -5712934.981 8  -4120733.47045  24281079.978    24281087.9014
  21369239.022   -22111672.887 9 -16201490.75347  21369238.914    21369245.2974
  23482454.197    -8501960.797 8  -6609812.76045  23482453.736    23482463.9414
  24313114.541    -5134325.022 7  -3984141.91545  24313114.961    24313126.3344
  21520307.713   -24279916.832 9 -18616688.17347  21520307.361    21520315.1914
  21823558.713   -19933121.370 8 -15504770.43347  21823559.104    21823566.0534
  24270816.932    -6283204.311 8  -4873665.70245  24270816.874    24270830.7474
 02  1 25  3 18 30.0000000  0 10 06 23 17 10 18 22 30 15 26 21
  20468823.279   -29982663.381 9 -23347478.33148  20468823.429    20468829.6714
  20674297.739   -22876194.073 9 -17798342.98348  20674297.522    20674303.9274
  21123849.248   -27154801.415 9 -21136857.09447  21123849.044    21123855.9654
  24300900.098    -5608782.298 8  -4039575.53445  24300899.518    24300907.4284
  21356721.599   -22177452.045 9 -16252747.13947  21356721.490    21356727.8134
  23479777.792    -8516024.726 8  -6620771.54345  23479777.319    23479787.5954
  24332469.360    -5032614.970 7  -3904887.40745  24332469.791    24332481.1134
  21511075.549   -24328431.492 9 -18654491.69447  21511075.193    21511082.9774
  21816844.419   -19968405.024 8 -15532264.09947  21816844.833    21816851.7144
  24254174.957    -6370657.064 8  -4941810.40645  24254174.984    24254188.7464
 02  1 25  3 19  0.0000000  0 10 06 23 17 10 18 22 30 15 26 21
  20475183.408   -29949240.653 9 -23321434.62248  20475183.545    20475189.7874
  20679282.660   -22849997.874 9 -17777930.31048  20679282.441    20679288.8304
  21118646.645   -27182141.041 9 -21158160.63147  21118646.445    21118653.3804
  24320726.811    -5504592.765 8  -3958388.88245  24320726.172    24320734.1344
  21344280.486   -22242830.214 9 -16303691.05847  21344280.362    21344286.6774
  23477202.980    -8529554.530 7  -6631314.12745  23477202.481    23477212.8524
  24351812.365    -4930966.946 8  -3825681.20645  24351812.800    24351824.1764
  21501874.096   -24376784.891 9 -18692169.56747  21501873.773    21501881.4764
  21810239.989   -20003111.328 8 -15559307.88447  21810240.345    21810247.2434
  24237568.409    -6457923.565 8  -5009809.96345  24237568.391    24237582.1334
 02  1 25  3 19 30.0000000  0 10 06 23 17 10 18 22 30 15 26 21
  20481635.637   -29915333.796 9 -23295013.66848  20481635.779    20481642.0044
  20684346.077   -22823389.198 9 -17757196.22648  20684345.865    20684352.2684
  21113473.230   -27209327.382 9 -21179344.72747  21113473.007    21113479.9364
  24340559.963    -5400368.961 8  -3877175.53745  24340559.431    24340567.3184
  21331915.794   -22307806.773 9 -16354322.03347  21331915.652    21331921.9924
  23474729.757    -8542550.580 7  -6641440.80445  23474729.264    23474739.6944
  24371143.143    -4829383.611 8  -3746525.42245  24371143.518    24371154.8184
  21492703.375   -24424977.286 9 -18729721.98847  21492703.031    21492710.6184
  21803745.735   -20037238.552 8 -15585900.43147  21803746.111    21803752.9474
  24220997.431    -6545002.997 7  -5077663.73745  24220997.423    24221011.3364
 02  1 25  3 20  0.0000000  0 10 06 23 17 10 18 22 30 15 26 21
  20488179.983   -29880942.828 9 -23268215.49048  20488180.138    20488186.3644
  20689487.631   -22796369.821 9 -17736142.11848  20689487.416    20689493.8394
  21108328.942   -27236360.366 9 -21200409.32647  21108328.738    21108335.6684
  24360399.179    -5296112.855 8  -3795937.03145  24360398.707    24360406.6524
  21319627.693   -22372380.807 9 -16404639.35947  21319627.549    21319633.8374
  23472358.020    -8555012.921 8  -6651151.61445  23472357.625    23472368.1324
  24390461.088    -4727867.607 8  -3667422.11545  24390461.494    24390472.8084
  21483563.328   -24473008.302 9 -18767148.65947  21483562.989    21483570.5034
  21797362.059   -20070784.734 8 -15612040.22647  21797362.400    21797369.2294
  24204462.237    -6631894.406 8  -5145370.99145  24204462.260    24204476.1804
 02  1 25  3 20 30.0000000  0 10 06 23 17 10 18 22 30 15 26 21
  20494816.443   -29846067.845 9 -23241040.15248  20494816.594    20494822.8224
  20694707.021   -22768941.409 9 -17714769.27748  20694706.833    20694713.2404
  21103213.834   -27263240.072 9 -21221354.48747  21103213.649    21103220.5544
  24380244.146    -5191826.582 7  -3714675.00545  24380243.729    24380251.7854
  21307416.385   -22436551.308 9 -16454642.23747  21307416.233    21307422.4764
  23470088.089    -8566941.784 8  -6660446.72945  23470087.587    23470098.0724
  24409765.673    -4626421.747 8  -3588373.45245  24409766.170    24409777.3884
  21474453.948   -24520877.784 9 -18804449.44547  21474453.605    21474461.1294
  21791089.280   -20103747.940 8 -15637725.75747  21791089.673    21791096.4474
  24187963.122    -6718596.389 8  -5212930.63545  24187963.082    24187977.0044
 02  1 25  3 21  0.0000000  0 10 06 23 17 10 18 22 30 15 26 21
  20501545.004   -29810708.947 9 -23213487.73648  20501545.156    20501551.3774
  20700003.981   -22741105.617 9 -17693079.00348  20700003.776    20700010.1694
  21098128.025   -27289966.324 9 -21242180.08147  21098127.810    21098134.6554
  24400094.441    -5087512.363 7  -3633391.23245  24400094.007    24400102.2214
  21295282.008   -22500317.368 9 -16504329.96947  21295281.893    21295288.1254
  23467919.510    -8578337.333 8  -6669326.26546  23467918.998    23467929.5084
  24429056.426    -4525048.492 8  -3509381.36845  24429056.906    24429068.1234
  21465375.324   -24568585.692 9 -18841624.33447  21465374.991    21465382.5584
  21784927.897   -20136126.063 8 -15662955.37047  21784928.268    21784934.9814
  24171500.402    -6805107.723 8  -5280341.72145  24171500.309    24171514.1044
 02  1 25  3 21 30.0000000  0 10 06 23 17 10 18 22 30 15 26 21
  20508365.755   -29774865.729 9 -23185557.93548  20508365.904    20508372.1154
  20705378.254   -22712863.547 9 -17671072.15048  20705378.055    20705384.4194
  21093071.450   -27316538.433 9 -21262885.56047  21093071.221    21093078.0984
  24419949.845    -4983171.451 7  -3552086.67245  24419949.201    24419957.6824
  21283224.894   -22563677.578 9 -16553701.45847  21283224.760    21283230.9594
  23465852.512    -8589199.140 8  -6677789.90546  23465851.989    23465862.4684
  24448332.962    -4423749.896 8  -3430447.47545  24448333.411    24448344.7284
  21456327.545   -24616131.478 9 -18878672.89847  21456327.204    21456334.8044
  21778878.272   -20167916.611 8 -15687727.13447  21778878.636    21778885.3414
  24155074.093    -6891427.118 8  -5347603.24945  24155073.901    24155087.7564
 02  1 25  3 22  0.0000000  0 10 06 23 17 10 18 22 30 15 26 21
  20515278.542   -29738538.754 9 -23157251.17548  20515278.678    20515284.8904
  20710829.354   -22684217.558 9 -17648750.55648  20710829.151    20710835.5294
  21088044.108   -27342956.803 9 -21283471.24647  21088043.911    21088050.7854
  24439809.791    -4878806.087 6  -3470763.09845  24439809.124    24439817.6384
  21271245.101   -22626631.359 9 -16602756.24947  21271244.974    21271251.1334
  23463886.917    -8599528.043 8  -6685838.29246  23463886.379    23463896.8564
  24467594.609    -4322529.086 8  -3351574.18045  24467595.116    24467606.3744
  21447310.631   -24663515.375 9 -18915595.31747  21447310.276    21447317.8664
  21772940.649   -20199118.411 8 -15712040.14547  21772941.047    21772947.7534
  24138684.507    -6977553.645 8  -5414714.49145  24138684.267    24138698.0684
 02  1 25  3 22 30.0000000  0 10 06 23 17 10 18 22 30 15 26 21
  20522283.285   -29701728.409 9 -23128567.76748  20522283.419    20522289.6124
  20716356.957   -22655169.641 9 -17626115.77448  20716356.765    20716363.1194
  21083046.109   -27369221.436 9 -21303937.14347  21083045.901    21083052.6944
  24459673.908    -4774418.843 7  -3389422.50745  24459673.300    24459681.7654
  21259342.751   -22689178.266 9 -16651493.99547  21259342.624    21259348.7584
  23462022.683    -8609324.351 8  -6693471.68045  23462022.190    23462032.5624
  24486841.033    -4221388.776 7  -3272763.62745  24486841.592    24486852.8844
  21438324.525   -24710737.418 9 -18952391.61747  21438324.187    21438331.7194
  21767115.475   -20229729.695 8 -15735893.00447  21767115.850    21767122.5624
  24122331.830    -7063486.001 8  -5481674.41845  24122331.618    24122345.4334
 02  1 25  3 23  0.0000000  0 10 06 23 17 10 18 22 30 15 26 21
  20529380.083   -29664434.436 9 -23099507.50848  20529380.226    20529386.3944
  20721960.801   -22625721.025 9 -17603168.76348  20721960.605    20721966.9414
  21078077.458   -27395331.880 9 -21324282.89147  21078077.231    21078083.9754
  24479542.096    -4670011.322 7  -3308065.99945  24479541.606    24479549.9854
  21247518.083   -22751316.913 9 -16699913.62247  21247517.940    21247524.0504
  23460259.758    -8618587.962 7  -6700689.97145  23460259.310    23460269.6124
  24506071.715    -4120331.261 7  -3194017.59545  24506072.299    24506083.5544
  21429369.359   -24757797.002 9 -18989061.33147  21429369.007    21429376.4264
  21761403.085   -20259748.089 8 -15759283.87347  21761403.454    21761410.1744
  24106016.363    -7149222.946 8  -5548482.07145  24106016.133    24106029.7844
 02  1 25  3 23 30.0000000  0 10 06 23 17 10 18 22 30 15 26 21
  20536568.854   -29626657.231 9 -23070070.70148  20536568.979    20536575.1354
  20727640.551   -22595873.546 9 -17579910.95348  20727640.353    20727646.6914
  21073138.072   -27421288.227 9 -21344508.56547  21073137.850    21073144.5864
  24499413.754    -4565585.406 7  -3226695.14345  24499413.299    24499421.6254
  21235771.220   -22813046.508 9 -16748014.50247  21235771.102    21235777.1744
  23458598.124    -8627319.441 7  -6707493.61245  23458597.691    23458607.9524
  24525285.964    -4019359.210 7  -3115338.16945  24525286.667    24525297.9574
  21420444.978   -24804694.313 9 -19025604.58947  21420444.615    21420451.9844
  21755803.824   -20289171.990 8 -15782211.50047  21755804.220    21755810.9424
  24089738.129    -7234764.076 8  -5615137.11645  24089737.922    24089751.5214
 02  1 25  3 24  0.0000000  0 10 06 23 17 10 18 22 30 15 26 21
  20543849.463   -29588397.205 9 -23040257.67048  20543849.599    20543855.7564
  20733395.831   -22565629.190 9 -17556343.89048  20733395.629    20733401.9834
  21068228.044   -27447090.387 9 -21364614.09147  21068227.819    21068234.5644
  24519288.488    -4461143.229 8  -3145311.60245  24519288.060    24519296.1664
  21224102.370   -22874366.212 9 -16795795.99247  21224102.260    21224108.3124
  23457037.751    -8635518.954 8  -6713882.73745  23457037.311    23457047.5134
  24544483.569    -3918475.129 7  -3036727.29745  24544484.297    24544495.6114
  21411551.511   -24851429.124 9 -19062021.22347  21411551.162    21411558.5504
  21750318.027   -20317999.740 8 -15804674.59347  21750318.418    21750325.0804
  24073497.490    -7320107.739 8  -5681638.29245  24073497.235    24073510.8914
 02  1 25  3 24 30.0000000  0 10 06 23 17 10 18 22 30 15 26 21
  20551221.870   -29549654.787 9 -23010068.75448  20551222.005    20551228.1544
  20739226.232   -22534989.970 9 -17532469.14448  20739226.043    20739232.3904
  21063347.329   -27472738.571 9 -21384599.64448  21063347.108    21063353.8344
  24539165.804    -4356687.367 8  -3063917.39345  24539165.359    24539173.5254
  21212511.624   -22935275.473 9 -16843257.66147  21212511.524    21212517.5494
  23455578.426    -8643187.312 8  -6719857.98145  23455577.941    23455588.1864
  24563663.803    -3817682.134 7  -2958187.39045  24563664.529    24563676.0684
  21402688.984   -24898001.702 9 -19098311.45147  21402688.627    21402696.0374
  21744946.010   -20346229.777 8 -15826671.93247  21744946.367    21744952.9884
  24057294.544    -7405252.901 8  -5747984.75045  24057294.312    24057307.9044
